GFSCGP_con_3kmhel_000.txt.gz
Helicity
46 12 39 39 40 24 8 7 25 39 41 45 44 54 82 91 132 125 95 66 66 129 91 63 57 61 98 110 115 87 174 175 173 145 101 93 87 94 108 113 107 87 94 83
10 36 28 32 30 16 8 7 26 32 32 38 51 70 103 124 174 163 128 120 108 119 115 117 114 120 125 144 182 178 198 206 185 146 127 112 120 150 128 128 102 92 102 100
44 47 23 22 42 31 19 26 36 28 25 25 29 79 106 122 142 144 149 138 168 190 198 193 175 155 139 149 166 197 214 203 197 169 148 133 132 128 144 133 118 97 99 92
57 37 32 28 42 44 18 37 21 12 21 48 43 93 109 123 147 154 165 183 190 178 153 138 121 123 142 181 200 228 217 196 176 161 135 120 149 163 141 99 43 44 79 61
46 47 45 49 41 43 60 38 29 32 31 49 76 49 147 106 166 174 199 203 166 154 148 133 111 159 201 223 238 220 194 164 122 103 91 80 88 49 21 81 142 115 102 65
62 37 48 44 18 25 39 25 33 45 61 73 98 90 148 132 151 172 210 253 200 154 115 100 122 150 189 217 209 180 146 115 120 62 34 -1 -12 1 93 144 131 119 87 88
32 44 21 30 17 7 44 23 43 57 68 119 74 52 215 111 128 155 177 159 124 108 106 111 137 175 195 201 161 93 86 49 32 -11 -50 -26 95 137 139 144 143 116 98 91
21 39 21 11 17 18 42 55 69 71 75 74 51 80 128 96 138 166 140 92 74 90 95 120 156 157 147 143 150 117 81 50 80 122 155 147 166 158 152 142 103 72 65 73
4 28 26 29 27 4 30 56 41 55 51 32 61 70 79 109 135 153 97 44 47 54 75 113 101 90 56 49 35 74 124 130 136 156 178 158 154 139 110 88 54 39 74 134
16 32 31 40 26 57 50 42 29 49 62 35 46 30 20 109 74 108 86 59 46 60 95 105 105 66 33 71 105 135 151 171 174 176 180 166 143 121 101 63 64 103 105 114
5 7 39 28 32 46 57 63 80 76 63 42 19 22 165 74 64 68 77 81 61 95 124 125 114 84 37 75 116 159 179 171 174 184 172 132 99 71 81 112 128 121 120 147
6 27 43 66 87 80 97 117 109 86 75 89 112 53 98 35 84 71 61 116 107 138 119 140 134 96 80 108 161 228 169 203 233 160 108 81 49 81 108 126 131 131 134 138
30 52 71 98 115 122 131 131 139 118 111 68 84 59 110 43 36 88 92 111 113 145 140 168 160 131 144 163 224 169 184 202 146 88 71 99 75 86 105 124 117 113 139 160
35 83 112 134 141 167 156 105 93 85 140 95 67 25 21 82 67 66 122 107 131 123 150 185 139 130 167 166 164 198 168 133 92 88 115 109 104 129 124 115 82 69 87 98
65 106 134 116 75 92 107 57 56 79 60 81 38 50 74 67 63 76 92 85 102 117 140 151 129 174 126 103 55 119 117 105 84 127 125 122 123 116 93 80 90 107 118 95
92 137 142 140 95 95 69 57 46 33 42 79 66 52 116 78 83 101 76 99 126 132 158 144 119 87 63 54 106 115 112 98 88 117 111 118 130 129 131 101 85 103 90 84
109 150 174 172 92 60 74 40 103 86 101 71 80 131 97 118 134 121 79 123 176 207 148 119 125 98 91 82 107 100 97 95 96 120 119 150 167 152 137 102 93 85 75 69
158 179 193 183 113 121 147 84 64 29 26 69 86 135 132 124 134 108 229 205 237 167 136 142 131 110 74 70 84 97 93 119 127 124 135 175 188 145 113 89 73 62 67 67
101 155 194 188 179 85 18 114 95 105 43 146 149 156 148 153 155 167 171 118 128 80 68 106 92 80 65 75 119 119 129 133 111 102 150 192 158 113 89 64 64 66 72 74
143 130 159 200 195 180 134 116 38 102 107 182 182 121 115 130 178 171 120 115 86 97 126 115 71 66 73 116 149 152 150 130 111 135 101 117 115 97 64 62 65 72 76 85
167 165 152 114 165 124 111 134 117 125 198 169 157 162 170 142 117 100 117 47 76 90 80 80 65 81 91 104 138 144 156 119 107 109 102 86 106 82 63 70 73 80 85 96
150 187 140 134 152 112 140 135 150 177 150 150 128 120 110 71 77 103 74 95 96 94 86 90 95 89 89 113 140 127 146 143 124 105 91 92 93 79 77 74 78 80 88 129
163 170 167 210 177 119 91 114 135 167 172 144 180 100 63 9 38 73 96 97 92 79 80 87 92 84 103 107 131 126 142 164 120 91 90 86 89 80 76 78 78 87 105 152
219 167 226 191 118 52 95 125 146 179 167 163 95 31 -4 42 89 112 104 97 87 79 92 115 115 123 113 102 137 176 197 163 115 89 86 85 83 97 72 86 89 98 138 148
187 170 156 115 66 92 127 161 181 136 122 41 36 52 83 121 104 98 98 86 99 116 139 138 132 125 115 107 164 184 141 115 105 98 87 84 91 87 79 83 100 99 127 157
106 79 187 206 141 160 149 153 71 31 42 80 98 103 115 95 94 97 105 118 126 138 127 121 102 100 91 115 126 122 150 123 104 84 72 92 88 91 90 81 71 173 164 154

GFSCGP_con_3kmhel_003.txt.gz
Helicity
19 45 71 86 57 86 80 33 30 67 63 38 51 42 86 58 55 70 54 59 42 24 56 139 100 109 89 80 45 34 145 267 108 114 133 145 120 110 135 110 151 137 193 101
16 50 38 30 34 34 23 19 34 39 39 44 35 56 82 86 115 116 98 93 98 141 163 154 135 110 89 150 139 224 236 202 151 177 240 157 145 157 123 117 186 84 125 59
78 58 27 32 41 58 32 61 64 61 26 4 15 61 88 95 109 115 162 198 164 171 177 167 158 165 155 147 179 222 276 282 295 269 228 220 150 139 157 196 124 110 95 105
56 49 43 38 45 68 34 59 32 17 11 -1 33 27 154 139 149 150 164 183 173 141 133 133 137 133 138 179 249 285 299 300 267 278 223 151 152 180 167 128 139 130 86 124
49 48 45 54 60 52 89 35 21 22 23 44 36 21 189 87 150 172 216 186 165 180 173 163 136 127 150 178 220 235 242 238 196 157 119 79 161 154 115 117 170 151 105 163
75 40 69 69 34 24 17 9 12 16 41 62 109 57 83 112 197 155 143 130 167 187 145 120 104 99 140 192 215 189 191 140 65 3 32 114 138 119 117 130 144 178 179 144
33 47 35 35 8 7 20 7 33 41 54 60 104 43 156 180 145 188 131 125 133 127 95 64 68 132 189 163 133 113 88 79 77 127 160 124 62 91 114 159 196 172 136 139
6 40 8 3 19 7 19 26 57 58 81 77 80 48 148 151 109 116 119 115 96 95 62 82 110 111 116 104 91 82 55 47 99 78 110 138 148 164 201 221 158 101 93 107
-14 21 25 16 17 1 27 40 29 40 55 49 55 103 98 100 79 85 73 60 87 94 99 77 54 85 81 111 107 75 41 46 109 159 158 176 189 217 204 144 58 97 108 113
4 16 16 21 9 20 26 37 22 51 69 63 79 27 133 100 87 109 29 43 50 55 38 51 48 81 103 103 129 103 86 101 164 211 213 246 219 158 108 97 102 120 133 144
7 3 34 25 22 21 54 57 55 59 86 82 81 72 133 152 126 115 57 37 19 37 54 47 85 114 107 98 128 184 144 226 214 222 196 137 136 107 112 132 167 229 186 137
-7 8 23 61 81 47 57 102 99 82 100 80 74 47 136 93 76 32 53 55 77 60 43 54 71 119 140 182 190 180 301 224 159 117 122 121 153 132 95 182 238 181 150 159
6 30 28 102 124 126 74 130 112 124 102 58 102 57 39 91 12 52 87 133 64 116 142 134 161 134 96 173 313 307 165 161 136 152 142 146 138 120 178 189 126 86 95 92
25 47 62 73 96 145 143 108 90 88 118 66 34 30 12 49 88 105 83 129 183 133 111 142 226 198 211 260 198 147 148 126 129 115 105 126 147 130 112 106 105 126 117 109
31 58 77 59 62 111 117 76 66 74 81 96 31 20 23 74 139 89 76 119 119 74 149 227 170 134 136 123 186 124 161 118 92 117 119 140 127 91 124 161 143 121 109 103
51 90 92 83 90 111 87 54 36 59 71 48 40 22 105 113 81 96 172 128 155 189 181 128 117 134 110 155 115 98 85 86 144 146 148 160 134 167 141 149 129 115 96 83
71 89 98 95 84 67 142 111 119 82 58 66 64 44 95 78 206 170 145 163 232 155 112 122 141 141 136 133 104 78 94 104 142 108 138 132 230 159 170 146 120 97 89 72
99 99 128 116 96 126 224 106 16 69 28 35 42 117 188 187 141 141 227 172 127 139 104 116 146 147 117 87 80 71 116 74 95 124 160 167 215 181 141 115 84 94 64 71
89 115 128 136 135 100 44 174 167 80 31 52 169 175 138 115 112 130 155 151 132 79 105 156 135 114 96 91 86 73 92 87 99 112 94 134 162 97 125 113 88 60 61 68
130 129 99 169 184 207 214 138 91 55 77 249 174 179 114 122 153 168 148 98 70 75 110 103 116 91 91 93 100 102 78 91 113 158 156 143 115 135 81 87 63 53 57 89
132 131 126 145 198 161 118 163 67 147 155 168 158 107 108 140 159 127 43 54 91 97 72 93 85 119 104 118 98 95 69 104 139 155 217 124 117 100 79 62 48 55 68 122
87 106 125 178 203 160 135 170 209 126 108 180 113 101 140 138 83 42 79 93 89 105 116 106 125 132 134 111 105 96 55 82 114 163 191 118 96 90 74 44 51 74 83 130
83 100 131 210 190 108 111 119 58 124 150 136 122 117 77 95 82 94 82 115 116 114 113 118 146 144 121 97 76 62 107 154 233 188 161 112 84 88 57 99 79 87 106 147
82 59 236 188 119 64 70 63 190 210 117 123 70 14 75 54 110 111 132 125 119 116 119 143 145 134 94 74 68 87 169 111 93 68 95 108 115 108 82 87 85 118 130 109
91 106 130 140 63 74 58 182 197 124 95 76 55 93 103 113 126 122 122 112 125 124 134 132 88 84 93 85 104 132 147 128 105 96 76 91 74 81 82 72 129 108 141 153
95 76 119 134 155 165 167 204 117 61 100 105 155 139 140 124 114 101 122 132 116 137 102 93 84 96 115 127 131 114 120 116 76 67 78 74 74 72 75 82 93 147 125 131

GFSCGP_con_3kmhel_009.txt.gz
Helicity
50 16 61 41 60 67 71 55 62 81 74 38 12 43 143 242 189 167 89 150 300 355 418 486 437 264 244 204 165 164 46 45 67 167 299 302 328 325 445 415 293 235 218 151
37 55 40 28 42 62 58 59 91 43 54 50 102 38 145 234 300 357 121 116 184 249 319 434 480 399 325 280 296 301 294 361 372 365 343 331 298 276 183 100 141 190 184 211
49 28 37 90 57 138 138 72 99 69 41 -3 33 125 245 251 288 424 394 236 139 144 232 265 270 295 313 281 195 181 167 201 233 234 212 229 214 173 166 143 110 111 200 237
17 29 51 57 47 92 65 62 50 42 44 42 22 130 227 306 359 400 370 401 345 222 181 166 159 185 215 171 102 53 58 88 103 119 163 140 132 122 72 73 133 217 248 271
46 70 103 72 30 49 29 21 14 28 25 51 44 64 195 262 303 286 247 174 156 234 228 161 74 86 90 97 80 54 56 83 92 61 43 48 33 63 128 216 264 240 259 226
29 21 40 43 40 49 46 74 64 48 59 61 35 53 267 341 242 310 207 200 191 166 111 102 113 83 35 2 1 24 58 32 31 67 128 143 186 275 296 245 223 210 164 156
32 21 -4 31 18 24 42 70 64 74 80 68 43 106 117 277 204 184 297 266 205 189 149 142 105 58 33 40 5 16 67 89 116 115 226 335 356 369 344 296 243 202 192 179
34 32 33 39 32 0 50 11 37 44 67 45 50 124 218 232 277 221 124 57 99 91 121 113 52 68 67 71 128 162 159 147 229 246 273 307 324 290 301 332 162 218 220 179
0 -7 7 19 57 19 -1 25 18 55 24 58 77 73 127 53 41 18 35 15 33 99 125 109 213 243 159 110 165 220 200 246 260 289 331 340 322 262 254 234 238 260 195 157
64 -1 42 28 18 17 29 26 48 39 52 35 110 125 53 95 131 112 106 132 105 122 241 285 317 227 206 187 154 155 191 194 194 232 239 212 177 176 249 255 247 207 155 127
74 2 -5 -11 -3 16 30 69 55 70 112 106 65 124 52 244 239 231 254 241 287 341 250 247 221 197 175 118 52 61 83 137 207 188 120 106 117 210 197 183 226 218 135 116
35 -3 -1 -2 -5 16 51 62 98 114 115 147 155 67 127 187 220 259 274 250 208 148 117 181 193 139 51 35 27 75 128 144 114 89 87 124 199 265 173 215 264 291 144 89
19 -1 8 0 -1 -6 35 122 148 191 143 157 209 97 45 73 61 83 129 182 181 192 246 216 144 117 110 72 67 115 122 108 100 122 162 196 235 224 167 247 261 289 186 141
52 31 44 47 55 72 68 73 128 246 262 192 192 108 29 102 117 227 276 303 278 282 217 177 135 103 97 87 124 124 112 113 113 145 179 158 154 170 238 441 395 243 152 159
65 52 49 34 35 54 60 53 62 103 141 278 133 141 282 145 192 217 209 242 259 187 123 133 100 78 88 128 158 121 120 133 113 118 144 193 212 262 282 293 360 225 60 167
63 50 62 66 101 83 59 26 20 60 76 103 156 166 109 93 147 176 199 227 167 121 68 115 101 102 120 147 131 155 227 181 146 132 119 123 163 161 136 118 176 68 154 175
75 77 78 60 73 77 112 100 100 134 148 189 184 163 242 307 275 178 165 123 79 87 123 88 87 128 181 167 207 270 206 165 120 107 125 81 50 21 42 77 55 188 150 150
98 109 99 83 108 125 103 96 123 182 219 186 243 368 383 328 172 90 103 91 124 118 104 130 169 202 162 172 224 181 134 119 98 139 109 54 62 33 75 106 113 105 124 146
125 132 126 125 121 95 142 174 138 163 141 152 292 339 298 208 97 102 57 81 123 145 138 161 164 136 166 190 162 129 124 115 152 182 153 104 81 96 148 138 49 133 149 196
184 150 146 158 150 98 150 211 164 152 172 243 208 200 163 120 159 63 134 136 146 105 134 180 156 182 222 181 129 140 137 157 213 229 179 130 77 91 95 55 42 129 177 171
186 174 161 164 154 93 73 166 144 232 160 242 236 206 142 115 132 106 116 154 136 147 176 178 219 214 187 136 137 162 147 229 244 216 149 104 97 120 111 95 136 120 153 170
138 157 134 171 171 97 81 218 234 183 253 248 290 255 176 157 150 137 177 174 126 168 203 202 216 207 153 129 166 161 211 219 215 164 113 126 110 112 120 115 114 130 123 103
197 151 137 195 147 117 116 169 205 280 244 294 293 231 206 206 206 166 178 139 190 214 185 195 205 166 147 166 163 186 198 207 159 99 132 125 106 118 114 115 90 81 75 74
167 199 238 260 167 145 206 294 331 344 377 390 302 248 187 189 187 210 203 224 227 204 194 168 157 147 144 140 135 146 155 139 110 130 117 99 107 100 76 62 62 74 68 64
137 230 226 236 239 244 331 344 391 366 354 299 229 185 211 254 256 249 245 227 201 163 137 131 130 135 122 139 137 116 127 154 179 145 95 97 92 80 67 78 84 58 45 53
186 186 216 190 162 231 284 278 276 287 238 171 201 254 268 272 261 238 203 167 158 144 122 125 125 113 124 141 124 103 137 169 171 145 93 81 84 73 83 97 92 68 56 63

GFSCGP_con_3kmhel_012.txt.gz
Helicity
73 35 49 50 13 14 30 26 78 122 35 15 104 201 195 155 252 281 365 319 421 408 444 471 429 353 355 321 257 222 130 87 172 190 227 259 248 249 256 235 183 137 105 192
59 87 45 47 27 36 50 87 127 110 88 59 191 273 293 334 335 287 343 383 342 445 426 402 390 393 306 293 246 186 139 127 112 141 165 179 159 190 178 199 179 236 227 204
30 40 70 64 90 91 154 125 81 43 41 74 199 246 280 396 389 384 374 340 267 212 225 225 191 105 101 81 30 64 83 109 129 129 131 141 112 112 151 152 166 181 174 161
63 82 57 63 66 72 49 67 75 72 66 70 58 203 259 278 367 354 335 274 216 173 105 86 77 47 42 20 25 48 56 72 76 67 79 87 95 99 107 130 122 176 192 197
40 65 70 52 38 46 28 48 49 62 61 77 128 182 213 187 262 250 196 160 72 -33 -53 -2 -12 -18 1 4 -0 -13 8 30 2 26 52 52 62 119 162 227 264 274 265 307
48 16 47 45 76 89 75 69 84 89 95 119 155 158 205 272 267 243 135 138 38 10 28 1 4 45 43 5 7 48 50 50 34 55 103 111 170 227 264 265 302 342 337 235
79 73 68 58 53 73 65 57 81 93 110 116 68 133 138 175 221 209 228 106 53 38 37 101 89 61 68 94 94 48 105 139 161 214 248 258 268 274 309 316 290 263 199 223
39 55 54 66 28 6 20 22 27 38 43 53 99 119 102 159 185 109 123 68 83 70 37 108 167 220 236 212 206 200 170 141 139 194 233 236 222 196 180 167 222 169 82 155
38 40 49 41 73 7 18 19 20 38 25 61 77 145 74 83 119 167 89 70 142 209 383 327 270 235 256 213 185 145 125 108 102 125 154 165 139 103 110 108 146 132 166 114
26 37 51 52 59 68 15 -5 -2 -5 41 98 118 152 166 142 175 223 218 190 316 350 367 340 296 216 213 128 100 86 54 52 26 65 135 121 106 124 140 160 190 213 155 143
62 35 57 34 18 -6 -19 -10 9 28 48 95 182 166 117 264 285 275 280 325 345 347 309 290 254 221 159 119 82 21 29 59 41 95 96 77 109 140 166 206 213 191 224 166
74 39 2 7 -8 -8 18 22 30 58 53 102 139 155 107 139 205 186 151 159 295 254 250 285 207 150 76 59 76 89 138 129 95 77 79 87 119 138 186 203 173 179 191 259
87 13 11 -18 16 5 32 47 77 96 83 98 161 124 126 140 155 104 216 334 397 272 154 132 117 62 96 184 172 125 129 164 94 97 108 116 128 162 203 265 330 338 326 250
77 48 11 18 16 33 54 84 102 135 146 148 187 142 236 226 306 315 289 266 291 251 180 160 130 85 72 123 131 175 186 136 122 126 89 78 64 60 132 165 165 219 238 53
70 50 62 71 64 60 59 77 118 128 120 186 105 192 227 265 318 326 339 313 285 240 232 146 87 93 102 155 210 191 160 147 126 117 110 75 50 91 44 61 101 61 56 97
101 73 91 64 88 87 54 32 39 60 91 117 171 263 300 366 358 360 282 260 227 178 96 37 15 124 162 200 187 155 144 124 111 114 105 54 85 74 31 41 76 94 109 92
100 101 102 63 98 88 83 81 97 142 142 149 177 222 416 401 348 275 226 191 147 100 4 -11 92 145 178 175 154 146 113 94 100 114 73 111 83 68 30 53 76 107 136 69
106 134 123 91 128 106 98 88 94 156 189 216 277 307 310 276 238 206 145 119 61 -1 -8 107 173 180 158 152 155 127 91 74 123 136 145 117 92 61 55 90 133 118 15 90
127 134 137 115 104 103 128 163 148 162 137 173 235 262 293 258 242 161 84 64 56 60 113 147 149 158 161 140 109 107 111 136 169 167 138 111 96 57 56 110 110 106 112 154
192 191 161 141 124 87 103 137 167 182 140 139 180 207 229 255 273 165 111 150 159 150 150 189 175 153 168 146 134 144 150 165 179 144 118 91 88 79 96 119 107 132 144 166
183 183 156 196 157 123 82 208 182 220 88 140 172 193 209 235 172 102 163 167 165 197 230 211 218 192 154 132 141 181 184 180 146 136 112 111 118 111 112 143 148 157 168 123
131 158 154 212 206 125 122 241 240 150 176 184 222 232 247 213 154 173 204 216 297 282 248 234 204 173 146 163 178 168 166 140 144 128 113 120 122 111 128 146 141 133 113 89
173 164 133 153 115 143 103 163 193 230 241 244 299 260 265 218 207 231 288 353 284 237 225 182 163 149 153 155 157 155 134 124 128 137 127 123 118 114 117 119 113 114 85 54
129 209 185 219 144 131 133 233 262 284 291 307 302 294 248 224 260 338 328 268 247 218 184 151 149 148 143 134 143 127 117 111 135 159 150 126 109 93 101 100 110 91 54 40
98 190 168 213 213 274 286 254 299 373 373 330 298 260 213 276 329 273 245 243 201 172 146 135 147 145 135 132 125 110 119 100 122 158 146 118 95 87 84 111 110 69 31 44
173 180 220 206 137 193 189 233 284 310 239 249 303 371 340 295 239 214 217 181 155 144 141 154 141 138 141 132 104 109 151 148 148 128 123 117 92 75 71 85 84 54 34 41

GFSCGP_con_3kmhel_015.txt.gz
Helicity
97 66 53 67 46 35 44 55 22 16 56 86 65 147 183 232 238 298 314 328 319 345 309 364 319 319 360 413 380 228 186 123 116 111 133 168 170 152 171 233 205 139 188 131
104 70 65 36 42 36 54 41 81 120 158 158 185 295 224 237 230 284 382 409 410 399 384 308 242 248 248 227 197 138 151 101 74 121 96 82 53 94 157 122 162 168 181 184
50 87 45 38 64 65 70 76 77 95 126 154 270 277 294 261 290 311 306 266 265 229 207 184 154 84 66 86 95 108 68 51 41 18 27 55 78 101 128 146 154 194 216 215
75 106 64 70 42 42 106 109 130 132 142 106 129 190 225 225 264 248 220 186 146 98 27 13 -31 -13 20 15 38 54 53 58 53 37 46 42 36 53 82 129 164 211 253 284
49 62 62 54 48 65 56 92 100 106 137 185 199 208 207 253 248 189 152 87 38 -39 -58 -71 -77 -46 -37 10 65 110 142 107 56 67 61 56 78 132 194 237 281 292 272 255
80 51 67 56 69 70 82 88 112 111 123 170 199 193 164 224 197 189 121 87 -69 22 -69 -99 -71 -2 56 69 106 118 118 85 95 131 154 171 199 216 221 206 215 239 177 215
100 93 96 98 67 76 79 83 79 64 70 93 180 188 140 89 253 114 30 -8 12 -9 -37 18 40 167 152 158 171 171 154 141 136 153 158 165 171 163 175 217 242 232 217 188
64 81 89 96 47 29 57 37 29 11 24 52 109 116 107 147 116 1 4 37 28 103 150 192 272 232 215 200 196 180 148 137 142 151 136 137 107 120 152 184 180 184 192 183
42 55 84 76 56 21 27 49 30 60 53 60 83 149 155 168 188 143 144 199 207 235 303 361 343 284 220 177 153 145 129 136 133 84 62 90 119 121 127 111 135 153 147 168
32 58 58 72 44 61 26 1 7 10 25 42 72 132 159 237 238 203 246 294 290 389 456 449 386 234 187 173 158 143 136 152 116 83 86 112 110 101 102 130 146 169 163 208
53 41 59 52 47 26 28 4 15 17 25 47 60 71 128 234 234 228 263 318 408 427 366 390 311 182 158 124 100 125 130 145 101 107 100 104 117 117 113 146 165 212 276 278
59 44 80 49 62 44 23 17 27 44 29 57 88 66 96 230 285 310 277 261 274 307 462 417 281 218 148 112 57 71 181 173 148 121 121 113 85 76 85 102 141 191 212 218
77 72 81 83 75 54 31 39 59 62 66 63 107 66 154 218 248 264 357 385 415 430 414 351 220 136 74 20 111 185 158 145 125 115 94 72 66 73 91 102 125 167 194 219
83 65 32 3 19 47 46 67 79 86 80 87 123 136 160 207 256 337 364 347 328 297 278 223 127 132 107 79 190 150 133 114 85 94 108 99 52 77 87 81 75 123 155 132
85 48 75 84 90 73 65 76 92 102 122 145 85 141 141 231 331 382 378 353 311 263 236 215 207 135 106 165 120 124 117 99 107 113 99 59 61 63 83 91 74 83 104 105
119 65 103 86 108 97 60 66 69 77 104 127 103 111 120 232 368 369 316 281 263 239 232 198 168 158 122 108 111 125 116 105 114 85 88 82 96 115 111 80 59 63 99 125
93 94 110 81 106 103 61 70 154 113 133 161 190 143 231 270 294 305 268 250 237 215 174 156 136 112 86 104 117 130 106 101 94 100 110 129 127 117 97 71 67 79 94 96
102 139 148 107 131 127 84 110 94 132 135 144 163 188 244 258 227 242 246 240 209 167 135 96 97 113 100 130 137 123 124 115 115 141 141 137 144 135 112 86 90 94 96 104
122 148 170 162 154 152 127 138 201 200 110 151 176 204 206 266 316 257 207 188 155 109 83 125 142 136 161 154 149 150 137 134 137 125 154 154 143 143 122 99 90 105 121 169
193 206 200 203 184 122 103 135 184 205 154 140 213 205 253 320 293 179 185 176 120 156 208 190 193 196 187 174 164 165 143 138 146 153 152 142 155 148 125 103 95 141 150 166
153 180 160 190 170 163 83 190 255 258 97 141 113 172 265 260 215 177 237 159 191 250 267 239 219 197 175 158 168 151 147 163 154 144 152 154 149 139 120 112 126 147 181 170
118 133 146 229 225 168 177 330 203 111 167 101 132 170 214 214 224 252 205 241 291 300 261 227 216 193 172 162 160 177 182 161 144 141 154 163 163 151 143 134 147 155 151 149
182 163 142 149 123 127 73 105 123 182 192 177 209 221 221 256 251 257 295 294 298 260 231 211 196 171 148 154 172 192 166 147 129 133 144 189 179 138 130 133 140 146 141 111
144 165 182 211 128 115 104 78 162 173 206 245 276 320 340 304 294 337 251 246 256 216 209 182 164 149 150 165 181 181 151 134 123 119 140 176 169 119 113 121 130 138 123 90
117 161 131 160 122 142 138 147 190 252 276 328 365 361 303 324 343 300 270 251 202 189 174 155 146 153 150 168 169 151 128 126 132 124 136 164 155 129 113 107 109 108 87 89
192 179 221 186 144 164 132 139 195 283 338 382 387 394 370 394 362 272 237 178 171 160 154 156 153 149 156 165 151 135 122 116 127 127 112 147 164 124 108 97 91 71 64 60

GFSCGP_con_3kmhel_018.txt.gz
Helicity
90 86 79 66 32 26 29 21 34 40 58 83 27 28 74 149 170 121 158 190 192 197 187 223 245 261 276 323 390 400 289 167 80 76 126 91 63 66 76 94 143 142 229 233
123 103 79 65 67 59 59 54 69 89 151 125 89 102 126 185 151 124 151 183 185 212 222 196 217 192 141 110 117 126 114 32 21 -3 9 43 27 43 100 131 188 214 206 189
69 73 62 55 74 85 90 86 53 71 152 151 126 121 145 166 196 204 209 158 142 114 109 54 25 13 17 20 56 74 80 76 78 75 54 64 67 98 124 169 195 210 224 226
67 67 40 62 39 35 74 60 82 85 111 102 114 93 126 156 218 194 157 152 132 96 76 32 38 30 56 75 71 84 87 89 70 49 69 88 98 125 156 211 213 210 190 157
70 72 69 59 42 39 58 78 108 100 121 129 171 157 167 230 219 166 133 107 77 67 25 -10 61 60 29 41 75 71 89 109 98 108 122 144 153 152 169 189 180 173 194 205
86 74 69 54 65 63 58 95 121 95 102 114 143 182 147 218 192 190 141 87 73 67 -10 8 97 22 18 97 127 105 136 146 144 156 173 170 178 178 189 198 206 200 211 188
106 81 74 86 79 79 90 103 92 83 113 3 90 188 121 82 153 155 76 16 39 21 -1 118 119 61 118 165 168 170 165 169 157 171 180 171 170 162 153 167 196 195 206 194
47 61 83 97 77 56 97 91 91 7 21 28 62 64 121 58 103 104 34 85 78 54 124 163 147 147 212 226 196 171 169 149 109 120 142 152 131 120 113 125 155 155 177 193
59 68 86 90 71 55 45 54 57 44 -18 12 52 66 83 139 213 211 211 204 147 117 164 238 234 235 311 309 211 158 114 64 66 96 125 95 88 103 106 111 124 154 161 179
37 53 75 77 57 82 40 38 38 58 12 24 5 46 85 140 189 231 227 183 166 200 257 273 250 342 321 261 173 177 149 44 60 87 125 127 116 118 126 124 128 142 158 189
55 52 61 63 71 58 61 21 39 28 35 40 31 20 50 171 187 237 201 217 279 306 308 314 337 393 342 303 212 338 107 136 103 160 126 130 107 102 115 121 110 104 119 160
80 41 65 55 54 40 33 22 38 49 34 59 64 32 27 56 165 263 237 253 279 284 357 364 372 358 289 241 140 153 155 82 143 120 123 97 96 109 106 111 91 95 117 145
44 56 87 89 68 68 37 59 73 82 74 59 87 26 52 102 180 204 258 319 361 403 387 340 316 256 191 181 171 104 62 155 129 120 111 108 76 66 80 98 105 101 114 125
78 70 47 -9 26 55 59 71 93 103 88 81 98 90 92 96 170 229 283 352 394 351 323 255 212 189 179 161 68 79 151 135 113 104 100 84 68 71 93 97 99 92 99 113
85 60 70 72 79 68 61 57 87 104 122 124 81 117 85 126 177 243 325 370 374 320 265 222 218 195 221 92 102 154 130 107 108 107 99 69 83 108 110 106 113 114 111 105
102 58 79 67 99 107 64 54 81 108 140 114 117 77 125 136 265 300 338 377 332 270 233 220 215 203 63 95 142 137 116 103 123 107 85 120 146 153 147 138 138 131 114 107
100 93 95 59 110 111 47 85 166 174 190 180 166 144 167 142 170 254 340 328 247 237 229 220 180 98 132 147 140 124 121 126 122 118 128 148 164 170 152 149 138 127 110 115
95 135 141 101 147 131 104 119 115 136 122 171 181 140 143 142 208 231 234 227 213 208 201 172 142 145 167 150 158 144 133 129 140 144 139 153 175 163 157 150 131 127 130 142
111 128 162 157 147 153 131 132 137 179 114 193 193 175 209 207 251 175 178 195 185 175 152 162 168 176 186 185 160 147 146 157 153 139 148 157 165 165 159 151 131 127 154 154
153 171 165 173 181 159 86 111 131 181 186 164 210 191 189 238 245 137 228 218 180 192 218 209 205 229 213 181 170 168 152 152 141 151 154 156 162 166 168 156 138 139 153 159
131 149 157 222 207 183 101 154 214 242 97 87 106 130 188 191 185 156 171 240 226 299 262 239 241 238 198 184 172 149 147 143 157 173 166 152 157 190 184 164 146 131 176 194
122 128 123 188 218 170 150 257 181 92 94 66 64 103 141 179 243 234 240 289 323 370 285 236 241 201 173 163 154 141 154 161 177 175 156 147 159 205 181 156 137 150 169 168
172 146 151 153 145 124 16 61 71 132 130 130 144 167 176 264 276 275 290 356 372 308 266 245 186 153 151 142 143 157 155 171 170 174 153 136 145 182 175 159 132 148 154 160
130 151 184 188 107 99 88 65 90 134 149 171 175 228 301 332 333 370 419 460 300 230 226 159 145 138 130 131 141 161 160 164 171 173 142 129 150 152 151 157 134 137 151 146
123 134 142 150 92 114 94 138 111 136 197 220 211 245 283 368 409 449 463 319 227 256 155 121 126 119 112 114 138 157 163 169 157 152 137 127 142 153 152 151 134 123 122 124
189 186 201 160 135 169 119 103 98 127 133 165 257 351 418 404 466 441 363 205 266 148 107 125 123 114 106 130 138 143 157 172 155 141 139 126 132 157 155 151 126 103 101 78

GFSCGP_con_3kmhel_024.txt.gz
Helicity
22 54 46 31 26 46 28 15 13 28 56 49 39 34 40 42 56 46 31 48 58 60 68 76 79 108 150 157 149 143 172 111 76 95 93 42 40 55 52 65 85 99 114 115
2 79 54 26 14 14 17 26 42 38 19 43 16 24 34 47 61 60 36 43 59 82 88 109 133 143 151 145 152 110 70 32 43 81 66 24 23 36 77 102 118 139 166 178
57 33 50 9 13 18 43 29 22 24 56 47 12 3 20 53 78 86 82 74 76 84 112 112 97 62 50 37 38 38 40 87 98 94 48 49 64 72 83 111 150 188 189 198
33 49 16 47 54 41 27 43 3 17 -19 -20 20 13 74 70 86 98 107 106 106 94 105 119 101 68 27 39 47 86 137 135 85 67 83 83 101 124 142 158 195 193 161 160
25 65 44 43 52 50 39 8 16 11 13 19 46 1 115 72 77 128 168 164 147 139 161 159 122 87 74 70 87 135 141 129 141 137 120 133 149 148 156 156 149 144 134 124
59 80 80 62 62 35 35 19 29 24 29 -4 66 42 47 52 61 159 172 157 160 171 177 153 105 86 102 105 95 122 173 193 186 175 167 177 179 170 168 154 128 131 126 114
46 63 57 46 32 29 10 -58 -17 -9 -1 0 80 29 8 96 99 120 153 137 136 147 134 102 79 73 99 108 107 162 199 219 203 201 210 187 215 113 161 149 133 97 102 108
14 18 28 45 28 -18 -41 -20 -9 5 20 15 47 -5 41 48 55 88 95 108 126 122 103 95 91 98 111 152 152 191 204 238 253 243 192 158 70 140 119 110 91 96 111 121
14 20 50 67 50 45 45 10 91 57 51 0 -5 11 3 49 49 98 159 193 175 136 123 108 114 122 140 177 193 209 222 213 222 229 133 110 111 120 120 95 83 102 98 100
37 -4 38 47 57 98 66 80 30 26 -3 12 16 29 9 34 68 91 152 166 142 136 141 139 125 160 176 220 232 243 249 224 192 133 114 111 120 112 89 77 91 96 104 109
50 44 35 56 35 36 64 43 51 49 48 31 34 35 38 28 35 68 93 125 130 134 131 137 156 196 222 250 294 289 266 296 247 111 74 105 123 97 86 91 101 117 107 93
94 80 53 42 61 67 63 33 29 33 25 47 45 13 42 27 23 45 64 97 101 116 136 152 196 233 269 300 325 313 357 291 146 0 105 115 116 100 90 107 104 103 92 93
76 71 60 37 34 37 22 38 53 66 52 28 47 42 65 40 16 47 60 108 116 147 165 185 233 260 307 310 322 345 319 178 -10 118 90 123 102 91 97 96 94 106 112 111
74 68 39 19 48 39 47 46 49 30 60 62 52 31 77 66 63 67 76 109 138 178 209 214 251 276 332 296 297 316 217 68 134 97 131 114 99 100 93 99 119 136 132 121
72 33 29 29 40 39 49 14 28 38 29 79 38 36 40 81 88 86 102 110 145 194 233 247 258 291 315 280 312 257 148 153 123 140 121 107 111 100 109 126 128 136 129 125
61 27 35 17 47 65 53 -8 19 32 31 47 29 18 27 72 97 94 108 132 129 158 199 230 249 277 270 278 253 234 99 133 165 137 109 119 119 114 118 125 132 130 117 110
64 47 42 32 72 71 35 14 57 84 100 92 78 58 97 100 104 94 92 103 101 120 156 224 247 253 249 279 263 142 150 187 163 123 122 121 125 123 116 124 126 124 128 134
65 88 92 62 53 66 101 88 82 49 30 48 44 48 93 117 139 119 95 88 74 78 152 197 232 247 267 273 184 192 214 209 140 125 121 129 128 122 121 123 117 127 128 135
97 97 91 78 73 82 48 94 90 80 82 97 60 59 99 104 120 78 88 57 48 92 142 177 209 242 278 293 218 209 227 171 136 131 130 119 125 121 116 117 126 132 139 129
119 117 111 114 68 50 116 114 94 70 68 133 113 92 79 76 116 124 86 52 91 134 164 233 316 335 354 267 270 247 213 142 135 136 117 119 112 111 120 123 138 137 130 125
84 104 99 122 109 96 92 92 93 110 176 98 54 69 68 77 86 141 102 96 118 157 236 298 329 343 398 415 402 188 156 132 119 102 102 95 108 119 120 126 131 131 114 136
69 94 102 133 141 104 90 66 95 140 98 100 98 92 93 91 163 144 142 172 184 220 313 374 455 500 496 452 203 187 179 130 78 76 84 93 111 126 125 117 125 136 117 132
92 98 127 95 127 109 38 67 102 113 101 88 97 113 117 116 128 151 181 251 339 428 535 622 436 639 448 247 131 163 155 82 71 71 71 90 104 99 116 115 120 118 121 131
74 86 117 106 69 39 40 56 67 63 68 73 70 81 97 97 120 157 213 296 382 440 536 592 679 491 417 303 164 95 80 62 58 56 69 89 98 122 108 119 110 107 123 123
117 74 79 75 46 68 64 85 85 89 83 80 78 99 115 118 112 144 217 289 427 528 603 465 486 235 239 187 113 61 51 56 56 66 84 98 105 94 97 111 110 100 103 111
87 114 120 112 153 104 86 99 77 78 103 119 119 128 148 142 199 242 306 391 536 617 529 551 513 249 87 66 58 44 52 64 65 80 97 104 97 101 113 105 94 119 96 123

GFSCGP_con_3kmhel_030.txt.gz
Helicity
19 45 83 10 79 17 31 3 20 59 16 14 9 63 69 35 -0 71 74 94 99 65 125 109 67 117 177 376 309 208 215 142 169 171 132 66 89 74 62 42 74 74 62 76
44 -31 48 40 28 37 30 48 17 35 28 -20 6 28 77 43 40 49 48 96 151 120 216 137 116 167 263 407 426 304 216 132 86 72 86 98 96 75 92 91 72 98 94 113
1 101 34 88 37 77 74 21 32 16 6 -9 5 4 85 53 16 -8 51 47 99 131 231 128 154 196 309 314 275 225 123 77 35 42 88 108 148 168 131 98 79 123 106 136
113 18 68 47 26 28 24 127 5 4 40 -0 27 -12 196 157 -4 46 63 75 118 89 223 135 139 316 361 248 161 110 61 69 45 38 86 136 126 163 172 191 276 184 112 87
55 27 66 66 31 54 -4 59 11 -8 9 48 61 -46 9 33 67 -3 8 46 104 139 274 220 262 260 218 143 83 37 91 74 150 83 147 117 273 326 346 380 348 190 134 165
-25 -10 111 2 69 29 -5 -12 6 10 20 110 88 168 76 86 91 4 40 46 54 226 232 175 310 203 187 112 61 67 72 252 175 187 251 248 317 357 368 337 217 119 269 270
-18 45 -7 -20 4 12 -13 -20 11 65 -27 -0 -1 56 16 31 40 210 -20 155 171 136 151 197 275 229 185 120 136 184 245 253 238 270 320 362 390 375 329 221 217 269 229 251
66 5 32 19 -23 58 -14 5 24 12 7 37 31 -10 35 131 121 90 166 243 150 171 193 216 237 249 235 208 204 187 255 289 296 288 291 321 346 307 212 301 282 189 227 214
41 46 166 61 35 39 48 34 28 21 19 -8 -0 23 87 101 83 96 199 164 155 174 197 210 178 245 254 217 174 177 272 299 303 313 379 345 364 377 340 278 173 142 205 150
32 -5 15 8 28 27 35 46 17 19 15 9 19 4 102 96 63 41 144 143 131 170 195 175 167 238 245 216 212 191 246 341 372 414 410 379 345 311 300 267 76 185 163 174
33 147 18 51 6 15 11 -1 30 31 25 38 34 43 55 69 46 48 49 187 190 200 207 239 201 242 254 264 269 226 248 388 510 510 421 391 324 327 259 147 144 141 154 174
35 63 95 -4 27 67 90 62 21 61 39 66 49 31 28 37 49 42 30 76 200 217 214 252 244 262 317 314 292 263 271 423 549 516 424 372 300 236 147 263 149 169 179 166
69 60 16 30 16 15 28 22 38 54 103 44 54 44 37 39 31 47 55 71 109 198 189 206 284 318 376 368 329 362 317 459 529 541 368 305 175 225 184 212 193 171 158 163
134 61 21 3 -3 63 52 3 16 31 96 51 -10 28 44 94 80 65 95 72 66 142 154 152 207 322 425 431 418 367 443 494 588 486 306 224 263 95 284 276 194 156 162 194
115 52 43 44 48 46 117 70 15 -8 20 -3 28 16 7 47 73 79 104 91 109 63 92 139 163 250 347 444 460 379 537 663 626 390 257 232 139 428 218 216 157 148 164 168
76 79 92 85 71 86 20 49 34 25 16 -10 -3 -3 19 52 98 123 172 189 146 140 73 107 176 176 290 341 396 463 570 637 604 299 238 404 247 201 328 205 158 126 78 103
60 65 69 57 100 95 15 3 -5 -2 6 31 44 48 61 85 84 157 183 121 116 128 143 121 130 156 152 251 330 429 552 636 584 299 354 159 433 247 236 134 91 92 114 138
59 40 98 65 67 22 -1 78 81 87 64 62 78 144 179 199 196 138 82 102 109 137 124 99 97 113 169 245 349 428 479 648 499 307 373 184 279 403 164 144 122 90 101 114
77 91 94 73 43 35 41 64 77 70 98 211 264 255 218 176 103 77 114 224 218 167 134 104 129 162 197 261 334 444 597 544 409 539 412 402 214 166 137 117 91 95 93 104
97 104 84 68 59 23 67 98 93 74 81 216 220 170 133 101 108 148 227 216 147 127 105 96 100 127 168 383 490 573 603 591 742 775 738 443 151 137 68 83 96 95 92 98
86 112 86 91 62 55 118 127 73 87 186 172 140 104 93 113 116 156 141 99 106 140 145 188 258 341 451 519 704 810 791 869 826 625 485 363 144 83 81 85 91 93 88 116
38 49 56 103 77 38 123 114 121 193 141 144 122 132 118 115 96 80 82 98 147 124 271 401 589 670 765 955 996 972 1040 922 939 573 225 104 65 48 54 76 71 107 100 105
49 51 61 77 67 107 90 182 126 157 134 114 126 137 138 124 111 105 97 115 246 309 372 560 658 740 793 791 793 833 880 458 304 159 52 53 23 25 38 73 105 117 137 146
74 130 103 138 71 90 113 136 127 232 244 147 115 122 161 160 154 107 157 290 428 602 654 610 594 503 431 433 477 429 256 107 62 39 7 8 38 58 75 85 106 113 179 186
122 161 76 101 87 145 215 381 401 271 233 236 188 237 254 189 173 291 413 509 601 598 619 488 377 333 246 159 131 92 20 19 1 8 31 55 79 72 79 88 96 150 158 179
108 129 151 134 273 194 283 309 278 311 268 241 224 282 279 331 373 396 428 388 319 316 281 232 114 54 85 58 27 25 52 42 51 62 79 77 84 96 96 93 128 125 110 102

GFSCGP_con_3kmhel_033.txt.gz
Helicity
14 50 21 37 38 72 78 20 28 31 -3 146 81 24 54 64 87 121 91 185 134 137 115 122 136 343 382 369 308 304 251 245 256 267 234 149 90 44 62 55 81 77 96 142
6 74 -13 55 123 35 70 51 36 50 2 -18 40 82 48 19 111 136 178 239 196 153 200 144 179 380 447 432 436 331 242 239 214 209 150 108 57 73 122 129 147 126 126 132
-23 57 106 18 106 107 10 -11 76 34 5 -53 -1 60 91 7 39 108 157 225 278 290 328 285 321 400 459 478 437 339 247 189 152 98 103 159 133 188 158 173 185 181 162 129
-47 14 52 14 117 46 -20 41 39 53 1 4 26 45 127 97 67 3 119 178 262 301 397 337 381 404 446 342 299 294 171 145 99 87 123 231 209 231 179 217 199 180 146 124
-5 54 3 -24 53 8 10 12 1 -11 15 -2 84 80 41 65 -2 -68 -40 61 214 326 395 352 407 459 408 311 239 135 93 103 69 69 140 243 225 263 287 318 240 124 129 232
65 20 11 3 25 3 106 8 22 16 15 31 5 111 78 66 117 58 -84 -41 118 198 347 337 381 373 285 231 188 166 131 97 91 172 216 352 414 466 481 432 341 354 403 297
17 30 7 0 -40 -16 3 21 49 100 53 -14 37 56 35 72 41 100 39 98 48 226 328 323 380 358 315 227 221 157 155 185 276 385 416 456 472 490 460 401 439 376 306 299
48 47 73 1 -13 3 23 -11 33 17 0 2 68 18 -5 62 5 58 100 86 113 186 211 280 329 276 206 195 187 148 232 343 399 395 429 500 516 487 428 448 378 346 338 314
28 41 80 54 131 49 25 84 23 64 48 34 13 29 112 154 44 83 116 184 195 248 271 270 287 262 241 207 201 249 357 413 412 402 396 421 439 459 448 410 394 337 318 365
71 81 34 51 101 24 30 22 65 67 35 26 31 15 32 101 39 43 99 170 223 265 310 364 374 340 297 278 245 263 347 405 397 412 421 432 395 373 368 380 304 307 286 233
136 86 20 21 -13 21 27 52 54 70 75 16 53 62 17 13 42 72 163 252 278 308 345 350 338 356 365 347 299 240 311 419 465 484 471 449 345 333 335 289 354 251 326 160
61 87 91 -81 22 42 51 25 38 71 46 73 28 24 43 53 41 33 43 155 265 330 358 374 388 421 422 418 379 307 322 454 546 575 570 484 366 316 287 251 335 221 198 174
131 117 89 55 71 54 20 47 39 73 118 66 80 22 5 45 69 50 29 59 169 256 333 375 430 510 537 490 490 483 476 513 602 641 631 535 368 290 321 370 236 212 244 149
117 112 86 62 47 32 21 36 15 85 123 70 43 28 39 10 86 37 80 80 99 177 257 332 364 481 579 588 583 523 534 602 634 648 641 462 347 326 374 232 239 476 144 156
126 109 116 63 19 29 23 67 71 30 52 120 37 26 49 22 56 136 102 109 104 119 120 143 289 412 445 503 498 507 585 631 716 725 617 477 425 395 320 401 494 260 141 119
142 129 128 93 88 86 119 89 60 87 49 26 28 61 26 10 67 115 139 171 184 189 206 200 145 222 345 427 466 516 597 647 714 705 572 508 633 542 450 484 267 168 103 82
115 128 145 87 102 76 44 32 39 39 32 17 19 63 138 161 143 142 163 169 211 202 203 150 99 106 134 227 307 469 547 678 680 581 525 531 536 449 508 582 388 193 118 92
111 110 112 77 104 90 24 54 54 74 125 146 211 173 149 188 246 228 170 161 195 197 222 226 159 103 107 186 382 475 519 603 575 496 528 605 607 647 651 633 349 223 141 130
150 137 120 103 93 61 46 96 61 69 140 147 186 237 251 216 133 160 144 193 222 172 141 129 122 124 204 284 389 515 560 558 636 735 776 805 779 893 837 616 206 98 114 89
232 168 131 111 86 40 40 72 102 103 128 143 151 155 141 122 112 56 116 154 171 207 242 292 386 439 494 524 678 795 834 889 863 852 979 1111 987 796 374 155 116 109 69 49
155 195 135 130 87 63 61 88 83 115 91 187 162 122 117 88 63 83 123 146 232 212 286 413 545 560 588 650 760 869 921 1001 945 978 767 609 264 145 116 76 58 74 76 94
78 103 94 130 95 43 89 127 105 109 208 163 160 161 175 161 161 159 150 182 299 374 399 436 503 538 557 600 730 732 759 672 624 489 272 82 132 90 49 37 52 80 97 111
79 68 59 65 50 32 110 126 142 186 220 220 249 240 189 207 196 222 307 350 363 405 412 397 401 389 322 275 260 324 239 193 160 164 169 118 81 75 55 65 80 86 91 123
145 99 104 109 83 99 230 438 431 404 338 318 275 241 225 244 257 298 360 416 470 433 369 271 233 204 169 136 121 138 162 160 155 145 131 101 73 75 82 87 87 110 119 129
117 160 123 113 178 331 410 422 415 472 462 383 340 310 289 305 320 313 332 339 308 255 213 207 204 180 203 209 184 135 103 146 151 107 84 77 87 90 89 98 106 109 122 144
159 166 182 157 203 285 319 368 369 402 373 329 277 315 322 286 284 288 302 288 301 293 244 230 218 188 154 121 110 115 100 85 77 86 100 105 105 105 112 121 129 108 110 104

GFSCGP_con_3kmhel_036.txt.gz
Helicity
-1 -2 66 96 23 54 47 75 15 32 -2 77 97 90 75 101 67 11 50 137 181 182 152 118 182 176 146 99 139 200 232 227 294 273 238 195 143 125 96 65 116 155 141 154
4 -20 21 68 40 46 83 86 56 53 25 64 35 87 54 140 129 122 142 204 242 229 237 215 262 265 265 242 156 204 217 245 261 249 231 188 130 98 75 72 105 148 164 171
3 -16 2 19 48 42 30 76 86 58 58 49 83 61 33 95 70 74 151 248 264 326 327 329 338 371 350 365 286 247 213 249 251 248 237 239 229 220 191 168 178 176 171 147
26 -5 8 62 12 2 60 131 78 63 24 51 78 26 65 -13 -9 86 163 226 270 280 316 387 393 428 467 412 318 263 261 252 221 240 255 299 282 317 244 202 199 175 143 162
-41 -13 53 45 -10 -33 119 43 19 42 19 31 -5 58 32 25 57 122 100 161 211 324 387 446 483 448 421 459 407 331 248 207 155 196 212 289 275 262 243 243 250 207 258 283
11 -17 -1 45 -17 -10 16 8 22 32 24 51 28 43 37 -21 154 113 128 162 167 248 347 419 452 477 347 299 372 281 266 138 125 144 186 258 277 275 296 297 285 323 371 367
30 44 19 32 -19 3 29 58 40 52 56 6 59 38 -21 -7 38 88 6 189 169 232 390 479 448 352 342 315 341 222 177 143 124 153 191 249 316 345 347 383 416 459 439 395
43 52 40 40 -7 19 26 21 31 24 22 10 41 35 25 40 64 62 27 81 99 196 304 355 365 347 310 300 247 179 98 161 172 209 252 348 425 459 485 493 482 454 386 412
56 49 51 34 50 31 67 28 38 95 71 56 23 58 49 19 47 38 24 76 113 195 216 250 255 286 321 273 168 184 232 242 292 325 413 468 507 515 490 468 414 372 336 313
47 66 35 48 55 46 55 21 116 85 26 24 44 46 29 38 -11 -2 -12 14 119 143 145 191 206 208 200 205 185 224 278 329 349 409 441 458 468 459 416 396 376 299 297 340
143 89 63 78 136 -21 83 62 68 69 78 39 35 57 1 -3 -15 19 7 42 114 166 174 180 185 206 234 236 266 288 325 394 422 453 487 496 451 397 339 321 347 329 369 461
115 116 89 47 -39 37 5 -0 78 87 68 85 67 41 29 2 31 45 16 18 100 227 259 272 288 307 282 292 340 361 338 399 462 517 549 549 497 381 355 334 316 452 419 286
133 137 128 131 63 -5 10 19 89 116 126 78 90 28 38 42 31 72 64 74 116 157 260 358 409 416 407 398 368 401 439 487 522 566 554 562 443 419 389 366 492 456 286 372
184 157 131 121 65 74 77 60 56 88 127 112 85 52 35 33 2 46 45 58 104 186 265 318 401 427 465 474 450 449 542 512 536 561 621 543 567 481 521 556 527 451 413 531
178 133 132 99 82 80 113 115 71 66 67 129 48 92 32 41 54 54 37 112 154 129 155 175 206 296 392 464 452 525 563 556 548 560 599 601 465 487 652 651 356 743 432 697
150 108 136 127 148 112 81 113 88 84 89 63 59 68 39 104 184 229 214 220 249 233 226 201 154 205 294 386 406 512 548 607 654 713 710 585 545 612 500 679 463 534 624 531
157 184 200 148 179 153 123 101 109 68 41 61 75 83 173 297 276 252 247 268 262 236 216 211 170 90 119 220 338 411 524 671 704 688 645 593 620 678 680 567 685 751 666 311
151 189 165 128 168 156 81 103 100 184 176 147 212 228 206 199 208 237 187 198 229 199 198 200 180 136 92 138 319 509 594 630 639 617 585 592 650 792 820 847 704 490 178 142
162 171 170 147 130 94 78 109 116 126 146 160 192 194 133 101 191 200 113 136 126 149 191 196 192 186 183 216 301 426 522 661 742 762 816 839 947 1096 879 570 119 94 104 96
268 208 161 156 121 63 29 97 111 146 150 140 179 173 164 120 140 79 129 120 197 226 213 219 224 269 325 320 413 573 631 751 844 908 978 952 1043 635 107 117 86 105 85 93
248 223 182 209 140 79 43 49 127 151 90 160 150 115 101 110 63 83 151 229 213 215 228 248 308 344 361 391 555 714 766 790 694 526 444 561 242 151 112 124 128 123 121 103
167 187 178 220 165 56 77 156 130 99 166 182 164 118 133 96 157 203 229 252 271 287 291 302 353 355 313 288 348 321 286 203 227 239 207 163 151 142 148 135 131 106 114 123
133 105 94 78 46 89 122 100 144 159 212 179 185 159 169 185 223 239 271 284 277 278 269 256 271 301 320 307 269 306 301 260 214 185 169 153 132 132 125 118 121 135 124 126
113 109 109 118 143 202 281 337 302 263 276 259 236 210 214 245 236 285 291 283 300 314 335 282 294 300 287 232 199 157 138 152 161 142 133 138 135 116 111 117 126 139 136 143
139 180 153 194 217 345 349 363 360 411 386 394 360 305 277 284 302 317 348 369 366 336 301 273 239 204 176 161 164 140 113 118 138 125 116 107 102 108 117 126 138 153 155 182
187 216 223 181 153 230 255 316 331 389 359 324 345 380 365 348 357 362 371 326 290 284 261 219 204 209 206 195 180 160 120 115 119 116 114 121 132 138 147 158 152 137 145 141

GFSCGP_con_3kmhel_039.txt.gz
Helicity
-12 20 16 52 47 51 38 74 65 35 33 7 34 46 128 88 91 59 45 49 51 71 59 45 22 12 8 21 67 104 143 148 204 224 224 195 176 177 152 134 160 163 188 223
29 1 7 17 88 47 81 32 51 52 9 -48 15 31 65 134 107 143 90 68 81 72 96 83 69 66 65 84 100 123 159 245 248 250 246 223 209 172 169 188 187 147 186 177
41 18 31 6 26 53 34 10 39 42 59 25 15 25 74 84 100 -12 100 91 61 206 205 161 164 140 117 128 160 189 215 261 277 255 279 261 278 241 249 216 185 150 171 165
4 6 7 16 13 20 20 27 39 56 50 26 45 29 17 91 141 130 94 148 149 146 233 241 220 176 183 198 169 203 228 256 246 260 274 314 290 305 234 218 204 171 147 173
-11 24 25 18 -14 24 45 58 87 36 34 42 49 49 11 35 51 135 180 211 212 197 312 320 298 265 212 211 231 244 296 261 190 235 259 309 264 254 237 236 226 217 225 229
9 -5 3 4 24 -8 12 93 62 50 52 43 10 36 4 20 67 137 109 273 301 272 276 335 306 290 282 266 281 311 326 277 242 271 245 294 259 261 262 257 264 265 261 272
16 8 20 13 18 18 39 77 78 65 104 14 40 42 -16 -5 5 15 69 197 316 349 442 464 440 398 383 308 301 274 298 292 215 251 270 210 218 226 261 269 290 318 333 313
-9 -16 16 28 15 44 41 31 70 48 30 11 74 5 31 13 19 -25 60 92 157 212 339 455 460 408 418 239 220 271 256 213 216 259 176 178 210 242 257 321 382 388 408 439
19 -2 31 25 58 26 43 45 41 92 80 73 42 45 21 53 23 23 21 48 71 120 159 278 420 413 360 310 239 253 185 123 186 157 168 213 266 314 390 382 441 445 479 506
41 -3 49 82 74 48 43 47 88 112 91 61 43 51 15 50 67 24 -7 3 6 59 91 141 220 263 281 342 259 159 162 169 147 196 250 306 361 418 416 453 487 438 503 567
118 85 39 69 62 94 98 110 130 89 82 44 58 26 -7 28 77 64 40 7 34 56 60 77 123 165 208 228 249 233 218 199 209 268 346 380 441 525 543 501 469 502 510 410
89 106 65 40 56 59 113 67 80 115 79 88 73 54 43 26 18 28 22 25 18 29 56 89 114 152 170 177 195 227 208 214 258 367 431 484 537 511 468 422 419 472 510 406
103 120 134 101 72 63 43 62 92 121 120 63 102 50 48 43 64 37 38 15 55 56 51 90 144 172 198 234 279 290 277 293 411 447 491 493 434 417 418 479 460 462 505 497
188 145 116 113 78 89 88 45 85 131 117 102 105 69 72 34 65 42 38 20 7 77 118 146 162 171 205 262 341 314 345 464 429 470 472 446 456 522 554 506 510 554 517 288
132 114 114 90 91 109 94 96 123 144 119 126 17 105 62 64 51 66 46 124 108 107 136 147 163 147 165 211 313 354 412 427 450 472 468 547 555 548 559 596 667 548 699 637
206 159 153 153 165 154 100 90 107 137 140 107 93 71 59 81 137 192 183 234 264 246 214 165 89 118 181 252 310 342 347 388 474 489 539 614 589 621 622 663 691 695 670 605
207 205 179 115 168 163 134 110 127 142 151 130 160 92 110 196 234 269 261 248 223 213 200 178 154 130 84 85 157 273 362 432 510 573 591 628 661 645 699 697 731 640 578 230
212 225 214 133 190 103 115 163 124 142 177 168 175 193 180 223 283 309 206 167 160 133 134 133 126 116 111 110 188 271 324 386 464 494 532 597 699 768 773 739 653 467 186 113
219 237 207 191 178 144 116 102 142 147 138 171 230 248 221 234 270 269 218 190 144 132 141 136 135 127 128 159 209 336 426 509 593 631 706 762 782 775 655 464 428 197 121 137
296 244 204 215 194 135 67 72 139 120 139 109 139 135 159 194 164 99 122 135 168 177 181 188 198 221 234 213 249 376 408 510 555 563 650 739 863 747 267 212 121 133 160 150
303 255 214 259 203 185 110 78 140 173 57 186 159 143 145 123 95 123 163 182 198 204 217 227 255 248 212 206 275 328 343 375 338 347 317 204 153 159 149 133 150 170 158 157
246 243 228 288 255 138 141 196 168 94 179 159 154 168 191 169 162 153 177 208 226 241 251 255 291 292 276 277 287 292 315 258 242 212 169 149 154 144 131 125 127 141 142 139
201 193 198 180 128 147 99 79 138 111 118 115 156 146 169 172 157 193 201 235 276 310 316 295 310 331 339 344 311 314 248 217 211 200 190 166 135 114 115 134 136 139 138 159
217 205 221 211 153 128 119 162 167 167 180 187 195 221 208 251 245 256 277 322 355 352 358 325 345 346 354 292 266 238 214 202 199 167 132 117 120 119 123 129 134 156 168 183
242 275 250 228 175 197 188 203 260 314 320 362 357 301 285 321 313 332 347 360 364 373 369 343 327 312 283 251 247 227 168 138 128 118 119 122 126 129 136 149 167 183 199 219
263 259 263 164 191 214 211 264 301 376 361 351 379 391 353 343 349 362 383 366 362 373 344 330 310 265 246 240 225 196 164 141 133 128 128 128 125 125 124 129 122 125 154 174

GFSCGP_con_3kmhel_042.txt.gz
Helicity
4 12 -10 -16 19 83 42 56 60 45 37 0 70 92 134 72 61 64 28 11 -5 14 2 4 -1 26 28 23 38 55 67 57 82 69 86 112 121 99 110 123 139 155 182 220
13 18 2 3 60 40 39 48 45 49 19 -16 -5 28 90 119 119 62 68 30 12 -23 -20 25 28 31 47 53 64 92 103 116 122 142 148 156 185 124 130 164 168 175 204 202
51 9 19 2 47 45 51 59 24 21 14 -4 -6 40 54 57 57 35 20 23 -8 15 50 31 63 81 80 87 97 104 132 160 165 207 266 245 272 204 198 197 197 174 186 188
21 -7 0 15 22 30 20 4 -17 4 2 16 17 46 7 68 112 112 113 92 49 22 59 86 97 76 99 65 81 97 153 169 183 245 276 315 294 275 226 219 206 216 202 227
-5 1 23 -18 -5 30 17 18 7 37 22 23 39 33 0 62 58 105 142 124 142 104 115 118 138 174 171 158 141 136 185 183 190 243 258 295 293 289 240 253 248 255 256 256
-8 0 10 6 46 13 33 45 75 80 78 40 32 30 -23 27 45 68 137 128 139 186 176 182 174 175 168 195 212 208 227 196 207 213 265 275 276 289 241 261 303 285 278 265
10 -16 16 30 19 33 62 110 84 90 94 43 58 47 -3 -2 -4 -15 70 187 186 235 277 250 288 273 258 267 248 214 243 208 221 253 280 265 290 228 211 245 304 329 314 304
25 -39 16 40 13 -4 53 62 65 51 77 63 57 11 6 29 14 10 -28 -31 53 204 252 266 334 338 296 304 276 231 226 192 262 292 259 298 271 240 239 288 342 317 319 358
58 2 44 34 47 33 44 81 50 108 93 73 45 40 2 32 12 16 7 30 33 91 179 207 322 303 267 317 269 233 231 214 247 263 262 260 266 259 279 335 333 380 411 447
-1 35 36 44 55 57 59 35 67 79 56 41 57 37 33 49 51 47 77 33 6 20 58 82 184 207 217 226 212 185 243 231 233 275 293 253 250 252 335 371 339 393 407 420
91 46 38 47 23 73 93 79 102 75 86 45 40 38 15 13 65 98 41 9 -11 0 39 54 59 101 148 160 160 174 173 166 193 207 234 196 211 246 301 309 328 370 400 495
60 53 -1 47 66 37 58 65 126 147 116 139 113 29 53 20 20 7 20 19 15 -5 -5 6 19 44 57 56 86 121 142 132 158 197 218 228 271 318 312 301 341 434 513 547
96 69 34 53 79 100 69 77 90 160 178 99 95 44 59 38 25 44 41 27 31 31 38 43 73 101 89 72 77 84 122 182 236 246 257 283 281 302 330 361 403 447 456 464
160 136 105 45 54 70 84 109 117 133 132 98 115 74 52 44 59 43 44 35 41 61 57 58 68 84 130 153 190 162 184 234 313 311 284 296 331 398 411 368 403 493 463 469
127 84 134 84 83 97 78 96 122 131 124 132 80 110 28 41 51 52 50 95 96 81 61 42 30 45 103 110 141 148 205 253 294 315 311 343 406 438 450 454 552 591 595 613
154 100 135 134 141 152 105 76 85 91 107 111 114 94 56 73 101 108 119 177 177 167 176 179 165 128 111 92 108 150 202 252 295 316 318 356 431 455 498 609 679 726 591 777
181 155 138 96 180 173 89 97 138 153 198 183 188 149 165 167 164 152 184 224 234 227 225 232 222 200 189 166 133 155 205 242 282 315 328 375 429 491 548 609 631 664 577 533
263 266 197 129 201 52 116 183 171 171 158 166 189 173 201 217 237 293 321 292 266 232 215 182 161 162 182 171 190 197 221 250 292 331 359 396 463 540 570 605 616 477 332 125
187 259 207 172 159 147 140 163 142 129 87 114 140 204 278 321 375 359 275 230 175 138 110 121 162 178 206 224 218 252 281 306 352 362 373 386 436 490 517 529 468 193 85 125
202 227 204 192 171 124 61 115 162 198 142 132 133 166 234 226 202 148 147 133 134 142 155 167 190 205 220 188 177 225 224 264 281 284 358 410 417 458 260 120 100 131 128 112
316 316 239 262 189 157 120 178 208 216 126 165 172 143 148 134 120 140 137 176 166 156 172 195 233 238 213 193 211 243 235 240 181 183 187 181 179 138 113 104 123 116 105 105
320 334 279 289 250 136 181 317 262 132 91 168 179 158 181 169 181 188 183 173 158 187 206 209 247 248 213 207 245 266 247 171 187 188 193 188 171 150 136 124 114 110 116 118
286 260 245 191 161 163 167 155 139 125 88 128 184 164 215 230 193 209 219 218 213 221 252 260 279 316 319 294 255 246 188 180 177 188 179 165 145 130 124 122 119 122 130 144
285 256 243 229 174 178 187 137 104 116 97 134 151 205 216 261 260 270 260 253 263 266 294 309 351 357 349 303 294 259 222 204 201 199 187 165 153 141 134 127 131 140 148 155
232 302 233 242 205 207 132 114 130 176 202 262 291 257 265 319 293 289 297 307 304 317 341 361 370 353 347 311 307 264 213 173 184 175 157 145 130 126 118 118 117 130 140 154
239 254 305 198 254 305 142 180 195 256 272 283 361 363 324 309 312 332 352 336 345 374 378 395 376 370 328 283 270 243 210 177 165 158 144 128 112 107 100 94 85 83 88 105

GFSCGP_con_3kmhel_045.txt.gz
Helicity
15 22 18 -3 -5 -22 36 37 41 60 44 11 34 82 92 80 39 8 37 38 30 30 12 27 27 37 41 45 51 45 35 28 16 14 19 6 13 25 28 28 50 68 101 129
37 28 13 -6 20 29 58 48 49 53 34 2 33 46 45 95 56 60 31 15 14 -5 -9 -4 -1 36 62 62 44 24 29 37 49 35 42 44 73 51 48 82 86 99 111 144
50 33 2 -3 18 12 32 58 46 41 42 16 3 62 39 13 -0 4 -8 -1 -27 -11 -4 -12 8 22 33 54 61 52 54 60 69 65 85 94 104 103 104 115 100 117 138 173
34 7 -3 -11 -22 -0 -2 -12 39 19 19 24 18 27 40 -2 28 23 13 -10 1 -3 -6 5 35 37 54 45 31 49 57 71 83 103 112 130 122 151 151 159 160 162 155 192
46 37 6 -29 -21 -12 -5 -45 5 16 5 27 33 25 46 45 1 83 101 57 20 7 14 31 42 48 64 64 95 82 68 71 86 110 109 142 141 148 187 213 171 183 222 245
38 9 9 -0 -25 -4 25 66 64 45 59 18 36 25 5 18 30 11 48 98 96 38 32 20 13 47 64 99 107 140 125 108 123 131 148 161 187 227 238 228 214 236 245 262
58 26 1 25 -20 39 55 63 38 40 66 48 56 37 -2 17 18 -3 4 11 119 127 55 55 66 94 94 138 153 153 169 143 153 168 171 182 197 214 211 227 257 289 287 291
66 40 44 21 -3 9 53 50 54 42 42 55 62 40 20 27 20 12 21 6 1 63 96 97 100 115 119 144 168 188 181 156 183 181 181 202 211 237 209 238 267 252 303 305
129 50 22 18 48 38 66 63 68 80 56 49 68 34 -1 33 25 39 65 47 41 14 30 60 61 107 128 123 174 228 201 144 165 176 171 180 206 224 266 266 240 267 314 347
68 103 36 34 38 55 54 60 79 91 55 38 52 62 21 32 38 40 40 67 75 41 28 35 41 75 72 74 104 125 125 110 132 144 145 165 162 175 204 231 252 298 279 303
104 86 67 44 43 49 81 76 95 76 76 53 39 42 34 17 18 25 19 -33 -28 3 26 18 25 37 33 60 98 111 87 73 84 111 120 125 171 178 183 215 244 275 292 318
72 93 87 61 57 41 57 68 89 65 19 104 89 57 73 26 16 22 -1 7 -10 -31 -15 -9 -10 -4 -2 10 31 28 39 62 70 101 140 130 145 179 183 203 240 269 295 326
102 96 120 86 43 62 42 62 108 122 111 121 125 119 101 38 26 -2 19 42 16 14 7 -4 -22 -18 -22 -25 -31 -10 21 53 73 116 113 120 137 171 182 202 212 241 290 280
170 117 101 65 50 70 60 80 130 139 137 118 126 53 37 34 39 21 32 44 39 60 89 80 52 30 32 22 30 47 54 93 97 122 138 148 158 171 165 164 171 181 192 284
84 87 101 72 75 100 72 89 118 138 145 143 75 110 44 52 37 31 34 60 87 111 143 119 89 83 81 73 84 97 106 130 145 163 175 176 157 155 151 201 273 327 414 525
115 106 134 90 115 55 36 43 90 104 131 101 92 75 57 96 90 76 71 92 137 176 207 231 225 201 178 151 141 140 147 155 149 161 164 159 173 242 301 354 413 462 493 421
109 180 174 97 116 97 20 72 141 151 159 155 156 123 157 140 136 156 162 169 208 232 259 261 231 217 188 161 132 140 142 140 148 150 149 170 217 285 321 356 399 431 461 407
88 138 176 148 200 93 71 126 114 108 110 161 160 134 110 149 247 285 256 203 254 294 294 236 190 174 164 141 148 154 166 169 166 163 160 177 241 301 321 368 401 374 313 179
133 157 157 167 172 145 82 126 139 153 65 142 122 143 177 262 323 306 308 286 278 219 185 169 150 137 134 163 165 190 182 155 150 151 166 170 213 269 304 290 199 128 104 68
179 164 156 197 163 107 81 117 175 168 79 153 155 166 221 264 245 221 222 188 184 172 149 125 124 156 208 202 174 195 178 178 167 153 163 147 180 174 139 126 120 101 91 97
239 237 204 257 191 139 118 158 210 171 160 61 131 172 222 178 104 185 161 179 174 143 134 143 188 231 215 177 190 229 206 199 162 154 150 145 157 165 165 145 123 110 112 108
216 233 249 299 251 132 200 300 232 178 123 108 134 171 191 163 195 233 193 187 168 165 176 201 243 254 232 224 237 239 244 177 165 168 175 191 187 157 132 132 130 126 126 126
186 210 219 223 260 238 149 162 210 181 129 100 160 201 231 227 208 222 234 199 193 205 229 224 262 297 294 265 221 233 209 180 193 209 196 173 159 150 138 138 136 127 126 126
162 155 211 238 184 195 167 158 177 175 120 89 158 232 222 233 232 262 262 253 253 237 248 264 297 306 293 276 282 260 216 197 206 196 174 161 158 144 142 129 130 133 137 137
133 210 199 238 210 183 117 152 193 189 157 176 228 233 252 296 280 282 284 277 280 296 304 288 298 308 329 321 332 278 233 193 192 177 167 158 141 144 135 134 133 135 143 168
236 208 254 206 190 205 149 233 239 203 179 195 304 302 259 296 326 318 345 326 327 339 323 335 332 336 323 319 318 287 235 199 177 171 153 145 133 127 121 116 112 135 131 138

GFSCGP_con_3kmhel_048.txt.gz
Helicity
31 19 36 11 2 -2 33 -32 -2 48 45 19 18 33 6 81 50 40 20 23 10 13 34 48 46 55 67 68 79 86 62 35 18 7 -6 -15 -10 -12 -14 -2 18 34 40 54
53 27 19 13 12 1 -12 -20 14 37 37 40 18 28 17 70 43 41 33 15 2 0 22 48 51 44 56 60 61 50 39 19 7 4 -5 -11 -5 -2 -4 16 26 41 44 64
20 66 54 13 30 37 1 -15 49 47 43 18 17 16 11 22 1 6 4 -11 -12 4 15 20 35 49 47 50 55 50 46 21 11 -1 -10 -13 -7 0 11 39 55 83 85 78
27 32 32 8 6 1 19 -7 32 33 1 1 25 23 51 26 22 15 14 16 -5 3 4 19 29 32 44 38 41 36 37 35 32 24 23 41 54 51 56 56 61 88 96 103
57 70 47 32 -2 -3 8 -22 -37 41 17 19 12 23 33 43 12 20 41 46 26 6 26 38 43 44 54 49 55 53 58 63 64 69 39 41 30 38 62 83 102 128 133 149
39 74 39 27 2 -24 12 9 -11 7 7 -4 14 7 10 33 12 1 -4 49 40 31 14 0 14 23 16 29 48 59 69 76 78 82 82 63 59 62 95 131 121 147 169 174
85 50 35 27 31 28 -10 12 16 16 21 -7 60 13 11 27 24 -21 24 30 20 15 21 0 8 40 46 55 78 72 76 83 88 106 82 72 66 82 125 118 115 169 195 247
64 71 42 38 8 23 11 6 27 27 20 25 58 3 28 52 28 28 23 25 18 10 14 -5 6 24 45 57 73 86 105 114 111 120 101 101 100 141 131 120 156 198 236 261
67 38 72 43 39 25 51 36 50 51 47 47 35 25 -2 49 21 21 33 24 28 21 4 7 -1 -2 11 31 56 77 90 106 113 129 96 86 131 111 109 107 208 268 235 259
79 72 69 72 51 62 58 69 68 59 57 53 49 48 26 42 43 46 50 45 33 44 63 36 31 29 14 -1 5 26 56 64 61 83 90 89 113 94 85 130 183 229 231 243
87 89 114 89 63 70 91 70 65 75 89 74 65 49 52 24 37 33 30 19 24 33 45 53 59 60 60 66 61 53 41 56 74 75 68 84 71 82 84 143 127 152 177 234
62 89 85 62 71 28 8 18 31 45 78 70 51 27 78 28 24 37 35 20 19 20 26 26 36 47 62 64 68 83 81 70 80 92 74 71 85 92 97 109 127 195 219 186
129 112 69 84 81 36 48 34 27 69 90 38 50 38 74 65 36 27 27 45 36 19 27 47 43 41 46 48 48 50 47 72 84 92 114 128 139 148 158 180 200 182 208 165
95 80 52 47 44 52 74 40 12 21 39 38 36 16 27 18 26 23 46 58 54 58 57 81 95 89 86 86 83 94 110 123 126 126 144 156 172 176 187 184 173 160 168 185
67 71 42 22 11 4 10 2 -1 10 0 37 31 7 30 28 31 53 91 64 65 76 91 118 126 124 125 136 141 164 181 158 167 176 195 210 221 206 191 179 195 191 193 225
116 88 60 38 20 12 15 -7 -11 -4 -6 26 20 0 22 18 73 77 98 78 79 91 109 154 176 177 199 206 216 187 207 214 194 191 200 188 177 188 196 201 202 214 233 253
103 70 56 23 49 52 82 23 6 15 27 43 -5 -3 3 46 52 88 125 123 121 142 176 209 248 275 300 279 235 221 184 163 179 198 203 191 173 169 166 170 179 224 258 246
129 81 95 77 95 86 47 71 2 14 16 39 -28 -23 -9 43 126 141 144 171 209 226 229 268 284 299 263 214 191 161 164 190 201 189 160 131 127 148 174 208 226 217 189 169
80 96 122 138 83 77 65 96 104 73 12 46 20 -22 82 111 172 175 215 213 242 259 276 275 247 197 161 161 167 181 192 188 178 163 160 157 138 143 150 142 144 141 137 115
110 126 130 144 115 73 36 86 83 97 -27 22 31 23 111 160 143 148 229 249 269 272 246 192 156 153 164 164 166 195 203 192 180 165 170 152 129 132 154 144 128 104 79 101
194 173 127 114 136 111 127 148 138 93 57 74 54 40 109 133 76 206 250 244 229 213 188 169 171 185 188 180 198 237 214 222 205 203 195 196 198 184 134 100 95 106 106 105
167 148 170 157 154 85 161 222 163 109 81 81 68 77 103 121 170 203 260 232 203 203 198 187 198 212 212 211 224 246 241 206 199 205 202 179 152 131 126 123 116 109 127 130
153 143 156 119 130 160 140 118 96 109 90 108 79 122 120 215 167 212 257 236 216 207 200 193 222 261 267 256 243 265 223 192 196 199 200 181 166 149 137 144 140 137 131 133
96 107 102 87 86 73 69 72 144 117 123 143 112 134 192 234 205 228 238 243 234 214 223 246 276 297 309 298 293 259 243 217 217 223 229 200 210 170 156 140 141 147 149 142
89 103 116 67 64 76 59 87 103 138 159 155 130 142 161 251 235 243 263 257 254 269 273 292 321 326 329 327 330 287 248 210 243 242 224 197 174 163 149 153 152 154 173 155
143 135 173 160 48 87 17 74 97 86 125 143 155 183 208 252 291 273 278 296 315 329 355 362 355 359 382 377 343 294 257 232 245 250 218 194 165 151 149 145 122 140 137 135

GFSCGP_con_3kmhel_054.txt.gz
Helicity
30 31 30 3 37 -15 -40 -66 -41 57 76 51 34 38 64 9 10 81 114 180 106 69 160 70 78 68 9 53 30 11 -29 -39 -63 -53 -54 -52 -51 -34 -57 -63 -25 -5 -8 -20
10 58 -15 -29 -4 25 -12 -30 -40 4 84 47 24 22 108 81 33 126 51 158 137 60 188 128 103 59 47 65 59 18 -12 14 -6 -33 -21 -33 -36 -20 -28 -56 -2 -12 27 23
32 20 70 -34 15 1 -22 -19 -43 -49 27 43 19 -20 -6 128 -13 117 55 114 122 106 204 147 128 86 20 123 100 71 55 52 28 7 -19 2 -6 -13 -3 -20 64 4 56 29
12 -25 41 47 4 -15 -14 23 -30 21 11 10 37 16 28 51 57 75 107 70 136 142 224 199 135 120 85 89 148 84 65 81 66 17 -52 16 28 16 11 1 54 102 142 112
10 5 -38 43 -4 -12 -34 27 -10 -7 -42 -46 33 30 -58 75 69 68 152 68 84 117 248 274 199 103 114 61 160 90 64 101 83 85 3 -47 62 29 6 37 44 170 211 198
-12 -6 15 -7 16 -26 -13 42 -14 -16 -32 -19 -31 75 37 27 -0 39 70 77 56 84 205 266 247 137 149 104 111 133 69 96 34 133 60 16 91 88 12 56 102 198 243 196
14 -42 12 27 3 8 13 16 7 27 -8 29 -23 -28 1 141 98 23 -18 127 96 68 97 192 257 222 186 159 143 157 144 118 102 67 101 92 16 35 60 11 110 190 239 259
89 46 -51 67 -0 54 30 20 -0 46 29 -46 40 8 88 85 30 1 64 9 34 226 138 156 206 265 249 184 183 184 166 139 104 115 107 168 258 81 85 -81 -27 189 220 295
70 27 19 53 54 -71 37 17 -54 -43 44 -24 12 -32 79 63 33 48 31 25 34 -5 71 171 131 153 261 271 227 227 182 149 98 220 179 187 210 112 212 -19 -41 46 163 240
18 53 -34 115 54 23 -43 1 3 -38 60 27 20 34 51 61 32 60 28 24 25 69 66 13 36 133 178 256 291 274 204 118 134 219 291 332 208 81 91 -23 29 127 267 335
-41 -18 3 39 110 48 21 -2 1 -10 37 28 10 -28 182 68 48 51 26 51 51 64 73 50 55 41 149 236 283 291 303 181 156 294 309 343 288 153 110 132 160 157 261 186
13 48 26 63 57 46 -16 45 17 50 75 59 78 44 -0 106 21 48 42 26 44 73 92 43 37 71 130 115 206 286 311 242 174 199 279 188 166 181 196 160 171 166 187 186
116 31 87 74 53 76 7 -3 31 -13 39 -4 124 -22 50 55 45 69 100 67 58 86 86 63 60 55 64 118 196 197 196 225 190 200 165 178 315 326 327 271 267 267 282 305
113 97 107 131 50 72 36 17 37 -57 22 86 50 12 25 40 54 55 31 54 36 104 78 108 84 61 79 84 153 248 230 159 223 311 358 468 397 307 273 280 299 316 329 351
151 112 42 90 43 34 32 33 16 -34 37 115 33 7 -12 7 139 53 76 111 101 65 81 95 140 155 127 129 147 225 335 382 429 455 437 382 332 283 280 296 320 330 342 338
185 145 73 114 50 -1 17 26 47 30 -4 -11 9 42 28 39 54 87 56 -2 117 97 49 75 124 217 226 183 251 357 320 265 268 308 282 250 240 276 293 286 262 266 270 271
133 152 116 115 84 47 42 -2 -1 47 33 30 25 14 37 -26 52 34 77 63 76 121 113 133 114 152 278 306 322 260 262 245 271 311 296 325 343 326 279 239 247 242 242 248
201 167 109 169 110 53 80 49 62 66 53 40 12 22 23 -1 39 48 64 137 112 190 272 248 277 310 355 380 391 445 374 360 319 327 311 279 241 214 221 274 323 305 290 273
257 234 114 260 166 162 102 88 102 82 40 25 26 12 30 15 118 104 116 144 174 291 381 365 381 346 381 447 360 322 327 312 308 278 214 194 208 272 291 295 303 313 274 209
118 246 371 246 202 187 177 90 29 42 54 47 35 25 39 57 101 111 106 180 293 355 344 316 315 310 296 274 316 315 292 255 239 218 230 248 277 347 349 298 243 190 162 140
138 122 237 209 227 168 118 46 14 56 47 29 35 37 48 121 130 133 186 269 291 284 311 331 314 279 268 272 287 294 274 258 252 274 339 412 378 292 228 189 169 151 238 283
56 155 119 140 195 124 98 42 59 55 6 77 47 72 58 113 138 143 194 303 320 313 311 308 305 286 268 270 290 290 280 305 370 378 343 303 250 194 162 198 262 268 258 236
50 78 94 202 191 243 78 103 88 76 74 27 33 53 70 162 154 179 237 283 282 280 294 245 325 307 275 278 270 307 339 362 367 346 272 207 201 242 246 281 266 307 297 293
62 -1 54 85 97 112 164 263 74 64 108 85 79 45 85 197 212 213 198 234 294 283 208 292 318 329 320 311 322 373 398 338 302 335 330 294 302 314 363 362 371 350 321 271
104 35 27 26 16 31 61 57 9 47 108 69 72 101 95 153 215 236 204 262 263 265 283 324 342 376 396 419 450 388 351 359 407 400 380 404 359 365 483 438 355 282 259 235
90 68 55 57 34 46 47 66 76 51 86 63 77 65 30 117 216 208 237 268 257 273 366 408 407 461 502 515 487 444 421 443 497 538 585 481 468 478 383 284 279 252 148 152

GFSCGP_con_3kmhel_057.txt.gz
Helicity
33 70 64 48 14 50 99 9 -51 -59 46 66 113 134 -25 -71 129 65 85 306 225 163 78 74 43 24 19 10 38 6 -13 -1 49 -18 -45 -34 -49 -89 -131 -93 -56 -59 -53 -49
36 84 51 15 -7 12 56 3 -15 -74 49 32 26 60 20 21 20 197 162 258 210 201 149 95 54 34 19 3 20 -14 -64 -73 -80 -79 -86 -131 -200 -166 -137 -71 -60 -42 -10 -8
120 3 58 4 4 1 8 -13 -12 -19 7 4 38 58 94 100 122 67 76 144 238 342 217 177 122 83 61 45 26 34 25 7 -54 -50 -78 -107 -92 -89 -79 -76 -83 -52 19 19
79 42 -26 20 47 25 -20 -4 26 -6 -8 -22 35 6 26 232 191 100 -30 158 291 359 278 238 184 120 112 67 46 57 68 48 -9 -29 -23 2 -16 -11 -26 -3 -14 -21 18 71
102 1 25 -16 34 51 9 6 2 -5 -22 -5 -76 -26 -38 137 164 22 -69 235 259 371 384 292 252 195 139 107 72 33 92 82 40 11 7 -14 -13 6 32 21 5 10 44 105
39 1 -52 -44 12 76 34 -2 33 -8 28 -22 -10 -5 -71 34 95 177 94 183 214 337 400 391 290 199 166 140 113 84 81 94 70 62 32 35 32 61 64 61 61 99 136 165
4 -50 -45 -24 74 41 58 34 22 -11 28 12 -17 -46 -89 42 100 66 170 65 188 343 400 368 334 252 198 212 204 159 136 137 103 79 57 42 37 78 132 85 117 148 175 187
92 35 -46 -21 63 75 34 91 107 38 35 22 -5 -22 -19 56 27 48 81 133 112 303 371 392 424 408 326 229 259 260 190 172 151 153 123 64 44 27 141 157 85 159 180 219
155 55 46 -1 37 119 77 93 74 -3 14 30 -24 -17 34 -36 -31 -7 25 76 72 213 286 308 375 390 388 362 277 312 274 217 193 186 217 134 30 97 154 209 131 49 59 81
95 112 -9 10 59 93 73 118 59 -13 3 29 -44 17 20 70 -18 -23 65 41 25 48 149 283 356 353 355 384 374 346 318 271 234 245 202 173 156 129 186 212 240 137 82 180
90 46 53 32 43 148 135 50 72 49 35 61 41 20 20 211 345 73 38 81 91 88 90 102 115 275 331 379 376 375 387 360 275 240 237 247 300 307 253 145 139 80 116 191
129 51 55 43 90 106 142 125 112 115 16 55 91 16 11 93 94 -7 29 46 71 156 163 83 60 134 93 293 360 399 395 420 342 293 382 372 361 304 242 -71 119 195 183 177
106 92 144 91 116 52 82 121 85 115 119 46 138 76 66 64 -15 17 80 93 143 190 180 150 89 63 123 117 246 273 316 487 285 244 261 338 252 197 208 225 283 297 250 245
176 142 126 85 219 129 169 83 37 110 126 29 90 36 6 -42 17 45 99 92 82 165 171 176 108 48 62 143 195 395 370 298 188 220 337 379 332 315 358 357 327 290 280 304
190 137 138 187 35 85 74 65 59 106 64 32 83 73 43 26 4 99 141 138 67 114 167 186 197 113 97 145 232 385 399 427 391 420 377 416 455 423 362 336 310 327 347 354
143 158 166 111 120 89 114 73 -17 18 86 94 93 64 -16 16 89 85 97 59 66 205 195 167 193 242 293 290 293 319 405 405 379 405 396 406 409 420 380 359 342 348 356 343
200 116 193 114 81 90 96 0 -13 16 35 94 52 110 89 74 119 167 99 77 87 92 106 168 239 315 392 397 434 380 297 306 380 413 401 407 430 424 373 342 339 326 325 352
114 341 170 213 202 142 137 3 110 56 26 47 86 84 58 54 49 92 78 64 70 112 210 290 367 496 522 525 478 404 331 344 347 399 442 443 419 410 385 405 334 340 325 306
77 331 269 232 257 214 145 142 106 86 76 44 58 52 52 72 77 154 132 160 166 214 288 383 499 627 648 599 646 604 506 506 435 388 378 356 369 408 375 327 311 290 294 264
65 285 315 359 305 171 110 150 139 110 115 118 106 77 77 94 109 128 168 145 188 257 329 416 459 544 569 622 713 687 585 501 384 350 332 327 362 362 328 305 293 263 214 198
-1 139 388 344 234 209 94 99 78 157 157 105 67 64 39 27 58 156 199 189 187 241 322 441 451 435 425 487 505 462 425 371 357 363 392 418 353 329 313 297 240 214 288 343
-83 10 120 90 93 123 132 203 167 114 113 35 28 41 53 70 70 72 109 138 192 275 340 399 415 404 435 451 434 379 363 375 461 491 434 384 358 330 319 275 271 303 337 352
91 100 7 -9 21 117 174 139 77 123 319 134 63 80 103 99 146 170 164 220 262 343 404 428 409 396 397 410 401 433 455 528 500 456 409 369 371 363 312 340 415 440 379 363
115 156 144 120 24 67 131 26 2 -71 28 217 191 29 98 198 217 119 227 295 335 355 409 427 424 422 428 444 471 507 517 536 490 423 386 392 406 485 572 565 521 479 458 476
139 202 108 90 79 49 22 89 52 68 1 191 247 176 23 -32 4 193 239 294 350 369 421 423 447 445 461 539 582 551 522 477 457 458 501 542 675 725 707 582 478 508 513 411
96 90 118 40 24 71 -29 26 -19 -14 16 -5 209 160 94 39 116 192 230 253 343 374 407 468 504 571 617 682 626 528 467 465 534 613 657 697 661 633 579 524 535 524 460 402

GFSCGP_con_3kmhel_060.txt.gz
Helicity
119 145 121 90 49 37 -14 9 22 79 52 73 38 77 156 123 109 162 201 222 163 107 59 69 73 72 33 41 88 73 89 -1 12 9 -5 -44 -7 85 42 55 -75 40 30 25
124 91 98 72 7 -12 -25 6 29 24 24 64 66 44 55 152 26 99 219 205 211 144 117 81 86 91 45 45 45 23 4 31 23 38 3 -26 -7 -31 -46 -167 -105 -14 -22 -52
167 90 96 55 6 -11 -0 29 66 61 8 5 120 35 36 65 61 23 103 215 237 256 183 135 109 104 59 53 36 6 -28 -11 10 -6 -21 -64 -95 -117 -190 -232 -195 -162 -123 -79
156 -10 12 76 28 7 -1 30 27 23 65 58 57 32 -5 71 125 73 94 289 256 243 172 179 138 107 85 36 34 5 -34 -14 -35 -47 -75 -106 -116 -170 -230 -224 -184 -149 -88 -37
246 82 77 45 14 13 25 -10 -5 25 51 53 32 22 -2 62 35 103 137 207 281 321 268 221 211 149 86 55 48 15 -21 -28 -13 -31 -49 -69 -71 -117 -138 -132 -99 -99 -82 -49
109 46 70 40 42 46 16 65 53 67 80 -55 19 19 -88 15 88 117 84 143 164 285 267 259 201 188 136 84 60 46 41 -2 28 15 -24 -29 -33 -56 -80 -84 -52 -62 -63 -69
89 25 32 29 56 40 65 127 99 65 66 -28 12 4 2 -17 43 171 185 127 52 221 284 277 214 217 195 211 168 125 92 48 73 88 40 17 -4 -21 -22 -20 -32 -52 -41 -18
161 82 21 48 72 79 113 149 131 85 45 -11 55 -11 -29 -3 -27 54 128 169 127 201 277 363 363 321 278 244 273 237 183 110 108 133 92 34 -4 -29 -22 -5 -1 17 21 55
105 113 99 48 84 87 89 171 127 145 94 72 42 32 -27 -19 -44 12 26 149 181 245 279 303 286 363 373 364 293 320 279 195 148 167 139 104 51 14 8 33 104 125 75 89
94 73 72 34 86 69 81 111 165 212 96 54 71 -12 -67 10 -61 -35 26 65 125 245 254 281 320 315 321 379 400 324 299 295 250 233 203 156 113 58 88 103 102 141 126 109
226 120 37 53 69 108 151 158 174 162 173 81 50 -1 15 6 -18 -24 -35 -4 84 148 202 271 295 305 315 321 377 393 351 296 309 220 219 180 123 94 172 239 195 37 141 116
37 73 121 24 54 114 46 105 161 199 189 164 134 43 79 18 35 79 122 137 65 95 111 180 233 267 315 294 291 346 370 364 338 345 330 240 186 206 227 201 352 282 84 40
152 69 116 85 18 -4 71 112 152 219 250 137 128 80 78 73 41 26 16 20 -2 89 152 160 176 127 176 217 274 342 407 394 385 430 409 251 303 288 258 264 273 125 91 63
-57 53 88 92 106 81 111 106 103 174 236 178 174 113 93 49 96 75 43 -84 9 108 126 166 184 164 161 86 124 237 315 439 492 535 372 390 333 205 268 323 244 179 171 235
7 -5 61 47 80 67 109 142 119 133 179 187 145 127 131 101 104 45 58 52 148 131 123 164 163 189 191 152 162 217 345 407 463 416 329 262 245 210 359 388 337 280 330 358
-62 87 155 83 50 58 98 108 155 63 99 119 121 144 116 85 106 64 72 87 107 140 124 128 197 258 241 204 198 333 493 391 331 329 344 385 422 395 373 339 342 396 390 402
-150 72 245 99 140 101 158 74 85 123 95 75 103 73 106 97 53 34 30 120 101 94 150 165 162 248 296 311 345 354 454 457 431 419 423 456 448 415 419 425 416 412 376 411
-224 -89 133 113 213 174 53 188 167 97 120 86 100 75 103 94 35 67 120 138 121 102 159 147 173 217 402 473 458 499 488 488 431 402 430 458 458 476 471 462 435 403 400 381
-122 -133 -40 152 111 130 44 106 72 141 77 119 98 90 72 47 88 86 58 88 99 147 185 207 238 362 534 588 584 560 495 447 438 397 423 418 454 494 483 435 409 397 406 377
-1 -57 -91 -72 76 73 117 121 79 125 149 152 98 109 36 69 85 65 62 131 171 201 227 245 301 468 638 595 565 504 494 487 448 412 423 428 487 491 443 400 354 321 341 381
-51 -80 -158 -116 -65 95 208 304 98 158 84 155 128 127 108 143 82 81 169 196 213 183 207 266 290 356 489 586 572 551 548 533 470 394 393 422 410 408 365 322 307 335 400 435
-45 -94 -127 -1 1 77 211 257 254 190 245 174 162 226 125 65 71 60 142 160 145 137 159 210 285 342 409 466 475 439 430 423 434 444 438 396 355 330 302 321 346 382 433 485
85 30 -20 17 -31 60 46 84 256 199 247 281 210 243 329 121 114 142 116 124 130 173 212 245 316 381 386 400 390 421 427 454 443 422 375 371 361 334 340 379 409 429 467 473
20 20 74 42 6 -14 -29 3 31 61 49 146 166 298 263 270 116 81 175 170 199 200 249 298 352 363 378 366 371 404 404 419 412 400 402 407 445 491 504 494 439 425 450 449
69 122 52 57 69 63 30 26 85 77 53 45 148 203 322 256 215 95 123 168 245 285 302 329 354 381 409 427 448 423 415 422 438 475 518 533 537 542 575 618 546 529 505 432
36 53 67 34 28 58 45 33 96 8 3 5 -14 65 130 180 250 121 133 231 268 311 379 435 463 499 484 493 494 470 455 494 554 574 538 524 573 610 645 650 683 688 572 519

GFSCGP_con_3kmhel_066.txt.gz
Helicity
263 229 153 233 212 174 121 131 101 111 56 81 15 13 33 48 91 120 121 128 80 82 78 95 94 109 89 108 116 135 118 72 190 198 283 276 208 106 113 135 256 142 89 117
355 151 168 150 141 148 137 104 84 21 83 83 96 -18 -24 31 73 161 115 115 90 111 131 111 88 117 115 128 130 96 92 87 71 71 183 211 118 280 333 309 228 143 93 247
263 190 124 185 176 134 131 129 113 88 108 103 135 76 -26 -34 48 80 89 107 77 73 149 142 110 98 92 128 119 121 83 81 96 60 14 162 209 322 339 328 154 114 226 159
130 79 144 121 115 194 113 135 91 95 152 126 119 -50 71 -17 -16 14 74 102 145 102 116 159 139 131 107 108 127 117 82 78 78 90 69 55 51 41 121 150 140 160 227 173
182 109 134 150 90 163 87 98 83 104 154 146 113 132 68 83 16 -5 41 112 118 167 154 175 179 153 109 109 124 114 91 65 65 75 37 24 28 3 -32 -13 33 43 -13 -44
112 83 75 131 92 105 75 88 107 153 170 98 121 156 41 97 118 71 25 50 104 182 152 127 110 137 134 125 129 126 124 91 71 46 31 12 25 -24 -40 -28 -19 -42 -75 -90
155 96 124 116 123 132 157 165 226 212 188 136 91 148 99 59 96 85 42 30 63 152 189 163 175 172 168 182 182 157 160 153 123 77 25 -3 -16 -15 -21 -45 -62 -88 -80 -114
177 104 114 144 117 148 159 207 260 193 175 105 170 104 63 38 5 -7 12 26 -30 69 155 180 160 152 168 201 216 207 179 165 180 146 92 22 7 -11 -22 -42 -91 -125 -138 -137
84 100 80 78 140 131 154 183 153 137 97 76 52 151 83 79 11 27 27 27 -3 106 120 150 151 162 127 158 226 263 242 171 168 162 115 76 23 -3 -26 -38 -70 -128 -122 -110
128 107 104 84 119 151 153 88 199 248 112 102 112 67 81 41 25 27 39 14 25 45 89 98 109 139 158 160 191 231 256 242 212 209 166 131 104 68 22 -13 -34 -50 -53 -58
82 109 112 124 150 120 154 148 155 141 188 117 72 55 52 11 38 75 48 75 29 52 87 119 110 130 164 178 196 260 286 316 283 261 260 235 215 181 141 89 45 34 32 20
272 169 107 63 -23 20 104 141 132 153 134 137 100 78 136 75 -18 3 50 93 26 35 55 95 119 151 153 210 254 320 346 376 398 424 346 299 339 308 256 186 147 112 68 84
217 199 146 131 107 88 34 43 93 159 135 121 148 174 125 29 32 6 50 27 52 33 53 109 137 137 162 210 266 323 375 403 409 466 485 393 354 316 258 225 241 181 153 119
21 143 183 151 149 182 225 221 170 154 132 108 27 78 106 83 50 36 37 12 40 48 49 67 109 113 121 162 200 239 282 353 391 418 450 459 490 465 330 140 110 91 175 -85
5 104 128 117 109 179 111 154 270 208 156 97 28 21 94 62 57 78 81 65 65 55 44 69 70 98 137 149 155 159 201 309 363 358 393 430 460 437 336 143 117 125 120 -73
135 52 10 100 23 97 78 101 69 94 112 92 70 35 82 63 58 66 67 55 51 81 79 59 92 84 107 143 206 175 172 215 289 293 328 353 341 329 283 187 153 151 96 88
192 95 12 46 -10 3 94 68 68 173 105 62 17 18 82 113 88 93 68 77 62 73 57 61 79 117 141 159 241 222 191 239 277 259 211 228 258 262 233 189 188 240 255 311
131 153 135 -4 -5 29 -24 -13 18 35 234 182 164 89 76 75 73 36 41 65 82 82 72 49 111 146 120 175 308 289 234 255 265 252 259 249 251 249 308 342 346 358 365 344
75 136 105 9 -38 -18 -43 -46 -49 -40 74 24 28 70 110 117 118 26 37 44 46 89 93 79 106 104 115 215 307 341 287 256 290 289 301 316 321 400 419 364 341 353 365 335
143 106 100 74 56 -15 -47 24 36 30 -21 116 45 68 135 66 63 41 43 66 46 41 110 87 90 123 129 164 310 346 300 296 273 315 328 342 359 378 349 360 377 360 323 377
138 139 80 95 79 68 38 -15 -29 -25 -6 159 118 61 213 257 64 39 75 70 60 31 91 71 77 110 156 200 257 297 306 271 309 347 384 350 353 355 352 359 338 391 436 497
105 118 149 163 116 65 42 30 -19 -24 -25 27 52 179 138 228 229 72 65 118 79 107 93 70 99 125 156 180 246 242 290 364 405 383 350 334 336 318 319 383 422 461 526 606
137 173 133 144 159 106 118 54 78 125 55 -0 30 46 214 227 258 172 131 45 17 34 106 226 170 202 227 206 201 269 281 272 309 318 336 339 360 351 368 412 454 481 496 574
145 115 136 154 126 83 42 -18 -68 20 93 30 64 23 12 279 244 196 148 163 185 128 117 118 156 182 192 169 174 186 220 253 284 328 324 313 357 386 395 407 407 434 445 423
95 118 144 116 99 50 -0 12 -35 29 19 35 32 7 -18 115 250 139 111 122 105 156 236 188 180 154 151 156 170 166 189 245 280 272 291 336 363 392 457 486 410 332 277 231
102 151 150 127 175 112 60 28 82 78 88 107 25 46 65 50 90 69 55 -1 -34 116 195 166 222 195 172 176 184 169 171 195 208 230 245 263 302 316 341 365 434 452 362 371

GFSCGP_con_3kmhel_072.txt.gz
Helicity
83 164 135 75 76 33 47 38 22 35 103 52 5 -11 -4 5 49 54 69 69 45 71 96 93 64 60 55 61 68 102 134 92 133 93 130 123 76 81 120 97 176 120 174 -24
147 128 76 58 61 35 31 24 20 39 66 31 9 -23 -15 4 46 53 61 39 33 67 128 114 84 61 64 63 59 84 110 85 49 105 89 105 51 145 125 187 151 101 -31 -69
94 128 63 91 52 51 25 22 20 29 68 21 -0 -7 -6 53 68 68 38 7 23 54 100 121 98 66 63 57 45 53 91 76 87 77 53 167 241 207 231 200 146 27 -7 -9
89 82 70 36 32 41 30 24 31 44 69 48 89 -1 42 70 10 53 13 20 22 33 78 106 112 78 57 64 37 27 69 72 74 120 139 105 98 198 126 135 176 150 79 110
116 48 44 44 41 44 36 60 42 21 46 57 -2 -3 1 61 -9 6 18 27 11 22 53 99 108 81 64 65 61 26 35 72 86 101 113 103 56 18 163 162 126 65 215 209
150 122 146 46 32 36 102 72 53 62 79 73 -6 91 41 36 -6 -8 18 31 35 6 9 51 73 95 93 74 64 29 35 44 78 101 116 113 95 107 99 117 156 174 150 257
78 106 44 66 69 67 71 80 85 90 129 81 89 99 22 60 8 6 40 46 50 25 -6 22 86 120 118 115 84 40 40 49 70 98 121 108 82 120 130 168 69 116 135 190
118 86 111 48 72 84 24 59 149 109 84 80 110 75 66 35 23 10 -2 5 66 44 12 19 66 94 110 88 98 75 55 55 69 59 77 97 82 83 62 87 72 82 164 167
73 53 37 48 71 48 27 78 86 100 111 140 81 88 84 34 5 -8 -14 21 23 26 30 18 60 91 70 89 83 84 79 68 83 76 60 72 78 79 92 105 58 58 75 84
141 91 48 13 16 18 69 46 114 133 148 104 109 81 108 72 23 2 21 24 17 20 10 34 61 77 92 60 47 44 53 82 89 82 84 74 80 93 80 77 108 110 79 77
85 128 105 104 71 34 66 103 117 135 102 125 123 106 70 15 29 32 42 51 69 63 18 24 42 59 72 84 65 42 47 66 99 96 105 104 93 84 94 122 128 125 109 129
82 134 152 141 180 154 49 35 42 109 94 79 100 111 40 76 107 49 16 30 63 72 73 31 17 54 75 72 88 78 59 65 85 107 118 97 107 105 105 105 104 136 135 114
210 95 75 96 121 105 104 145 165 151 166 134 96 121 22 63 101 68 42 26 28 28 78 50 20 37 43 58 72 89 95 94 122 149 156 159 134 128 137 111 121 109 99 91
81 125 136 128 168 230 179 171 148 146 129 83 70 72 88 61 69 62 56 82 64 46 39 50 51 16 33 45 58 92 100 110 135 157 178 182 186 180 142 119 118 134 125 119
110 128 96 122 130 129 167 186 169 127 114 100 87 82 66 44 26 32 46 41 52 62 38 30 46 40 31 35 49 63 52 81 96 103 126 145 142 137 120 102 101 107 115 125
175 92 102 82 93 117 111 107 132 126 97 46 -3 -14 26 43 69 59 30 40 54 57 107 43 43 31 56 52 51 53 52 78 100 90 83 81 80 81 92 107 121 111 122 121
191 148 85 65 41 53 61 31 52 50 45 30 53 99 90 42 21 24 79 85 62 55 99 160 97 89 57 26 61 61 49 95 103 92 83 80 68 54 43 52 88 112 124 152
180 149 153 110 88 74 117 119 92 75 52 57 92 105 85 52 50 35 35 60 96 45 48 83 93 84 89 70 45 66 65 68 81 80 105 114 106 96 85 77 77 96 110 115
60 120 140 117 53 87 92 77 76 85 102 124 127 124 101 83 52 68 53 64 90 98 53 14 53 48 32 47 21 52 75 67 69 84 114 139 138 144 128 114 115 151 150 173
53 63 104 114 110 80 90 72 150 108 143 165 134 129 107 82 130 116 97 32 72 72 88 74 31 50 73 110 53 51 67 87 73 117 127 151 177 160 154 140 210 327 284 295
109 91 47 36 44 36 17 23 33 76 153 94 84 80 62 45 39 46 77 23 14 60 58 73 66 82 131 109 55 66 58 73 90 115 112 137 164 158 248 378 315 367 375 402
80 92 88 48 37 32 36 15 24 111 68 35 29 29 34 36 23 24 36 37 14 15 32 21 57 93 88 99 83 47 76 186 213 247 316 309 320 312 313 364 380 364 355 385
63 60 57 52 38 55 69 61 66 2 2 2 -9 -5 15 -0 18 31 42 37 16 69 71 36 6 44 88 215 282 131 89 89 116 181 267 290 349 368 347 403 352 433 353 400
32 37 46 46 52 41 89 58 48 38 6 12 26 5 21 30 61 82 113 105 43 66 100 103 74 78 52 153 365 339 221 141 160 224 292 387 363 413 384 367 394 373 382 434
38 63 31 31 27 45 42 86 67 67 65 59 73 50 58 49 47 74 125 129 107 104 208 172 171 127 140 132 246 383 459 351 264 307 332 408 462 506 532 489 443 415 413 375
39 28 39 42 104 86 43 53 51 39 57 68 74 87 69 80 88 91 111 138 165 107 37 103 219 315 128 95 130 212 284 312 308 304 314 370 375 357 378 433 533 545 527 468

GFSCGP_con_3kmhel_078.txt.gz
Helicity
82 144 151 159 90 45 67 104 101 23 -7 0 93 57 16 21 9 82 93 35 82 133 125 146 122 182 177 244 209 185 176 204 201 146 122 108 77 91 121 126 56 40 126 181
81 105 98 110 110 68 50 77 94 41 45 45 67 56 22 12 21 22 21 112 82 113 127 256 182 180 191 213 198 178 152 181 158 118 100 118 117 90 120 173 85 144 179 150
92 65 40 69 179 115 100 79 97 60 27 36 20 41 38 22 27 27 72 -31 32 127 175 268 234 174 186 204 165 181 135 174 138 98 94 116 150 132 123 123 143 89 105 55
102 73 35 65 184 267 204 64 48 32 46 106 13 53 18 -3 34 117 53 62 -9 31 142 216 277 192 198 141 182 117 119 118 140 125 138 147 208 194 149 153 101 76 62 90
155 47 -16 9 88 223 206 90 68 97 35 100 75 88 42 29 52 11 68 78 92 82 42 163 278 229 170 156 212 107 158 96 125 105 121 158 138 128 143 139 115 81 102 76
75 75 114 65 84 78 67 72 31 149 49 105 59 88 28 38 -4 13 59 52 43 115 91 112 202 204 154 208 196 154 137 99 115 130 137 140 168 202 191 161 149 148 153 195
22 85 104 6 239 195 136 73 129 127 156 119 65 73 30 18 18 53 93 48 31 74 126 133 244 197 168 247 240 161 185 94 115 136 129 141 142 195 214 214 171 121 136 186
-15 -9 38 82 58 195 207 72 208 247 183 92 17 93 46 10 9 88 39 81 34 101 110 96 180 264 159 243 263 178 190 104 158 130 128 118 131 118 169 228 173 168 170 169
25 -39 117 24 27 78 153 170 33 189 85 218 125 22 60 29 58 79 59 29 -14 109 77 89 104 292 239 237 273 207 153 118 143 150 117 102 116 158 240 220 217 223 193 131
25 -6 30 1 -13 32 70 134 87 73 50 260 142 154 90 70 72 36 11 21 18 14 51 60 69 228 302 234 258 234 136 116 121 209 141 108 101 115 148 200 222 224 204 216
28 5 20 49 32 -16 68 82 112 70 142 192 165 80 80 112 88 82 160 197 120 90 51 43 62 113 226 203 236 265 178 118 120 194 184 132 122 119 121 108 176 195 201 215
169 59 -24 -30 -10 14 27 74 83 184 177 97 149 149 111 74 120 75 146 102 136 156 57 43 20 25 157 189 212 253 205 134 141 169 204 174 152 149 145 149 161 173 168 178
219 98 1 -12 10 11 8 47 72 52 41 68 163 105 12 80 107 58 145 71 64 56 92 90 42 27 28 154 176 227 253 147 107 156 190 199 187 192 177 170 182 173 187 189
148 141 82 15 -19 41 4 57 66 72 110 104 35 147 260 204 129 158 72 87 95 44 49 84 47 0 25 75 123 155 209 234 143 118 166 192 203 227 202 181 197 226 222 228
-38 72 86 134 90 56 -11 53 11 26 31 86 43 17 46 62 1 24 51 97 148 154 156 166 173 158 82 114 90 96 136 218 219 122 127 175 206 190 199 217 249 254 268 270
86 34 85 106 131 62 108 2 20 -19 -8 26 47 38 -10 13 -7 69 141 124 127 122 154 138 114 172 152 159 122 55 105 137 215 219 153 180 218 217 207 228 269 282 290 281
156 94 80 75 88 118 83 -3 26 51 51 31 52 41 27 102 146 96 112 72 72 55 57 86 80 97 112 181 299 200 176 83 142 192 238 226 227 224 201 228 247 258 307 307
156 123 95 45 74 40 36 -7 56 63 27 13 -11 28 34 88 85 79 76 172 139 79 35 23 55 49 57 124 125 168 241 182 217 144 198 247 244 229 200 217 215 222 260 289
49 60 110 79 9 69 89 32 37 35 26 4 37 82 103 144 116 239 227 177 104 75 72 72 70 54 50 61 112 152 99 129 157 129 103 197 236 199 184 194 213 226 253 258
24 37 82 143 93 70 48 71 96 107 54 182 159 212 256 235 231 183 130 122 81 86 96 96 48 44 25 -1 22 87 118 156 208 248 215 186 180 218 206 225 249 219 242 238
17 44 60 70 116 113 81 122 167 57 180 218 318 277 363 303 213 123 128 109 86 131 61 39 33 -14 -9 2 -24 -20 41 102 183 193 215 163 267 189 200 190 223 247 228 322
48 63 69 67 89 74 53 26 33 142 236 241 286 244 269 180 87 56 79 130 129 93 77 64 6 -20 -26 -33 -29 -36 -28 38 45 100 113 144 271 382 347 312 475 484 539 577
49 31 62 58 56 18 61 85 125 154 80 137 240 190 167 120 65 80 76 140 119 123 90 79 53 50 35 35 18 -21 -19 -54 -14 35 75 124 211 343 460 552 587 564 550 584
41 43 38 43 15 76 157 370 185 211 179 163 114 80 83 67 98 118 156 156 138 120 108 88 85 63 62 97 119 81 38 -4 -57 -85 13 93 176 284 436 473 518 535 539 539
37 45 67 32 74 82 146 174 142 163 103 45 10 24 36 50 79 123 145 133 120 110 100 95 104 97 103 114 134 134 124 60 17 5 -16 8 98 170 346 434 520 452 438 367
67 34 33 94 118 82 47 76 106 45 5 1 20 3 16 59 65 85 92 94 93 101 101 104 115 142 159 175 179 181 147 117 48 37 75 42 103 194 220 482 617 803 713 722

GFSCGP_con_3kmhel_084.txt.gz
Helicity
107 166 160 148 163 183 164 137 101 88 84 60 48 34 15 18 1 26 90 129 135 191 314 395 383 383 416 343 312 263 252 229 271 192 185 105 59 51 91 122 137 211 224 198
121 61 61 84 109 129 142 141 121 77 86 85 49 5 -9 -3 13 105 92 161 140 234 402 419 443 418 400 393 290 275 260 246 236 214 155 23 51 50 44 107 48 98 150 137
98 62 93 81 81 94 133 156 130 85 43 22 75 -27 -81 30 53 125 49 129 136 255 380 475 449 438 404 395 306 269 255 234 205 192 155 109 34 87 81 59 61 37 55 63
69 7 50 99 91 99 114 91 141 173 131 120 220 15 -28 -1 64 152 91 82 108 203 328 490 503 427 375 363 321 260 228 209 192 187 167 159 119 137 61 77 23 6 37 125
54 82 110 50 66 76 95 146 161 162 164 134 115 139 -59 -60 48 56 80 55 73 146 300 441 482 434 362 396 332 263 199 186 170 184 173 164 129 73 73 72 15 3 -53 -10
-31 33 72 67 142 121 147 153 146 134 146 169 128 190 -66 -59 -8 33 69 47 12 116 238 423 485 449 380 360 324 249 205 186 157 169 179 193 170 142 118 77 25 -31 -21 -60
36 11 69 126 174 182 198 178 155 150 270 228 82 105 13 -45 -16 35 46 30 27 91 278 366 468 422 351 367 319 241 202 197 161 156 159 191 186 186 168 128 49 59 22 -16
67 76 136 85 124 109 125 141 162 183 152 99 86 39 -41 -170 10 68 88 21 35 120 231 313 409 405 343 328 322 223 197 211 182 173 160 159 183 171 148 155 123 100 83 19
66 74 58 53 129 189 101 130 105 95 75 28 31 12 64 99 305 85 19 22 69 149 209 241 331 330 271 301 282 220 178 200 200 173 157 164 166 164 167 153 138 111 109 63
57 66 33 16 171 104 136 136 79 90 89 -31 49 68 166 253 171 234 142 106 158 131 154 224 252 169 163 263 279 247 166 190 191 203 166 148 153 157 161 175 194 169 103 96
65 53 51 24 62 140 169 110 46 44 106 -22 6 70 290 363 321 448 539 390 276 302 227 104 80 76 167 237 272 268 202 156 164 193 204 181 163 160 164 172 174 174 155 124
55 29 6 23 22 120 177 143 160 36 45 64 61 -15 107 381 443 664 514 401 560 518 448 240 133 135 118 141 212 291 242 211 197 174 178 185 167 140 168 175 146 147 164 161
46 49 41 77 74 115 167 125 129 39 50 -46 58 17 52 21 381 575 599 320 371 436 558 498 424 339 172 27 46 71 84 81 151 232 183 163 183 165 142 149 156 139 136 149
81 19 11 34 46 -24 -6 6 -4 59 50 -9 8 39 -15 -14 48 537 618 266 66 205 322 391 405 393 327 249 220 147 72 39 118 221 237 245 205 195 182 200 230 214 197 188
88 -3 18 27 33 12 3 7 -25 -33 14 34 55 -11 8 -15 -6 224 388 265 67 71 20 154 238 278 269 243 227 210 180 130 69 137 198 255 307 300 244 186 214 261 288 262
102 27 41 25 58 38 -34 35 10 -39 9 63 9 -50 33 41 23 98 55 321 77 100 88 34 5 99 185 202 264 269 229 172 118 159 84 95 115 216 292 328 344 278 238 254
98 77 45 -21 45 72 -12 40 -46 39 -22 61 27 8 -11 18 9 21 -7 65 80 119 131 96 84 62 75 140 184 223 276 244 225 212 220 221 230 128 99 203 250 307 346 327
93 92 48 50 89 -14 29 71 44 -19 13 20 -3 29 106 113 244 56 80 136 129 93 99 87 81 92 115 111 131 97 151 214 217 219 220 198 174 127 159 202 120 221 290 364
104 127 129 36 12 52 65 125 166 76 59 109 13 132 104 178 341 337 301 225 140 94 53 43 37 38 47 107 118 102 110 108 154 229 221 214 205 215 169 127 121 147 143 265
103 127 127 108 17 -12 54 93 37 63 120 186 229 146 211 317 284 260 215 173 153 72 37 41 59 47 83 105 65 56 91 137 175 169 147 126 114 136 166 199 147 91 114 121
47 115 110 120 84 83 26 54 144 94 107 176 353 408 410 416 334 240 186 160 114 102 112 102 83 76 85 77 53 48 53 63 68 76 59 54 50 59 74 104 119 103 83 118
2 -19 88 128 90 61 56 37 87 111 275 293 343 352 466 402 305 235 162 141 135 126 110 66 31 40 56 57 45 47 52 58 52 35 13 5 11 14 13 36 66 117 109 73
15 155 177 110 88 109 91 108 230 242 301 311 331 291 209 261 301 211 127 86 72 62 47 37 24 21 37 26 16 27 43 57 57 47 24 10 12 39 42 50 76 91 111 83
-53 41 79 68 90 164 227 258 291 352 303 269 219 273 299 223 181 104 89 79 63 75 62 39 48 37 34 27 15 13 32 32 35 42 47 35 23 25 73 54 72 89 80 110
9 -0 30 101 233 226 227 224 283 402 327 221 179 170 98 76 112 116 115 100 84 73 60 50 47 53 58 31 34 58 59 36 33 48 57 40 39 64 54 87 132 88 152 104
28 -7 -56 17 81 224 232 179 74 81 209 189 86 57 120 112 98 89 95 96 90 75 64 64 77 97 88 76 96 111 99 89 87 108 126 136 133 149 112 68 114 348 385 392

GFSCGP_con_3kmhel_087.txt.gz
Helicity
124 146 180 158 172 163 133 124 94 99 98 35 11 -36 -9 -29 -43 21 36 -16 49 87 88 237 366 369 377 315 299 229 244 247 264 222 235 194 84 35 59 111 77 244 189 224
164 128 100 94 105 114 121 107 84 57 68 89 -22 -133 -65 -43 -16 -29 18 25 34 14 138 285 359 368 361 334 292 258 215 239 238 192 201 174 71 54 48 57 61 193 296 303
119 78 69 99 112 122 123 109 92 60 87 54 8 -133 -129 -78 -5 -45 -31 -0 49 59 146 302 369 382 368 316 294 281 230 215 233 208 198 185 103 53 78 99 100 69 238 287
60 73 75 114 101 99 91 95 95 96 66 48 103 5 -39 -86 -76 -10 -34 -16 74 75 90 259 412 414 365 328 265 263 243 204 188 228 206 206 99 73 50 74 103 80 204 284
91 102 120 110 71 96 68 91 87 79 80 97 163 174 27 50 -29 -2 63 6 75 104 136 276 368 393 409 399 281 253 271 201 194 173 172 160 113 75 73 63 80 74 131 150
109 121 158 104 148 102 72 77 63 71 110 117 131 185 30 76 21 6 71 66 77 103 119 206 306 494 447 401 286 266 258 164 188 152 164 132 106 119 96 82 63 63 31 114
78 62 59 107 118 138 138 128 77 77 108 163 89 83 157 37 86 58 61 120 64 61 115 183 324 441 460 394 301 291 232 151 170 137 137 115 106 108 90 80 71 71 89 117
120 130 83 81 85 90 101 109 63 41 57 63 32 58 88 86 76 63 95 186 95 27 79 99 302 455 476 392 317 290 257 159 167 124 112 89 96 81 66 94 91 83 59 16
133 150 61 61 124 145 64 91 98 106 96 80 143 87 51 23 210 160 157 131 75 42 48 -39 260 399 395 380 288 309 232 163 151 134 111 112 102 90 59 59 89 89 76 31
104 138 88 69 95 148 99 94 68 54 87 113 65 31 85 119 272 394 247 228 80 64 36 93 241 249 292 261 268 271 220 181 157 129 119 112 121 112 85 45 41 58 64 89
83 103 106 73 43 102 131 127 126 80 32 68 64 11 73 247 381 538 373 202 103 117 71 108 156 172 182 159 175 207 181 149 150 152 143 126 130 124 110 83 49 38 22 58
94 57 97 55 27 32 130 99 118 104 89 67 19 -23 56 45 485 628 609 334 213 173 168 196 149 176 135 141 139 170 148 96 120 149 138 140 130 125 131 136 111 93 79 57
132 83 81 96 91 155 136 107 107 69 60 143 6 -32 26 -4 203 650 713 597 207 309 428 397 384 269 121 69 66 74 86 76 87 113 148 150 160 165 155 131 158 166 131 100
88 63 45 70 84 45 28 13 12 5 88 40 6 -59 -89 -137 -16 220 576 717 342 357 395 423 426 370 333 314 309 247 165 59 74 93 142 158 156 183 166 143 131 127 138 146
65 19 19 27 41 37 17 -3 15 54 39 3 -19 -17 4 -110 -95 -9 279 500 322 439 388 389 366 406 402 368 339 267 253 237 139 84 88 92 114 136 190 206 171 169 149 165
72 10 29 4 37 32 1 10 36 18 28 -3 -15 -7 -10 9 11 29 120 112 149 221 403 346 283 319 327 317 273 222 219 231 241 344 265 146 86 87 100 140 175 187 202 219
61 16 -28 -60 14 23 1 15 32 30 71 31 -17 29 10 27 41 28 134 131 106 158 165 136 201 193 119 188 147 168 181 192 224 228 245 241 231 229 271 219 111 132 161 193
24 27 7 -36 -25 -9 28 42 60 -6 41 37 -5 20 26 63 161 179 91 147 134 84 90 131 69 96 112 114 132 119 151 199 235 273 278 253 223 198 185 179 177 200 199 110
96 103 52 22 26 41 -0 31 33 22 70 65 42 14 180 138 233 166 201 204 139 131 85 78 48 67 89 117 84 99 124 132 158 213 242 253 242 210 196 195 179 164 149 138
86 96 100 91 64 22 20 37 64 65 49 60 68 271 249 145 160 91 187 239 141 105 74 99 95 90 97 117 78 78 81 98 124 139 149 165 176 175 180 157 139 129 126 129
71 75 78 90 98 79 51 10 -48 30 62 85 247 242 200 180 165 179 182 153 101 86 72 67 73 66 85 111 83 86 93 103 78 64 45 50 79 86 109 114 108 103 91 91
38 49 35 43 88 99 102 46 79 53 216 191 240 281 340 309 361 221 196 155 117 93 73 77 68 75 92 106 92 100 123 97 82 66 45 43 39 35 43 73 102 111 101 73
47 39 27 74 71 215 176 137 192 216 252 257 238 292 227 196 216 257 205 189 177 118 70 58 61 75 114 112 106 104 97 79 66 67 64 58 54 71 85 104 118 104 99 84
3 -34 31 59 125 199 183 194 215 224 233 245 219 203 202 219 241 157 147 154 124 70 61 67 61 94 121 111 111 103 103 76 69 79 87 77 66 80 158 164 177 198 186 146
-29 -17 -5 112 235 213 294 238 182 199 225 247 249 231 190 164 190 158 86 46 74 86 100 94 96 105 111 97 113 134 126 90 75 85 77 66 33 29 78 202 247 237 296 218
44 45 -0 22 21 112 262 226 200 161 180 219 143 179 162 151 81 55 78 63 75 84 81 98 101 91 98 106 115 127 117 93 65 72 82 88 78 92 98 96 129 287 326 380

GFSCGP_con_3kmhel_090.txt.gz
Helicity
190 203 218 224 161 156 143 134 121 110 98 84 64 17 7 19 -12 6 39 36 30 39 55 56 85 251 333 252 283 306 307 256 265 244 195 177 198 116 52 85 98 107 92 190
206 136 139 103 121 132 117 112 108 74 45 69 28 -52 -39 -19 -10 7 27 42 30 62 58 36 104 201 266 264 264 263 280 299 245 239 163 182 213 106 67 54 18 56 156 177
151 100 84 111 135 153 130 119 94 73 64 52 -0 -107 -59 -22 -13 -13 21 48 42 20 34 38 98 161 227 267 275 270 250 290 232 210 163 212 235 130 71 38 46 65 172 165
103 77 75 105 124 137 128 78 72 85 81 45 21 -153 -116 -72 -19 -43 -29 44 39 32 40 31 96 96 135 232 298 255 214 269 211 204 173 182 191 139 75 58 90 122 110 205
93 76 118 129 73 114 119 85 89 78 51 37 14 16 -99 43 44 43 35 76 65 35 51 66 120 104 245 185 317 282 213 213 216 210 164 168 155 94 126 100 95 141 81 151
89 89 88 120 205 130 126 144 99 78 58 71 1 63 -46 15 49 67 111 145 205 110 65 84 151 190 273 304 240 264 233 184 207 190 144 161 165 136 108 91 97 99 82 192
156 121 142 143 250 238 153 133 145 134 96 38 46 58 106 97 4 67 118 127 188 122 125 116 200 221 258 314 301 241 239 191 211 165 129 121 144 139 110 75 68 87 116 107
132 136 100 95 90 84 137 126 105 57 39 52 44 72 5 34 47 26 123 130 101 131 164 125 170 213 237 304 338 242 229 220 219 154 119 85 118 116 91 90 59 49 75 107
134 189 110 109 98 80 110 131 87 96 49 78 71 72 69 89 99 125 100 161 119 165 222 135 157 205 273 282 305 267 240 179 165 121 133 82 57 83 51 69 41 27 66 120
120 196 157 105 134 217 94 48 106 78 22 29 12 61 70 41 55 190 193 138 120 232 255 89 117 200 245 242 204 213 199 138 169 116 78 60 29 77 58 63 63 64 56 60
122 158 164 100 102 78 95 113 126 76 54 42 16 11 14 5 -2 40 198 211 82 221 236 92 140 150 179 181 149 154 148 132 141 112 94 72 55 63 80 65 67 55 50 79
156 138 186 152 120 58 84 75 88 61 43 61 79 26 41 -29 -42 82 350 397 109 157 295 235 80 126 207 137 153 106 137 110 100 109 104 78 64 69 70 61 56 52 50 58
128 136 159 129 123 185 149 77 54 54 43 34 52 72 9 -20 -13 -52 225 425 178 244 262 311 349 277 159 199 155 84 69 105 74 85 101 102 95 103 87 86 73 61 62 62
104 127 115 125 103 97 94 109 49 35 30 31 67 72 -10 -34 -31 -55 -75 184 297 281 238 319 387 464 401 402 314 265 249 130 90 102 118 124 124 134 130 138 135 109 96 79
70 61 55 60 59 38 40 37 17 23 78 43 86 6 -15 -11 -39 -70 6 58 345 539 382 365 442 429 433 413 353 326 300 277 117 89 67 69 83 109 97 92 100 135 135 120
43 -2 -1 11 40 48 12 36 32 32 26 75 22 14 -17 26 4 35 45 101 130 444 507 418 429 426 445 451 429 342 310 263 286 309 283 279 293 173 123 84 78 107 96 105
3 -18 -29 -23 -8 -0 -6 20 76 38 26 80 62 24 -9 25 54 36 149 176 169 160 394 551 571 449 476 514 403 313 205 223 192 219 210 211 200 192 203 194 216 275 241 165
1 3 4 -16 -33 -12 2 89 57 52 9 15 33 56 37 55 54 340 187 129 128 126 137 117 216 334 325 128 79 85 133 168 180 215 221 216 198 189 188 177 172 185 173 178
19 42 28 17 -1 33 23 34 65 30 50 33 40 40 154 193 117 140 117 106 99 95 112 116 128 104 48 70 79 73 113 132 156 186 186 196 199 186 178 180 189 175 168 160
43 53 50 31 14 -9 -1 19 39 -27 15 39 27 32 203 128 11 7 77 119 92 18 33 59 33 19 39 55 50 45 58 81 125 147 157 154 155 158 173 172 167 156 140 136
55 44 26 35 28 25 26 -26 1 45 54 29 70 99 163 175 142 174 144 216 123 105 72 30 34 21 39 56 25 31 59 83 72 86 113 129 141 138 156 141 142 163 155 139
30 26 13 20 25 25 56 7 44 67 125 89 92 107 169 270 305 283 282 228 170 146 99 75 64 74 90 93 80 67 71 69 54 40 51 63 91 107 135 161 160 164 163 152
46 20 28 14 36 156 145 98 139 151 176 157 127 145 109 191 256 211 88 86 216 178 120 82 50 49 72 100 112 107 106 79 72 66 72 57 41 28 59 113 143 141 163 157
39 32 19 21 124 213 157 132 142 141 165 147 128 104 107 96 101 151 181 138 95 117 63 68 44 78 86 104 116 124 132 103 97 102 105 94 96 103 136 141 182 219 210 205
38 14 11 -5 38 74 191 216 141 162 157 156 165 146 105 74 69 50 49 59 59 61 31 52 65 85 102 104 111 127 131 96 93 110 120 134 127 113 154 216 225 230 271 226
15 53 49 15 33 48 83 130 144 108 131 133 91 114 139 172 196 126 108 75 59 60 59 60 62 66 72 88 109 129 128 107 89 104 115 131 124 109 105 100 147 280 274 297

GFSCGP_con_3kmhel_096.txt.gz
Helicity
188 240 216 149 150 138 185 182 103 89 99 143 78 88 100 89 81 100 85 75 60 53 36 32 38 69 96 75 84 99 150 189 280 296 277 224 176 162 152 151 94 31 116 181
177 163 128 76 90 113 163 135 164 75 94 69 83 90 90 101 91 68 55 54 49 53 65 60 54 54 35 70 90 86 132 190 227 236 200 179 158 140 110 128 59 57 126 108
109 89 87 82 114 78 56 64 88 114 72 49 76 71 49 30 32 30 73 119 147 140 115 89 71 61 62 58 83 69 121 177 169 185 213 183 136 141 120 127 69 115 185 162
65 66 98 86 63 44 102 18 48 64 107 106 116 97 115 78 56 63 178 190 155 137 130 127 100 84 66 66 82 49 146 150 147 188 211 173 146 135 84 128 39 111 126 82
112 88 154 91 38 35 44 42 35 39 71 122 80 84 66 63 99 127 96 114 121 155 154 149 114 124 95 86 78 43 153 122 158 173 182 153 101 96 88 136 86 73 106 87
76 92 65 61 43 1 30 27 42 55 69 141 71 73 58 87 101 71 78 87 110 122 152 205 147 90 131 121 85 73 145 123 143 161 169 139 105 100 77 151 96 98 113 152
100 61 72 32 69 75 12 34 103 135 150 147 65 70 94 45 37 44 57 59 67 106 130 169 240 151 88 114 83 101 145 119 131 152 153 143 106 93 44 134 119 114 114 149
90 95 66 26 34 73 11 10 82 152 144 104 48 69 59 28 39 60 52 45 39 56 71 138 203 205 146 100 69 106 104 98 117 152 155 151 107 97 25 103 109 87 83 109
34 69 46 17 46 61 63 42 99 92 83 81 47 42 6 -27 30 56 84 63 56 93 101 118 197 213 151 92 77 89 89 108 131 130 156 166 121 61 30 73 75 78 72 74
55 102 47 87 84 102 44 78 58 82 47 57 37 49 82 52 61 68 57 48 66 77 83 119 209 324 114 80 93 107 130 167 180 147 128 153 124 44 40 61 82 79 68 61
54 65 82 90 73 63 104 73 93 77 95 80 81 53 66 46 22 16 41 38 36 24 116 123 252 402 141 78 122 138 122 157 186 159 114 122 112 64 75 36 76 56 62 49
74 78 65 94 113 87 71 60 57 62 41 77 58 47 35 11 11 7 -8 22 -12 4 39 103 203 310 267 98 82 104 97 155 178 157 115 106 116 81 89 56 74 60 41 34
119 64 104 77 75 85 85 90 100 104 64 34 54 59 -16 8 15 9 -15 41 22 -18 68 166 260 371 300 350 119 71 134 180 159 119 129 104 111 102 89 64 58 68 47 33
171 116 72 89 75 78 85 77 65 71 61 60 36 51 33 13 20 13 55 86 49 -7 52 195 378 399 370 338 326 408 337 203 198 169 178 160 132 135 115 71 86 79 65 52
222 161 106 110 124 97 80 66 54 44 37 43 61 54 42 48 12 7 149 99 75 101 87 219 439 490 423 459 446 397 464 510 400 340 329 256 176 185 160 107 100 95 85 71
453 265 165 174 110 93 88 75 51 38 34 22 16 20 38 36 40 136 149 105 91 103 126 77 363 613 558 485 438 442 407 471 478 481 491 513 439 332 303 272 279 249 210 175
25 76 166 138 93 87 68 87 62 46 61 49 66 58 32 55 31 58 61 57 64 83 117 145 26 285 568 538 487 603 522 478 490 439 410 386 441 406 294 235 215 211 212 212
17 6 20 53 61 95 74 95 121 76 72 91 85 68 48 89 88 112 63 28 68 99 107 107 98 43 398 712 729 512 345 395 375 414 413 368 410 596 471 228 213 181 179 202
25 19 42 37 55 53 59 79 94 90 46 63 77 85 101 77 79 93 60 78 36 27 -23 -21 -5 55 6 98 148 233 255 254 252 296 328 303 389 305 352 195 212 171 196 206
16 23 30 25 60 84 105 127 87 45 32 73 85 109 21 30 24 40 58 63 78 34 2 -2 -5 1 43 48 18 213 386 359 311 316 298 303 191 252 141 214 159 114 114 144
25 18 46 57 64 59 113 124 128 53 66 -25 17 80 89 104 63 113 112 89 101 84 35 12 20 13 28 37 29 16 11 60 81 58 88 91 96 103 88 87 126 127 138 142
46 34 47 54 57 66 50 38 33 33 50 12 47 46 43 18 21 71 117 120 131 76 24 25 31 42 43 56 52 55 59 50 34 38 46 56 72 80 74 82 101 113 117 128
50 66 54 54 45 28 24 46 52 60 59 79 50 33 30 15 23 24 28 59 58 24 41 46 59 30 60 67 61 59 63 67 65 77 88 94 85 97 126 117 104 114 136 132
35 34 32 5 27 36 41 21 33 58 67 77 67 47 36 31 29 42 45 47 59 93 82 70 70 67 63 68 66 61 52 50 58 74 84 93 114 120 120 114 158 162 148 140
41 27 39 28 11 8 46 74 63 54 48 46 57 68 60 49 58 56 70 87 84 87 87 95 78 72 86 73 78 78 71 50 52 56 66 80 83 96 118 167 159 152 211 187
43 40 51 48 44 60 57 56 47 50 61 64 63 69 67 52 51 40 49 59 78 83 80 89 94 86 86 88 95 106 106 77 54 58 58 55 51 55 68 83 116 219 237 245

GFSCGP_con_3kmhel_102.txt.gz
Helicity
71 96 221 190 172 170 122 105 64 62 143 98 108 47 47 28 54 27 68 94 50 28 60 61 72 66 51 99 97 155 278 331 254 214 230 262 293 284 202 151 152 236 214 174
55 25 67 55 59 86 95 66 55 72 157 200 53 108 72 75 29 76 76 93 48 86 107 68 53 83 85 97 161 162 182 315 336 264 226 253 246 217 186 156 167 155 161 178
12 -28 -24 25 68 36 34 71 49 58 77 177 210 135 188 37 49 41 89 47 45 69 40 25 86 139 185 144 122 191 242 342 366 285 261 246 201 200 183 170 157 170 193 219
-28 32 28 -23 42 8 20 2 18 41 53 38 126 121 180 18 73 97 98 98 93 80 164 192 178 173 183 180 161 99 175 232 378 425 304 202 234 254 215 210 182 162 253 296
-15 57 15 43 -0 41 33 22 31 19 6 -13 72 165 204 1 34 98 48 160 268 215 232 278 273 254 181 181 157 120 117 115 368 457 328 178 151 169 135 159 151 271 298 268
76 -8 15 9 16 16 42 144 117 80 26 65 68 77 76 70 19 133 172 180 168 207 202 260 336 351 332 281 283 236 125 152 334 386 292 177 130 185 139 150 247 300 242 236
13 68 88 49 38 43 109 44 133 149 82 19 99 139 97 127 57 174 199 125 190 247 247 239 252 199 166 171 126 255 187 147 342 324 243 164 197 130 144 205 266 265 272 261
95 3 59 175 37 104 77 109 220 173 85 16 22 48 137 145 113 159 167 286 257 191 170 143 112 96 94 107 167 149 284 140 303 282 244 144 197 144 200 244 228 269 234 208
-27 -30 -23 58 76 87 23 88 75 54 65 51 61 176 37 56 -13 197 241 216 229 202 106 54 81 63 119 132 111 81 86 209 347 268 188 172 161 135 241 177 233 260 225 229
33 53 26 51 74 109 61 6 47 35 71 92 88 40 128 148 145 175 206 161 166 137 95 88 82 71 134 192 247 213 108 341 347 238 78 138 144 197 213 196 252 209 192 214
3 5 -19 78 68 9 65 41 9 40 56 87 49 116 125 217 125 83 116 112 82 63 67 99 106 98 152 254 373 610 249 239 195 97 43 156 210 235 221 197 172 173 185 196
-23 -13 7 -1 60 52 29 54 17 79 103 -50 95 56 41 99 101 86 48 30 56 52 61 80 111 109 126 267 444 504 558 182 102 47 144 195 372 223 200 158 164 198 191 163
123 11 8 24 48 10 59 28 52 30 45 71 125 31 45 47 34 22 40 52 48 42 34 68 119 156 156 166 386 456 424 459 149 115 157 188 277 227 194 164 146 180 188 148
74 27 15 33 72 46 -4 -0 17 69 22 137 60 11 37 22 3 17 27 36 31 27 9 10 55 137 157 101 257 354 392 540 488 137 133 177 162 224 157 153 186 177 164 154
-11 -10 65 51 62 -4 5 20 25 76 93 51 78 26 23 2 2 6 7 23 36 37 33 30 41 76 138 87 159 364 432 489 483 513 479 451 271 209 190 199 138 146 155 123
132 120 130 191 72 -0 86 134 67 55 114 77 72 33 3 -19 -12 9 30 21 16 20 54 60 70 60 60 153 91 210 400 423 445 563 620 640 556 498 402 367 349 352 387 389
303 105 107 191 61 90 250 137 93 185 224 207 173 73 -16 -12 35 45 31 6 5 10 13 23 42 39 52 49 151 -19 229 374 467 504 571 667 662 600 504 497 511 503 431 398
263 285 161 69 145 143 106 66 95 121 185 184 151 106 56 18 36 60 40 31 18 18 7 -22 -22 12 22 27 56 162 -8 255 353 436 460 508 541 594 563 537 565 599 511 476
49 291 198 145 83 58 109 172 269 84 91 187 126 71 29 17 -2 26 56 53 37 12 20 14 -1 -28 -20 -7 -12 38 114 1 239 468 412 389 381 438 561 587 607 569 547 548
18 50 87 99 44 50 80 159 170 176 46 106 71 74 44 23 43 26 55 84 88 72 30 26 23 13 21 2 -10 -12 21 100 50 248 351 317 378 307 362 457 463 437 569 505
56 49 79 74 29 30 164 179 123 94 76 68 62 68 104 46 27 30 29 61 60 84 59 37 25 26 40 36 24 48 7 4 48 60 85 177 210 289 302 227 174 196 267 284
52 96 51 83 53 29 163 50 82 67 50 64 69 66 71 55 57 64 48 34 31 25 31 26 24 30 42 54 51 42 61 22 13 28 31 53 128 168 167 175 137 87 126 153
48 40 30 58 44 37 42 46 50 58 63 68 67 31 12 8 3 -6 -13 -30 -27 10 11 26 43 52 43 52 65 89 33 33 44 24 47 61 98 118 105 154 185 124 103 101
15 46 21 -0 50 47 46 41 39 35 32 40 37 33 9 -7 -10 -33 -20 22 46 55 51 56 63 71 67 60 73 96 93 30 36 42 44 64 106 141 174 160 181 186 166 148
50 43 38 35 38 38 40 38 49 47 46 39 35 44 43 36 43 54 54 48 50 64 68 69 72 70 83 79 86 91 104 91 59 69 65 60 58 70 105 165 173 168 208 194
48 39 43 49 41 42 46 41 36 32 35 35 42 41 48 68 67 75 80 83 80 76 72 69 87 83 88 101 111 123 107 105 99 79 82 94 80 54 47 50 93 181 176 187

GFSCGP_con_3kmhel_108.txt.gz
Helicity
110 222 170 124 118 60 72 70 129 126 54 146 101 114 175 141 104 78 87 112 133 120 114 124 132 169 190 246 252 281 321 346 447 423 399 315 250 275 259 239 229 197 163 180
162 156 63 67 64 13 20 27 47 82 62 49 126 154 52 55 98 118 101 123 101 138 132 60 96 133 114 58 179 303 315 384 459 386 364 327 303 244 262 247 223 195 181 169
177 159 61 78 109 63 -37 -3 56 41 78 19 46 79 92 8 42 65 89 69 43 52 6 137 198 251 323 256 228 235 265 302 404 370 439 430 374 339 291 248 249 240 225 201
184 106 76 58 57 65 -7 16 -21 -28 67 -6 25 51 39 51 33 49 55 20 67 163 338 537 555 523 637 603 593 488 214 179 237 295 354 386 370 350 269 299 322 254 223 207
258 42 57 -45 -15 36 71 91 120 33 45 -15 35 24 41 82 44 18 35 184 370 393 577 524 586 686 692 658 689 561 520 464 332 172 237 320 273 239 294 318 289 265 231 208
153 87 16 62 112 1 44 54 22 51 56 -4 8 47 -33 9 33 32 338 494 538 514 468 487 315 398 450 414 434 486 509 469 456 399 208 233 260 270 309 280 284 227 148 203
91 98 59 74 33 7 -5 6 16 3 1 -40 -7 30 44 -9 98 330 378 553 568 495 557 541 417 301 368 388 355 301 304 348 378 346 313 206 225 267 299 313 284 241 186 197
45 24 -10 -17 9 56 -21 31 4 19 49 30 10 -21 -40 265 472 396 545 477 494 398 386 376 352 296 308 306 229 175 160 231 205 254 212 201 226 284 299 323 307 227 198 223
74 60 27 85 128 -13 25 26 -18 -4 18 27 18 15 229 394 371 417 365 528 591 409 332 368 296 201 171 155 166 127 108 113 143 222 185 175 208 311 321 306 336 235 196 241
160 227 54 33 5 11 27 -16 -12 -21 -16 27 5 54 -3 355 408 216 400 502 468 405 380 335 276 261 241 202 215 224 156 156 209 321 199 220 236 308 306 356 316 250 195 199
42 135 28 -5 -7 14 11 13 -11 -59 -98 -93 48 60 158 68 271 189 128 457 380 265 223 246 254 264 251 256 316 314 223 230 293 330 366 212 228 240 264 255 267 287 222 202
-51 -21 6 -19 -66 -76 -18 -4 -24 -92 -74 -40 -13 178 164 73 102 213 165 57 24 83 160 197 210 228 257 259 285 297 257 275 326 341 440 242 177 156 203 267 281 307 251 203
-41 -54 -32 -38 30 -15 13 -1 -24 -9 -4 29 102 84 24 19 54 59 29 26 66 125 200 240 249 240 244 262 246 259 220 313 271 280 325 364 310 157 134 215 297 276 266 192
-66 -66 -78 16 65 100 17 28 19 -12 21 89 55 35 117 113 53 27 42 77 121 144 179 193 196 184 182 229 233 252 249 184 197 195 227 312 344 336 225 205 235 268 220 172
-34 -1 -7 -31 46 73 142 102 98 46 23 166 40 93 66 34 46 75 81 94 92 125 125 112 117 150 165 179 202 201 158 173 205 167 139 264 303 332 347 380 193 189 185 136
-5 132 151 76 237 407 289 501 279 216 66 29 25 31 4 20 33 47 41 38 49 42 16 24 22 35 52 100 152 214 230 141 101 110 124 171 257 362 390 532 590 649 494 385
99 107 172 103 178 270 392 122 158 204 190 51 46 -42 -24 27 48 58 51 49 49 33 13 5 10 6 12 40 57 101 180 143 167 250 267 154 157 263 452 332 564 673 472 427
146 85 68 133 141 160 30 48 64 88 117 99 32 12 20 20 36 61 53 38 33 4 -6 -23 -21 -3 5 2 14 13 25 62 76 131 243 233 199 135 458 432 580 562 741 699
58 27 28 61 128 47 71 93 81 32 88 88 48 2 -1 -6 -0 84 68 41 28 -9 -29 -18 -5 9 12 30 3 10 31 21 39 80 93 249 211 204 203 391 400 627 496 713
59 58 79 121 105 71 77 143 19 -91 28 42 31 14 8 -45 23 36 46 47 34 2 -7 -2 27 29 35 29 22 -3 33 34 23 17 58 65 130 180 210 131 162 430 333 365
102 67 116 122 63 71 127 165 39 27 27 36 23 25 42 23 3 -18 -6 45 26 27 11 -3 14 26 39 43 42 47 37 39 28 18 12 36 63 93 151 150 154 150 202 163
52 85 84 63 68 73 137 38 45 25 26 9 10 8 5 -15 -15 -10 20 43 37 24 18 11 11 37 55 70 55 53 39 26 23 25 39 52 56 51 68 92 96 135 114 98
48 34 23 47 29 21 24 42 38 30 39 43 15 5 -3 -8 20 42 44 42 38 30 24 24 38 69 85 94 98 84 45 14 21 34 52 69 67 87 93 84 62 58 94 127
30 21 23 14 17 26 23 27 36 15 9 22 40 -4 1 13 59 62 58 40 27 16 12 8 19 45 66 83 99 96 76 36 30 22 39 48 70 95 100 108 117 107 121 104
12 16 15 26 23 28 31 32 37 48 52 72 96 141 106 123 96 66 53 41 30 23 20 24 37 45 61 62 74 86 86 64 52 57 32 35 35 50 69 105 122 118 137 111
27 12 7 12 11 9 18 10 18 43 48 54 62 94 105 73 65 59 55 44 38 32 36 44 57 60 71 86 98 111 110 88 66 63 59 52 28 38 42 48 77 162 159 187

GFSCGP_con_3kmhel_111.txt.gz
Helicity
97 205 181 112 183 120 104 89 73 65 14 59 95 97 102 71 62 112 74 41 123 132 137 117 108 122 174 137 183 260 286 267 352 361 327 278 201 225 202 206 208 202 226 212
197 183 137 126 105 102 89 120 124 67 120 16 -12 59 109 108 57 106 117 80 56 135 121 116 243 271 271 235 185 165 221 337 336 352 321 327 316 258 239 257 222 201 231 238
150 177 126 136 120 102 136 118 104 102 44 -15 20 33 43 84 73 62 61 127 50 112 122 156 181 346 408 454 456 283 207 260 265 282 343 431 441 344 306 213 216 219 236 257
84 72 75 77 97 80 98 105 115 48 38 -10 32 48 -33 95 172 77 19 108 219 211 309 362 460 529 464 448 429 505 399 224 246 271 278 345 365 325 237 236 262 211 226 244
147 119 146 93 102 59 88 53 91 129 84 22 38 64 -140 52 68 153 194 297 336 401 438 490 529 598 707 625 532 572 522 413 459 255 190 242 246 265 275 258 220 230 200 224
194 172 95 89 73 73 80 41 94 113 30 3 19 -17 17 80 35 136 286 495 460 464 517 602 586 565 713 545 566 575 584 457 406 419 343 189 211 231 265 251 263 247 247 236
55 61 60 102 52 26 15 -13 -14 38 129 133 -14 -9 85 -5 104 185 264 415 587 572 486 560 577 632 639 633 637 584 590 521 440 419 357 312 215 221 206 288 326 311 299 301
71 124 80 104 88 -23 4 -1 45 -42 31 21 5 10 -12 149 228 286 293 357 473 588 639 524 484 440 491 485 505 491 452 491 365 290 302 294 244 219 226 235 279 301 277 266
78 127 95 39 101 5 -19 -13 36 58 176 16 -5 34 181 183 306 251 497 518 609 639 642 587 306 360 315 249 227 246 278 304 298 256 231 213 154 179 212 228 264 284 281 291
100 101 21 50 2 -55 -21 -37 -26 16 -24 40 20 -30 2 134 358 430 300 733 693 617 558 463 386 315 254 243 161 142 141 122 170 247 260 199 142 155 173 199 233 299 300 299
50 62 -8 -63 -52 -43 -21 -47 -49 -35 -53 -49 -63 -46 11 40 43 171 224 155 797 573 518 496 342 287 236 288 252 128 206 254 255 227 276 370 291 189 217 259 265 299 299 312
33 14 3 15 -1 -23 -47 -10 -35 -27 -19 -15 -13 -32 29 19 32 49 174 155 206 457 342 382 286 236 275 223 299 308 354 363 366 376 394 425 494 524 293 245 235 264 234 236
-3 -84 -66 -42 -70 -29 -26 -19 -12 -73 -18 27 -2 43 -4 -11 33 41 48 117 101 137 205 260 277 297 331 323 337 397 407 410 411 369 336 311 376 385 394 315 159 183 203 227
-4 -20 -6 60 93 -0 5 30 1 -23 13 173 123 56 8 26 36 67 83 113 144 167 186 221 239 226 225 237 272 333 376 325 266 207 224 211 199 225 259 246 273 134 170 201
-6 16 94 156 216 268 272 158 41 39 94 128 48 67 32 33 47 46 70 77 55 83 124 151 206 224 196 189 208 252 310 286 261 205 215 225 206 166 186 249 278 362 167 191
6 131 48 112 130 471 389 447 446 326 94 25 25 47 27 32 16 34 40 27 44 82 75 50 59 92 112 110 113 135 178 239 230 182 157 211 181 186 65 182 174 342 556 586
49 77 22 128 104 248 352 250 166 136 155 56 34 8 16 22 41 56 62 53 56 58 48 46 41 40 53 65 62 66 113 139 174 206 212 269 250 227 167 99 119 153 408 561
40 81 38 71 94 108 11 13 38 83 105 101 33 6 -25 -38 10 42 36 24 26 18 13 5 1 5 13 22 20 2 28 50 75 102 172 227 207 232 246 187 164 263 296 576
12 13 49 41 95 63 4 9 10 52 75 71 -1 -11 -2 -5 -6 52 48 42 15 7 12 11 10 13 18 28 19 21 33 28 35 48 60 93 161 138 166 220 147 246 273 325
35 -17 65 65 117 105 65 90 -18 -38 47 47 24 11 -15 -33 1 11 38 26 7 -0 -0 6 12 17 17 28 18 34 46 36 45 29 23 13 29 68 79 154 171 163 106 107
87 61 129 148 87 73 93 57 5 16 17 15 17 19 40 31 -3 -10 26 32 9 4 13 15 26 22 28 42 31 42 59 80 44 20 8 18 33 22 21 35 60 84 106 149
87 125 140 113 110 87 108 34 40 16 9 13 6 7 15 17 26 32 27 21 11 7 11 15 22 41 51 47 33 35 43 23 12 9 19 25 20 22 46 57 37 62 64 77
79 39 73 66 36 23 33 47 47 39 44 6 4 6 21 34 40 22 6 -2 -7 -2 -0 7 10 19 37 44 40 52 51 33 15 26 25 32 46 51 53 61 82 89 111 98
36 44 17 13 19 23 15 24 22 18 28 44 20 18 57 68 39 23 15 6 1 2 11 16 24 34 44 50 43 25 37 27 12 9 19 14 18 33 59 56 66 83 91 86
11 30 13 22 15 12 18 20 21 50 44 65 105 98 82 67 54 36 25 15 10 11 16 25 32 38 50 53 60 56 45 42 15 17 14 11 3 8 17 47 63 64 107 104
32 14 8 5 -3 2 -5 -0 10 40 41 37 51 66 63 48 42 38 35 28 26 28 32 38 47 45 51 60 71 89 91 65 48 47 38 31 12 16 13 15 46 126 128 181

GFSCGP_con_3kmhel_114.txt.gz
Helicity
78 136 169 167 163 113 142 159 125 79 44 63 71 72 26 26 8 43 96 123 157 52 117 66 59 108 172 237 127 164 234 215 216 213 190 179 174 210 164 193 169 163 165 165
95 88 -23 30 93 128 157 137 113 64 56 70 66 51 54 83 90 39 64 122 183 94 66 54 191 249 238 238 197 173 113 183 185 200 201 220 195 157 200 206 226 168 176 186
88 -4 19 2 16 52 118 139 93 114 94 111 85 89 77 138 54 74 41 73 94 147 191 152 220 280 358 303 301 267 118 143 176 204 285 314 305 283 262 192 199 195 189 194
2 28 39 44 60 105 97 157 126 108 115 143 140 92 16 20 53 34 68 143 268 329 345 306 294 311 378 420 410 391 395 242 164 190 224 230 248 267 223 233 226 226 253 204
42 83 50 59 39 117 122 15 39 62 128 131 277 146 89 49 34 84 207 270 330 377 389 452 432 372 374 418 452 460 431 469 447 414 205 248 245 240 250 283 223 240 198 203
142 132 101 106 90 97 26 44 74 105 155 292 226 198 4 -62 -18 47 109 241 355 362 358 379 430 432 453 460 491 524 447 487 435 410 425 309 213 215 253 235 228 211 226 227
74 6 35 95 92 -15 3 19 17 86 127 99 43 131 46 13 5 71 107 185 283 383 391 391 436 512 508 540 598 609 621 551 499 453 417 353 331 171 189 247 233 244 259 265
60 23 21 126 115 -25 42 34 171 245 369 360 71 26 -9 14 114 120 170 202 231 364 465 446 449 498 534 550 565 546 530 527 527 410 372 290 244 203 150 192 235 266 244 245
34 75 110 74 2 -53 -63 66 8 122 100 152 19 22 -7 80 125 244 229 391 362 358 461 526 470 503 518 537 530 510 464 415 394 372 329 305 251 185 152 152 202 210 224 251
35 36 70 45 61 43 -62 -86 -59 -53 -25 -15 -68 -80 -26 10 108 195 372 412 633 531 489 530 554 478 480 555 507 416 372 325 307 279 255 239 221 192 123 163 150 193 219 255
35 75 84 -36 102 -79 -64 -49 -42 -21 -41 3 -22 -64 -21 -1 24 62 97 174 351 615 587 546 508 450 237 287 367 322 299 290 296 267 243 207 193 220 204 148 131 146 178 191
54 45 59 151 81 69 63 -59 -56 -14 -1 60 -54 -41 -6 16 3 13 74 111 157 400 475 562 531 596 420 394 316 294 328 288 241 196 151 179 244 313 359 402 445 212 225 225
14 41 28 -9 21 43 8 -9 -1 -15 99 12 10 -15 -2 21 20 42 77 106 120 237 479 342 292 389 334 329 363 371 346 377 392 403 383 365 366 406 431 426 422 376 229 251
-14 24 -12 -20 10 33 9 -4 36 48 54 169 112 43 24 25 47 40 96 68 114 158 467 475 379 325 306 267 313 370 401 400 380 375 381 398 395 301 319 310 330 272 247 255
-5 7 -19 -39 127 146 296 227 126 88 56 78 51 40 23 18 23 4 16 38 64 123 182 179 186 222 251 283 268 267 302 279 303 284 303 314 266 228 218 217 153 173 131 208
9 -17 1 11 48 207 343 445 300 110 -3 -3 4 12 14 21 7 -0 14 34 53 78 88 101 68 62 101 123 114 144 210 246 207 238 252 327 286 288 237 264 245 152 144 118
19 24 -6 6 71 157 167 264 135 114 140 -8 13 23 12 15 23 44 29 41 56 52 63 71 82 70 64 76 85 94 110 98 105 122 171 261 329 306 296 211 232 217 194 192
8 64 19 38 8 83 78 39 46 48 95 52 -1 -15 -41 -23 -3 24 21 23 37 50 46 52 58 65 76 69 80 54 40 49 59 50 67 90 171 235 278 255 208 183 158 195
-38 10 34 31 67 55 78 34 53 62 56 46 28 9 30 42 18 43 18 10 20 26 22 22 27 31 24 40 40 34 50 56 48 51 46 33 26 68 125 215 253 224 165 191
-6 -3 39 70 89 68 64 45 -11 -0 59 43 39 27 27 -8 15 20 17 4 7 13 14 14 22 13 15 46 26 34 60 54 74 72 44 18 14 15 11 18 67 108 131 150
22 11 93 176 120 98 101 77 24 38 37 52 40 28 43 14 -3 2 4 1 -0 12 17 19 29 37 44 40 19 41 42 61 45 33 29 38 40 30 26 19 22 15 31 60
32 39 70 92 167 168 113 64 44 36 36 23 17 16 15 9 9 4 -5 -11 -9 -8 3 5 -0 9 22 31 20 35 66 36 31 14 15 30 41 47 65 75 73 71 63 52
47 38 73 83 70 38 59 80 70 47 36 11 6 16 14 8 2 1 -5 -11 -13 -7 3 11 12 19 34 36 28 31 37 28 16 28 30 24 22 34 35 56 70 74 84 73
3 50 50 21 14 26 37 54 43 43 34 24 18 33 31 18 14 11 10 4 2 9 11 9 15 24 32 34 30 20 21 31 9 20 31 32 29 34 49 39 53 73 82 59
-2 -0 19 38 17 25 31 30 31 41 39 54 76 58 44 42 40 31 24 20 16 14 15 20 23 30 43 47 50 47 46 40 17 21 20 18 11 13 17 32 52 60 94 94
27 16 -1 -1 13 23 31 34 26 32 29 24 30 45 47 34 31 32 36 35 31 31 32 34 40 37 36 43 56 69 61 39 36 34 29 19 9 9 15 16 15 71 94 145

GFSCGP_con_3kmhel_120.txt.gz
Helicity
88 56 54 136 125 74 40 30 13 -1 38 24 -28 -9 -64 -59 -10 36 63 68 69 77 33 23 61 78 64 180 111 117 105 127 144 97 98 95 121 115 151 107 76 60 99 116
80 66 154 119 103 70 25 34 -4 11 20 3 -7 14 3 45 79 148 87 95 102 101 92 57 29 101 102 158 186 173 112 94 145 147 117 114 127 132 150 111 84 66 78 107
58 132 123 83 76 71 12 23 8 9 9 6 45 22 112 116 111 33 9 16 89 61 91 91 157 98 98 67 6 212 173 87 119 133 152 123 110 128 117 88 66 72 59 81
63 112 96 74 64 35 18 67 45 23 25 27 -30 40 -5 168 138 5 -26 54 71 28 73 108 107 131 79 86 20 155 214 244 127 144 163 177 170 179 110 77 75 88 80 61
131 79 66 60 79 74 67 37 36 14 7 30 -45 97 110 208 38 -82 -32 26 51 61 48 54 70 96 105 95 78 188 261 295 343 173 173 235 125 139 90 75 72 97 114 113
-9 35 65 88 61 50 30 45 38 31 26 3 129 45 154 105 -37 -102 -22 41 18 37 39 81 86 113 162 187 221 241 354 409 463 502 337 148 265 147 125 60 70 104 134 168
64 64 126 56 47 69 58 45 81 54 39 34 98 55 264 188 57 2 -11 30 -5 27 60 84 122 132 180 234 315 277 394 439 500 490 522 552 527 147 109 64 39 59 120 145
80 108 122 93 76 47 26 68 95 56 38 -20 91 70 216 132 93 78 71 31 33 27 97 214 283 215 233 285 297 287 350 366 378 429 486 522 455 337 256 193 179 24 42 114
91 73 67 56 25 37 98 71 130 86 -12 -9 90 156 151 109 82 76 51 25 62 54 159 282 220 277 282 321 342 244 255 306 322 308 370 400 393 336 237 193 177 200 128 130
115 81 63 71 36 23 43 126 81 88 50 -3 56 185 113 49 14 36 -8 22 94 146 193 363 312 331 357 347 367 308 265 255 313 321 248 252 285 274 254 213 215 201 219 212
85 94 65 27 108 36 68 73 84 70 16 8 -61 174 90 96 59 41 56 -4 61 103 228 480 431 366 365 354 350 347 358 249 278 301 292 280 261 262 239 249 240 229 205 231
78 90 40 32 38 64 13 48 -3 51 54 42 -4 153 83 62 31 42 50 20 47 96 111 415 516 462 479 481 457 406 396 362 261 297 312 322 323 338 314 309 309 282 250 256
70 76 46 80 44 51 23 32 20 -7 21 14 -28 110 78 18 6 14 25 31 51 100 145 276 466 561 525 572 510 401 348 362 310 270 278 301 303 307 283 253 244 233 240 250
35 66 58 58 66 20 73 83 84 36 84 120 124 120 58 13 -5 6 22 45 54 69 115 208 299 396 439 568 525 461 333 306 285 250 240 244 262 244 237 248 253 275 262 272
36 73 57 70 130 37 47 77 92 110 100 71 99 71 48 4 -12 -1 21 41 50 89 94 114 203 274 331 491 548 445 361 296 317 290 241 295 264 261 289 326 336 320 351 351
50 77 41 28 49 55 25 69 67 90 106 84 43 37 -27 -16 -3 7 38 41 47 39 45 81 111 161 224 241 302 285 354 317 212 248 240 262 285 288 283 317 308 270 287 324
63 58 43 31 40 38 47 50 64 78 101 55 55 9 -14 6 18 27 42 44 50 71 81 88 98 98 117 146 163 153 156 111 87 114 133 147 189 221 208 192 222 274 243 259
77 55 41 23 27 17 102 69 56 68 67 60 41 19 27 52 27 17 15 36 49 68 83 91 96 86 97 100 105 102 107 122 121 120 124 98 99 94 109 157 212 232 217 198
41 61 50 45 24 48 66 77 62 69 67 61 44 22 28 50 47 47 36 36 29 22 39 45 58 61 66 77 80 91 133 128 123 130 113 109 74 67 72 61 60 60 96 123
68 25 50 58 42 9 129 112 82 79 67 58 51 45 18 13 17 30 21 28 17 15 16 27 33 18 18 29 25 42 66 79 92 87 79 72 70 73 71 68 59 49 29 32
96 73 57 45 45 61 120 159 94 79 84 58 64 70 41 46 44 16 13 17 4 5 14 7 9 15 20 18 22 32 45 62 51 52 60 60 65 62 60 50 52 55 51 49
122 106 93 55 47 60 142 133 157 93 89 75 68 58 54 27 19 22 22 20 16 10 12 10 6 8 17 25 24 34 49 42 36 31 30 34 35 27 37 52 46 41 48 49
130 87 88 77 98 99 140 196 124 84 78 82 64 42 35 32 28 17 14 13 10 16 16 8 11 15 19 27 35 35 30 25 26 26 31 36 41 42 43 43 52 53 61 57
39 37 53 30 50 74 98 111 111 87 76 66 50 33 28 27 17 11 10 17 23 29 28 17 19 27 31 35 40 42 42 35 37 47 52 47 48 47 46 36 40 43 55 54
46 33 55 69 62 44 52 66 69 73 61 51 44 35 28 21 22 20 26 31 32 32 30 29 36 40 51 50 52 54 55 56 59 61 62 67 52 59 54 45 39 35 47 66
20 25 35 52 26 57 39 39 31 39 36 26 26 28 29 21 23 20 24 25 28 34 36 43 50 53 55 56 62 62 61 61 64 55 49 46 41 41 39 37 19 50 39 66

GFSCGP_con_3kmhel_126.txt.gz
Helicity
55 79 55 33 150 152 118 78 60 53 33 98 106 33 31 -1 274 391 295 167 182 91 98 69 73 105 107 131 189 277 338 338 106 60 152 125 140 142 146 164 122 139 158 194
73 87 40 93 123 92 68 45 39 41 70 133 88 73 9 17 364 386 320 267 142 75 73 78 53 62 80 160 124 175 370 427 439 132 83 144 91 126 133 161 142 153 152 188
99 27 175 98 74 50 31 28 56 78 89 66 24 60 33 285 287 318 462 236 152 77 63 34 11 25 72 110 150 -26 145 268 346 382 96 95 130 161 119 153 159 228 220 187
109 38 41 73 58 39 50 32 116 93 96 119 66 130 41 124 300 379 239 167 63 31 49 48 47 41 75 87 61 81 -76 190 177 120 154 107 87 275 141 128 156 253 255 220
97 110 110 76 40 44 64 113 80 46 73 100 21 73 207 302 235 158 128 65 69 91 58 45 36 43 45 45 55 45 17 62 180 59 17 -105 -69 108 140 94 120 239 265 258
4 23 79 58 54 88 59 52 51 34 61 174 11 220 247 182 87 90 86 84 99 48 49 32 -11 -15 8 32 61 46 79 90 144 62 7 -43 -126 -43 95 78 206 283 335 303
45 44 25 72 47 20 7 -13 63 115 136 152 130 81 221 352 228 102 54 115 60 35 26 -29 -49 -10 37 79 121 149 177 164 140 73 97 -7 -83 -210 -7 35 256 294 358 318
133 118 32 164 43 77 106 130 112 143 126 52 1 139 298 246 144 90 107 96 77 59 14 -30 4 -6 27 67 157 235 227 183 224 184 158 49 -59 -147 -31 486 300 714 562 395
239 153 182 175 57 79 110 85 142 166 74 71 116 250 162 207 113 102 79 64 58 47 -23 -13 27 6 70 194 329 402 199 90 254 277 227 219 103 178 352 122 217 1043 856 673
158 99 79 71 97 3 22 44 159 151 145 78 89 118 221 105 62 59 40 29 41 22 12 20 27 64 96 128 282 406 352 247 327 332 351 327 311 236 332 258 496 354 622 517
137 77 86 59 41 5 124 38 139 140 114 130 71 158 120 78 101 35 15 34 43 3 -7 17 35 70 98 180 210 415 245 272 257 341 512 538 489 401 295 251 633 337 185 431
95 83 54 -8 20 155 134 189 191 159 96 141 103 95 137 122 83 38 16 32 62 11 -30 5 32 97 112 185 256 266 357 420 360 321 445 482 591 533 529 549 597 621 602 547
115 56 64 30 51 64 110 243 107 74 40 85 116 234 154 127 71 41 20 22 37 37 10 27 79 155 195 155 260 222 256 363 293 359 228 442 552 572 472 427 384 456 498 585
158 62 21 14 97 118 191 152 72 55 63 73 119 193 153 111 70 40 27 24 6 4 6 23 74 122 195 204 313 259 241 252 375 329 321 188 356 503 495 404 430 425 423 346
101 62 42 -1 57 70 122 86 51 54 26 111 159 135 102 101 61 47 45 20 17 -0 -8 -16 9 100 143 150 176 320 311 272 234 330 352 335 255 261 343 469 412 351 351 350
64 62 37 -6 21 43 98 97 61 68 49 58 90 113 70 40 55 55 69 47 27 10 -6 -10 -21 -15 8 32 20 47 104 169 113 143 154 133 160 196 222 224 206 265 284 321
79 83 39 21 31 41 73 169 111 107 55 26 23 95 49 53 68 61 45 55 35 20 12 5 -6 3 18 32 78 74 8 9 32 68 105 108 87 40 73 100 164 215 233 209
106 79 68 38 50 81 121 85 78 101 99 134 136 89 99 90 72 62 53 48 37 34 20 4 -23 -12 -1 -11 8 35 34 27 43 59 80 92 66 79 72 65 81 89 82 114
85 92 79 68 50 122 93 70 74 94 93 104 106 101 110 76 67 76 55 32 24 23 9 2 -7 -22 -33 -25 32 17 12 18 25 39 24 3 14 17 14 46 47 43 55 63
29 92 90 81 66 103 225 156 143 179 115 112 118 100 89 47 54 76 46 17 16 21 10 3 3 -5 -7 -14 -11 7 4 -1 23 17 -13 -30 -23 2 27 40 52 33 17 30
147 142 96 80 117 194 178 138 138 156 177 141 120 86 73 97 99 80 34 26 7 18 14 10 10 -0 -2 -6 -14 11 2 -16 -33 -26 -27 -12 -44 -39 -35 -16 17 41 33 37
100 109 95 101 135 169 147 107 155 201 197 208 278 223 250 146 98 66 36 22 29 28 28 23 17 14 16 21 19 26 50 19 -5 -10 -4 -14 -14 -37 -30 -14 10 39 43 34
131 177 182 254 248 155 85 135 197 194 220 229 182 142 112 96 75 52 34 25 44 45 32 31 32 33 28 31 33 38 44 42 17 20 17 19 21 9 -20 -22 -26 -27 -4 10
194 200 181 103 134 99 128 209 245 265 267 213 136 115 77 56 39 31 9 15 39 41 41 37 34 31 23 22 26 22 28 28 28 21 31 39 27 27 17 -8 -19 -39 -46 -42
143 113 146 176 123 119 149 166 204 222 183 151 102 75 50 13 -2 31 48 54 50 42 40 42 40 33 35 31 29 27 28 27 24 20 19 26 13 25 27 -14 -21 -45 -61 -44
145 122 106 110 137 48 146 149 148 145 122 108 96 85 58 54 49 52 54 53 50 51 50 44 40 35 31 28 30 29 31 35 36 37 35 33 30 28 30 36 26 25 -26 -3

GFSCGP_con_3kmhel_129.txt.gz
Helicity
54 148 76 89 178 182 132 127 137 80 64 92 101 140 69 70 261 567 626 453 379 264 108 67 28 11 -24 54 68 73 9 148 120 50 101 95 84 121 119 135 91 171 274 216
109 122 69 113 136 131 157 136 107 105 76 100 99 91 83 274 468 549 445 370 213 134 11 7 8 -21 19 64 82 65 50 58 156 150 84 114 104 163 58 98 112 100 198 238
89 122 63 132 144 128 113 106 95 102 81 129 93 115 281 361 502 358 318 193 88 -21 -25 -16 -18 14 37 51 82 78 69 36 137 204 127 79 98 44 75 31 61 101 115 197
116 81 54 106 107 134 148 61 98 104 124 132 164 144 132 315 336 311 230 148 6 -10 -29 11 48 82 52 41 56 65 74 43 22 188 158 87 49 20 13 61 26 88 80 156
167 113 156 129 99 108 96 116 95 78 80 100 80 153 231 283 238 243 133 57 -29 -35 38 85 88 42 13 -16 15 30 47 10 30 45 102 135 61 -6 -54 16 37 18 26 103
15 -20 34 110 81 100 116 93 69 78 105 173 85 156 306 182 232 192 111 40 9 68 82 75 63 3 -36 39 33 42 45 95 79 67 114 106 70 -41 -20 -93 -87 -122 -67 96
114 45 73 58 102 108 81 107 97 101 151 103 125 214 309 273 207 130 74 18 60 55 60 60 26 -20 11 35 44 93 103 123 141 185 136 131 110 -7 -43 -65 -119 -240 -185 -19
63 41 137 71 100 144 93 108 112 117 113 84 59 184 200 234 168 117 40 47 58 58 59 38 18 23 33 75 20 131 133 152 184 158 214 192 140 11 -47 -84 -160 -196 -302 -350
143 104 143 261 200 134 93 134 57 117 107 123 157 187 204 214 168 102 70 64 53 27 37 26 14 78 23 14 14 137 189 239 195 226 201 201 212 137 70 6 -42 -53 -220 -112
335 166 86 88 137 111 83 39 126 159 99 97 127 107 182 160 95 111 59 52 16 20 44 17 3 58 44 12 3 153 208 335 372 229 290 206 220 250 274 255 238 216 -103 -69
321 175 79 84 127 91 95 97 129 128 155 155 153 129 152 162 106 100 58 20 3 -7 32 48 14 29 66 58 86 28 244 383 388 213 400 323 269 401 455 373 326 329 99 99
127 177 73 58 22 54 151 63 97 171 149 183 196 166 242 147 127 85 73 24 -6 -37 9 58 22 64 99 110 128 99 213 299 350 257 425 441 413 502 535 507 414 380 556 576
120 122 35 14 86 158 125 128 227 257 143 156 195 160 189 127 95 97 56 29 -19 -30 3 27 67 97 126 139 161 53 156 213 234 289 432 465 482 534 561 630 472 593 599 668
187 135 105 48 100 47 59 173 225 168 163 153 179 139 210 149 101 107 64 24 -4 -0 8 45 32 32 59 72 121 90 108 119 255 203 144 388 448 306 289 434 569 531 329 603
223 103 53 20 40 31 30 53 133 123 103 139 152 141 141 121 101 71 74 37 28 24 32 43 50 42 36 45 50 39 59 115 127 188 260 218 267 322 255 275 373 372 453 412
173 93 71 -77 19 39 26 106 128 91 94 97 135 119 138 92 68 61 74 65 55 44 39 32 36 38 42 44 40 67 95 123 107 66 124 164 215 265 288 238 207 285 323 348
156 126 74 -74 50 67 25 91 170 170 135 78 111 92 153 98 87 71 71 82 62 45 32 9 12 -6 1 28 41 36 23 76 98 78 82 84 85 116 135 219 247 172 133 108
115 103 96 -25 55 17 57 61 69 82 133 211 161 124 133 159 90 91 74 63 54 36 6 -13 -7 -20 -27 14 45 18 23 2 26 55 78 82 41 51 69 69 89 110 89 94
69 103 71 8 45 48 44 52 89 98 132 188 146 224 211 165 110 92 67 43 34 31 20 -1 2 7 -19 -2 43 -4 -13 -4 11 24 13 22 34 37 34 59 59 57 30 31
27 130 81 67 32 11 75 146 181 159 142 182 245 263 180 139 80 104 53 34 49 25 11 16 16 17 32 11 47 75 9 -3 9 -11 -38 -71 -41 -7 48 54 33 15 20 29
78 94 78 89 85 112 138 126 156 183 156 215 170 197 140 149 123 95 38 35 7 28 23 26 21 25 26 20 26 70 76 -0 -18 -18 10 -20 -38 -37 -23 4 47 58 52 51
83 81 111 132 116 81 202 157 158 175 261 264 296 273 327 288 199 109 44 70 47 38 41 20 18 22 19 21 17 41 72 30 -7 14 3 17 -31 -36 -32 -16 -3 16 27 48
89 133 134 146 137 160 138 161 189 269 303 275 251 257 250 218 119 64 48 103 88 72 41 22 12 10 8 8 12 21 16 33 -13 7 34 8 18 -19 -23 -44 -49 -45 -24 3
174 190 187 191 160 137 150 203 215 243 280 236 212 177 177 145 78 52 30 41 74 69 60 43 33 27 18 14 13 7 8 11 11 8 22 6 4 5 -12 -38 -39 -44 -47 -38
169 207 205 168 148 122 105 130 183 234 216 184 125 115 133 101 57 43 84 102 72 57 53 45 30 15 12 9 17 12 7 3 -0 -4 12 24 15 6 8 -15 -29 -48 -79 -48
212 174 120 80 89 108 106 165 165 193 197 172 121 103 89 93 122 139 101 87 82 70 46 35 22 8 -1 -0 -1 -5 -18 -23 -9 -19 -12 -11 -8 -15 -7 -7 -9 -3 -35 6

GFSCGP_con_3kmhel_132.txt.gz
Helicity
72 165 71 55 106 117 162 179 163 124 55 64 99 121 189 199 320 356 325 306 302 282 193 159 97 24 -10 -34 -5 28 32 55 -10 31 62 31 18 49 115 151 204 83 68 78
113 137 69 124 149 183 148 141 121 54 32 107 132 163 129 216 286 256 234 209 182 183 152 81 -19 -37 -55 -73 -38 14 48 55 46 61 113 81 82 57 17 148 169 157 13 80
93 123 74 69 111 168 146 161 105 104 88 91 107 125 243 303 235 217 199 125 103 74 40 19 -13 -68 -51 4 66 67 64 25 45 62 78 102 38 -15 63 41 99 111 104 45
95 49 135 157 164 145 122 66 72 101 100 84 114 121 149 224 275 209 147 88 75 40 26 -16 -40 -28 37 80 36 27 14 31 30 76 65 96 67 26 60 4 46 49 120 78
124 69 65 127 94 123 112 106 114 84 72 70 86 141 180 288 212 183 119 124 67 28 8 37 36 63 70 30 -8 -4 11 17 32 46 79 50 102 73 54 68 0 71 41 74
89 74 75 86 51 95 91 81 90 80 118 151 77 167 169 176 148 114 128 85 57 52 50 69 61 52 23 14 5 -11 8 35 40 61 64 66 80 125 39 -33 16 -23 2 -31
93 82 59 51 98 74 144 143 112 101 146 139 141 147 177 229 182 108 87 72 45 58 44 34 42 33 17 24 5 -27 -5 38 64 44 54 143 102 65 66 24 24 -34 -18 -73
112 120 86 84 62 95 177 167 170 140 138 122 132 116 105 128 62 74 82 36 47 68 42 37 24 28 -4 2 25 7 16 85 112 84 71 130 162 82 46 34 66 10 -27 -67
109 119 66 47 82 118 131 144 72 153 128 103 81 166 72 121 108 78 63 69 87 60 29 29 29 20 -23 -5 16 10 61 111 225 139 105 98 131 170 120 101 83 54 13 -29
169 133 89 43 14 75 121 114 151 191 145 94 46 109 97 116 95 90 93 85 96 35 35 29 21 25 -26 5 44 28 21 112 239 235 185 131 108 180 209 136 173 169 172 150
211 299 182 72 82 82 142 111 113 123 174 88 68 104 137 151 119 98 77 77 59 34 36 7 -24 45 67 31 38 21 50 90 256 256 272 244 164 187 215 242 326 331 397 407
204 239 178 80 51 14 75 94 56 122 84 182 165 113 147 120 103 107 65 82 41 32 43 2 -13 -16 79 70 77 64 64 64 140 245 306 273 273 194 291 319 470 539 613 596
162 107 41 24 70 63 190 134 217 172 177 134 132 93 136 169 124 97 62 77 29 45 60 46 31 25 48 59 37 19 28 51 130 245 331 470 474 585 592 522 398 556 525 594
175 173 126 65 73 -35 35 78 62 96 152 136 118 101 175 207 140 93 102 52 30 33 45 50 58 54 61 49 -23 -1 -3 0 92 43 172 159 326 380 683 644 566 598 549 468
156 97 106 56 44 -4 15 22 9 27 133 90 60 93 110 189 149 106 84 58 64 53 51 55 53 49 60 47 4 6 61 38 -22 13 37 181 235 289 382 463 495 383 339 344
158 88 79 1 23 19 37 13 39 126 127 136 134 117 142 200 166 100 69 70 72 71 38 39 20 23 32 27 27 8 26 27 56 44 9 -15 -31 -8 167 230 281 290 235 177
126 96 111 54 74 60 56 54 111 155 136 148 142 112 195 181 147 99 87 75 67 70 34 25 3 15 16 22 31 22 8 25 28 59 50 76 99 91 115 138 162 255 330 284
137 120 151 98 103 81 11 65 48 62 77 184 171 142 146 184 185 130 92 72 65 60 41 29 32 22 20 30 40 36 17 13 28 52 70 90 90 91 93 76 74 49 28 81
196 161 88 148 116 80 51 95 81 45 52 114 167 209 234 245 203 117 74 82 57 53 35 27 38 29 39 49 55 46 29 23 19 5 -1 -2 18 36 43 42 16 -6 -13 24
150 164 90 107 88 62 29 52 72 89 62 121 195 239 244 231 148 127 71 81 70 81 51 39 47 51 56 55 53 53 52 24 46 27 -18 -48 -30 -31 -24 -10 2 -18 -31 -12
122 78 51 46 95 86 90 111 108 91 46 144 179 185 204 166 146 166 131 115 62 66 56 49 55 55 51 56 54 57 68 43 22 16 -4 -17 -43 -41 -45 -39 -30 -28 -33 -32
106 180 139 119 70 82 127 116 114 91 159 182 225 201 243 251 246 208 180 160 87 67 60 61 55 60 57 53 41 49 76 64 25 32 16 2 -10 -35 -26 -25 -14 -1 -8 5
125 142 101 93 60 125 96 95 124 98 158 200 266 331 349 324 241 223 235 200 125 79 62 62 46 46 58 53 45 47 47 53 10 11 2 -12 -21 -29 -36 -44 -61 -59 -45 -43
108 155 107 129 127 137 139 167 198 190 195 182 208 244 253 279 239 260 227 157 101 78 58 51 46 51 58 52 37 28 21 26 -3 -8 -4 -6 -5 4 1 -13 -30 -39 -48 -37
54 116 158 151 144 151 122 164 187 192 189 202 199 172 185 194 203 194 144 102 92 75 53 53 41 40 44 28 22 21 29 14 -9 -2 3 9 13 17 15 12 9 18 2 21
80 93 138 58 73 98 92 138 151 145 138 149 142 134 119 134 149 140 103 97 75 58 57 61 51 39 28 20 16 9 -5 -25 -41 -2 14 28 29 27 21 23 31 70 35 23

GFSCGP_con_3kmhel_138.txt.gz
Helicity
80 73 61 87 84 83 87 95 88 96 80 118 127 160 170 168 218 249 253 264 261 229 165 105 61 43 20 14 -8 -23 -47 -11 7 -27 -3 18 -4 24 21 50 83 85 148 182
119 50 117 112 90 90 108 123 104 97 75 160 139 146 141 158 203 206 218 222 203 185 138 108 75 28 3 -29 -24 -20 8 13 8 -5 23 1 -16 -6 -27 -54 51 83 145 204
45 79 89 88 90 102 118 121 136 114 130 138 145 179 171 150 186 194 183 148 113 87 72 51 32 13 -12 -15 -15 -3 19 35 23 29 -8 6 5 22 1 -43 12 68 118 170
66 52 70 73 91 99 121 51 85 118 162 139 135 149 160 183 196 186 164 132 78 36 8 9 34 51 2 8 8 18 28 19 25 10 -44 -59 -47 -33 57 66 55 112 122 130
79 88 90 81 83 87 59 78 78 98 151 192 202 207 165 153 105 84 92 67 65 31 21 47 25 3 1 3 -0 -15 -35 14 4 -10 -33 -17 -52 -21 -18 88 72 111 124 101
66 68 62 61 48 81 87 88 151 181 191 252 144 171 185 68 57 60 52 49 31 46 46 34 36 39 28 29 12 -50 -31 -21 -7 -3 -21 -28 -35 -10 37 24 95 70 113 201
87 72 24 22 69 63 69 143 193 205 222 166 121 169 116 124 90 74 75 42 52 49 47 61 48 20 42 59 -8 -23 -25 -33 -15 1 -11 -13 6 37 37 20 5 95 86 109
100 155 71 45 58 48 62 64 166 217 194 178 189 205 141 134 166 95 56 34 45 86 71 46 28 17 39 37 -3 -2 -21 -22 -20 -14 -2 13 31 39 32 65 56 47 47 35
83 73 50 69 -5 34 65 117 40 121 148 203 228 226 151 160 79 68 49 56 85 112 60 48 47 32 42 34 12 -3 -43 -66 -78 -63 -57 -23 16 77 84 70 39 50 1 4
104 119 73 38 34 14 61 55 120 181 199 202 218 237 155 69 31 83 53 51 90 105 78 61 51 61 53 40 39 16 -42 -63 -86 -104 -119 -93 19 7 121 76 78 112 98 108
123 144 107 91 41 46 74 92 133 138 175 183 191 172 129 86 72 72 40 43 67 87 66 56 56 60 60 41 42 24 -3 -18 -45 -82 -117 -105 73 66 40 96 181 221 152 170
118 119 104 56 36 50 63 114 141 156 148 124 129 79 135 83 98 72 31 57 77 105 55 50 43 61 65 37 49 36 10 -6 -22 -34 -50 -71 -0 49 36 146 215 404 341 368
107 165 124 102 110 119 103 68 101 126 112 101 93 106 55 107 86 87 69 73 87 99 57 49 63 87 64 36 47 47 40 25 -2 -14 -18 -35 -61 -21 9 128 226 352 511 446
106 156 162 148 123 100 103 112 96 106 136 113 146 -54 113 160 129 131 110 104 80 76 46 43 75 84 58 38 43 62 46 46 41 25 7 -13 -61 -33 -32 11 162 376 432 817
156 148 144 131 124 115 77 95 96 98 140 137 -1 6 84 137 116 162 128 106 89 84 67 59 71 82 57 48 40 50 48 50 55 57 42 8 -15 -36 19 50 107 125 355 348
185 142 126 119 106 100 69 86 80 22 22 36 118 -6 166 183 227 186 137 108 104 88 98 85 82 84 63 44 35 25 35 45 44 46 56 31 21 44 65 74 123 88 117 177
178 129 146 108 72 49 36 63 65 98 83 109 132 121 166 131 126 141 133 129 106 96 109 93 80 75 61 44 35 32 19 11 30 47 54 36 25 15 2 1 19 36 51 85
167 167 138 137 127 93 22 33 26 12 25 48 123 120 105 102 128 139 131 137 112 110 112 98 78 84 70 49 48 24 18 7 9 26 42 28 -6 -12 4 12 37 39 30 49
170 201 172 182 125 98 77 41 101 39 24 44 119 162 171 179 187 144 135 138 124 124 116 94 87 81 77 68 35 29 27 7 1 7 17 9 -8 -14 -20 -0 14 -10 -16 -4
129 145 161 176 113 92 89 50 13 40 32 31 106 152 171 154 109 60 166 193 200 164 124 107 104 95 99 71 38 36 32 22 8 -7 -7 -26 -33 -28 -20 -32 -33 -32 -36 -31
123 124 151 140 108 143 134 140 113 39 15 28 60 120 160 123 97 134 240 226 200 155 130 116 125 105 76 55 37 42 34 37 9 -0 -21 -30 -50 -60 -66 -70 -75 -68 -48 -2
120 93 98 81 59 19 131 160 71 35 45 35 73 106 158 178 188 209 221 227 189 166 137 132 127 86 70 57 33 34 50 21 9 -0 -0 -12 -23 -43 -48 -60 -84 -91 -71 -74
111 196 96 124 44 83 86 63 22 34 40 47 93 128 203 231 235 248 249 228 186 166 142 132 129 99 69 48 41 42 42 24 11 2 -15 -28 -36 -51 -60 -58 -59 -86 -85 -83
87 156 152 124 122 152 152 197 48 92 96 101 110 167 218 264 289 304 288 244 188 153 144 135 143 130 83 49 47 52 31 12 4 -5 -22 -33 -42 -47 -71 -86 -94 -96 -90 -74
78 175 152 166 134 113 104 103 197 222 219 205 177 153 200 281 301 298 266 171 148 142 124 112 109 89 57 34 57 43 35 15 -1 -15 -26 -39 -43 -44 -46 -54 -45 -36 -28 -32
200 231 229 112 37 111 50 154 228 224 192 180 169 192 189 245 257 280 198 124 118 129 121 125 90 47 41 46 39 32 24 16 1 -7 -32 -50 -52 -54 -51 -53 -38 11 24 36

GFSCGP_con_3kmhel_141.txt.gz
Helicity
97 75 76 68 61 90 95 71 38 88 62 118 107 155 157 155 182 212 248 261 260 244 175 147 125 76 64 28 12 0 -5 7 -6 -7 23 45 57 96 110 86 52 58 69 76
116 82 117 107 76 70 61 49 93 91 50 93 108 133 124 126 186 210 221 216 207 209 197 170 123 99 73 44 35 29 17 2 -10 -4 14 14 42 64 64 42 20 25 42 81
97 111 90 91 94 79 103 111 116 76 113 98 123 127 151 161 169 196 209 181 164 136 106 98 101 66 42 46 34 19 -7 -9 1 13 10 19 25 11 8 22 51 53 72 114
88 86 90 85 117 102 106 60 75 99 116 111 115 97 124 90 112 139 153 131 84 84 84 78 72 69 48 53 14 5 -1 18 11 7 5 15 10 19 45 65 100 113 107 136
105 99 98 104 100 71 65 83 97 104 130 147 124 112 134 93 42 49 71 59 76 63 59 63 58 65 39 27 5 -11 17 16 -9 -18 -14 -26 -20 0 45 82 86 122 101 105
85 74 71 68 83 80 82 95 110 154 156 160 100 86 147 47 52 91 79 68 79 62 64 79 79 60 47 23 9 6 17 -4 -13 -43 -33 -23 -48 -10 33 99 116 95 85 86
100 103 82 58 120 70 95 103 125 127 138 138 152 159 112 148 115 114 123 114 97 70 82 97 89 63 50 45 33 17 10 0 -25 -51 -64 -46 -51 -2 24 102 122 76 57 70
124 141 100 36 92 105 113 101 149 161 141 116 92 171 185 192 240 186 139 93 87 77 80 107 71 48 43 33 27 32 20 1 -25 -45 -67 -72 -53 12 49 38 45 35 48 41
100 99 83 34 49 59 85 97 102 113 101 131 125 164 149 171 97 94 89 106 80 58 79 105 71 62 38 22 35 33 21 -15 -10 -47 -102 -133 -96 -35 12 -33 -13 27 56 75
97 117 105 91 49 65 77 76 113 156 155 134 137 136 134 99 61 56 50 51 55 47 99 118 86 61 30 37 43 32 0 2 2 -38 -103 -139 -133 -109 3 9 19 73 90 115
98 117 124 110 83 42 41 96 123 141 162 176 153 133 180 51 41 48 50 57 64 82 98 107 81 52 28 45 59 41 37 33 32 -4 -53 -97 -130 -159 -54 37 46 96 159 205
102 116 102 89 69 80 80 119 137 167 164 191 165 191 129 112 56 47 74 101 75 104 92 76 62 44 59 66 51 46 39 38 31 19 -11 -44 -75 -116 -81 19 37 96 110 156
108 145 135 102 125 119 189 152 148 158 155 153 165 192 190 175 50 88 131 128 113 123 95 75 70 58 82 60 52 46 45 34 28 30 29 6 2 -17 -81 -46 20 30 78 90
111 147 147 130 132 134 100 89 116 124 170 109 178 113 142 140 133 97 152 151 130 123 93 85 86 67 67 65 59 49 47 39 29 26 50 38 19 -7 -17 -24 -10 37 57 156
122 124 120 107 118 113 92 96 99 107 127 157 156 133 69 98 161 157 200 190 135 116 97 100 92 72 77 80 68 51 51 49 35 28 35 37 22 21 -5 17 -6 6 38 79
172 137 129 119 85 68 84 131 126 134 129 115 111 -8 81 99 161 190 201 143 119 117 112 104 94 78 90 81 70 55 55 56 47 47 38 30 22 29 44 14 25 61 98 111
155 145 126 100 86 79 78 49 22 91 97 85 68 44 92 80 81 99 129 115 103 107 115 109 101 82 84 76 66 64 51 44 54 51 48 44 35 25 29 10 15 39 60 48
154 142 137 115 120 126 104 79 100 87 30 49 36 94 80 74 94 104 105 104 109 117 122 114 95 80 78 66 65 51 47 48 56 49 52 50 42 27 21 16 8 -15 -27 1
113 146 149 180 129 116 104 14 63 30 45 25 36 103 125 142 160 125 105 96 110 119 119 107 94 86 83 74 62 60 57 45 47 40 38 36 12 11 8 31 25 -2 -17 -19
78 84 140 198 175 203 144 90 91 41 -42 35 31 52 89 99 74 80 94 156 176 157 134 116 97 95 93 70 55 63 61 52 43 26 17 -1 -13 -13 -10 -11 -14 -24 -14 -15
126 132 134 132 200 183 112 119 112 58 54 52 28 24 67 57 77 87 134 174 174 170 147 129 110 109 102 66 47 61 55 50 16 12 7 -4 -23 -33 -33 -42 -34 -30 -23 -13
101 122 151 150 181 37 104 111 77 81 37 11 12 31 56 107 140 141 142 190 191 182 145 120 117 111 85 54 51 45 45 19 12 5 1 -11 -21 -40 -52 -43 -50 -38 -32 -22
109 113 133 146 136 94 107 102 101 109 44 -2 15 65 96 163 171 206 218 205 190 158 125 103 107 108 81 54 48 56 26 12 11 10 5 -3 -21 -34 -34 -32 -32 -40 -39 -55
66 82 134 110 108 136 120 86 157 211 103 94 97 110 143 171 210 242 233 242 198 143 116 107 109 119 114 72 52 29 14 20 15 10 -1 -11 -16 -48 -48 -59 -60 -50 -45 -45
77 99 107 47 110 130 99 40 128 124 149 170 164 129 136 187 209 245 254 216 167 132 110 100 101 101 95 55 21 32 23 11 18 13 5 -6 -30 -43 -57 -53 -56 -69 -59 -47
120 99 63 28 51 140 87 84 109 143 143 156 160 158 157 185 219 230 220 159 128 112 95 95 103 87 39 26 36 38 27 16 11 11 -1 -17 -27 -37 -54 -66 -64 -23 -24 3

GFSCGP_con_3kmhel_147.txt.gz
Helicity
54 65 44 31 205 170 87 80 95 91 90 170 101 70 37 227 154 151 122 121 143 145 149 107 94 92 92 95 85 87 78 79 71 61 46 32 24 6 3 26 53 84 87 100
88 46 77 239 144 103 84 87 89 86 112 101 60 76 46 231 135 67 85 121 121 116 102 96 90 94 83 85 81 89 99 87 62 45 24 12 1 -15 -1 24 46 65 105 83
81 103 219 143 117 109 86 93 144 121 85 96 20 69 1 204 144 92 132 144 152 121 126 89 81 79 76 87 94 90 85 66 57 53 27 16 -11 -3 -11 19 38 61 73 81
111 149 155 86 94 112 81 225 112 85 89 88 105 116 46 164 153 102 86 68 105 119 100 88 82 78 80 91 89 81 71 57 57 50 27 15 -20 -27 -27 -23 -8 42 80 95
156 113 89 84 118 161 130 182 79 61 64 68 61 111 35 142 130 115 86 112 122 120 100 105 108 87 95 102 98 79 60 55 59 46 35 -4 -24 -35 -36 4 27 41 73 105
130 128 112 96 123 66 112 28 28 37 44 116 15 133 79 79 165 160 221 156 127 114 93 132 95 76 101 113 93 75 71 67 54 41 38 0 -19 -40 -21 5 23 49 60 91
84 66 99 88 53 50 31 43 121 165 123 91 127 113 58 172 225 128 206 139 117 105 103 95 108 103 127 125 109 86 77 68 59 39 22 19 3 -29 -36 -17 5 25 52 63
80 100 70 101 105 156 107 107 148 232 182 196 93 161 128 147 118 185 157 130 96 71 110 116 83 110 135 131 107 86 73 66 49 24 25 17 30 8 -34 -33 0 24 34 48
177 134 199 127 91 77 101 50 150 159 93 108 72 25 106 164 146 113 115 83 59 94 98 88 109 119 119 126 87 64 67 59 50 44 12 26 43 27 17 -48 -6 7 -21 11
149 177 112 116 61 37 54 103 122 83 139 138 112 75 78 149 140 70 99 62 98 112 60 99 105 132 129 109 63 73 62 67 52 41 -1 36 38 33 33 16 -54 -30 -38 -12
112 141 116 96 61 49 57 33 49 61 101 121 102 99 158 106 114 122 111 72 81 20 14 69 136 126 123 92 57 71 75 72 67 26 7 47 48 40 39 33 20 -42 -20 -11
107 130 114 49 34 65 76 66 71 104 73 73 134 113 154 160 139 112 134 122 91 67 140 182 148 95 111 82 78 63 60 48 32 26 31 65 59 47 43 33 25 6 4 -4
125 98 139 64 56 37 54 57 102 109 109 80 106 168 121 66 94 92 127 188 160 196 183 172 133 104 89 69 73 37 38 49 36 25 18 61 59 55 42 36 26 26 21 16
131 103 109 131 128 113 103 67 62 57 115 58 96 47 35 43 50 58 41 220 229 214 175 145 114 90 80 65 64 54 56 53 31 44 13 29 34 24 33 37 48 28 38 40
119 113 82 68 68 67 62 64 78 51 43 69 59 56 31 34 39 55 131 152 242 172 151 133 101 91 74 68 78 75 72 64 56 66 67 58 11 -5 14 24 34 38 46 50
74 102 106 104 54 45 47 74 44 25 14 27 36 54 33 26 143 99 97 141 111 108 98 90 93 97 84 86 97 89 83 72 72 77 75 70 58 50 47 42 29 39 34 54
85 78 58 67 47 79 79 97 61 6 26 34 67 44 59 50 54 68 111 80 92 78 79 107 109 121 110 102 95 95 82 81 83 82 83 73 61 60 56 48 43 40 44 29
80 67 76 84 76 73 69 74 38 48 29 16 52 130 44 74 87 102 111 111 97 107 112 139 135 137 122 110 108 94 88 87 88 90 83 67 58 60 52 45 45 40 29 39
55 64 77 69 62 64 57 46 46 97 37 15 103 91 133 72 65 56 98 99 103 122 119 116 133 130 114 113 104 110 101 87 84 88 80 61 57 53 48 43 37 26 19 18
42 56 74 85 72 78 51 59 101 79 48 180 77 108 106 81 55 113 53 86 147 130 126 138 125 106 113 102 99 104 99 82 80 78 55 45 50 51 39 29 16 6 -1 -3
74 72 63 62 80 77 25 108 121 82 122 86 84 100 68 52 131 129 87 125 124 126 146 144 122 114 122 104 90 89 81 74 67 42 39 50 40 26 22 17 8 4 -6 -23
80 88 82 67 50 34 79 163 102 98 58 59 64 48 54 67 84 78 143 154 138 136 153 130 138 139 115 93 80 86 86 72 50 58 59 53 45 31 21 23 13 11 0 -24
83 65 51 52 74 112 58 63 48 35 43 70 80 55 48 106 99 150 211 167 164 153 139 134 133 125 106 90 76 94 81 75 82 52 49 50 41 41 28 28 31 25 17 -1
50 44 76 92 109 74 69 43 27 41 80 75 64 51 80 95 122 182 166 161 169 168 146 135 130 108 107 101 87 92 92 76 46 47 45 38 37 20 31 25 28 27 19 7
52 91 71 28 12 13 25 51 93 82 94 69 58 86 68 121 138 144 130 162 171 168 145 125 113 113 112 100 103 94 73 47 47 49 44 38 27 22 22 38 28 22 26 15
77 73 73 45 26 41 48 69 65 79 57 85 76 124 69 94 129 132 131 150 159 150 132 118 121 120 117 104 95 75 54 46 43 48 46 38 27 22 22 12 29 49 24 22

GFSCGP_con_3kmhel_150.txt.gz
Helicity
45 67 62 41 25 168 139 76 75 60 50 60 126 215 72 161 208 201 223 235 113 198 236 135 110 109 104 90 76 64 58 55 55 57 51 48 44 29 28 11 42 38 67 60
68 88 20 93 175 137 95 78 62 60 42 114 98 66 26 18 248 202 182 100 169 223 134 151 111 92 63 71 61 63 77 80 75 60 46 38 22 16 5 2 -11 -0 32 52
76 78 98 168 161 99 83 52 63 112 126 123 86 66 40 -1 292 248 264 251 332 257 227 176 91 84 81 82 78 89 98 97 92 67 57 46 27 8 -9 -14 -26 -13 16 55
109 48 71 151 92 86 177 103 208 148 96 103 55 142 69 136 244 342 258 195 192 165 142 141 106 114 111 96 96 113 112 104 100 73 59 48 15 9 -5 -10 -25 -35 -25 54
83 108 210 138 84 149 159 149 130 96 76 89 83 111 44 89 215 236 151 110 168 190 150 129 141 123 151 122 102 118 112 119 102 84 55 37 22 6 -13 -24 -56 -51 3 41
107 112 246 119 121 162 98 103 55 39 40 125 3 24 4 131 152 132 191 196 201 161 135 121 138 115 113 128 124 129 123 136 101 82 60 45 30 -14 -25 -22 -28 -57 -23 11
112 109 84 109 120 57 25 52 126 158 161 127 40 126 83 166 225 226 234 186 145 162 128 139 143 99 119 135 129 133 136 139 95 86 59 42 -0 -13 -30 -34 -21 -48 -45 18
161 195 70 145 36 142 69 75 210 185 301 277 86 209 118 180 193 191 200 155 175 151 135 161 108 93 139 127 132 144 140 117 95 87 60 23 9 -2 -19 -19 -20 -11 4 -8
258 192 149 141 114 103 145 148 70 240 179 188 120 31 132 125 140 125 135 132 131 159 164 155 122 82 141 138 137 138 124 112 104 85 54 21 20 15 -2 -1 10 10 23 21
231 354 125 68 146 62 57 73 185 160 186 162 158 136 69 160 120 120 111 127 94 167 139 184 39 57 111 158 118 119 112 111 95 72 51 36 28 16 -1 7 31 32 21 17
140 165 135 105 161 45 52 61 59 53 92 170 167 156 66 59 66 93 48 48 116 169 215 189 47 89 189 139 112 106 96 86 68 65 49 50 28 17 4 17 35 33 30 18
66 133 162 125 30 -3 30 109 150 207 177 152 165 134 136 176 14 31 77 91 152 207 269 262 200 131 171 134 107 85 61 53 36 37 28 28 13 16 9 27 35 35 43 33
156 196 165 122 92 41 133 83 48 77 192 161 150 199 111 60 47 57 105 224 294 312 287 262 222 183 133 109 79 54 43 24 35 29 -12 -5 -10 -2 4 11 19 30 46 53
216 158 181 158 108 115 101 24 58 63 159 100 129 69 47 63 66 60 64 215 226 285 294 204 203 155 124 84 65 39 61 31 -9 27 7 -0 -15 -31 -8 -13 -9 9 26 43
191 150 120 126 127 128 152 129 151 103 82 107 75 92 48 39 33 83 213 223 195 131 168 141 165 122 79 59 67 87 88 75 85 74 53 12 6 -12 -1 -14 -23 -9 5 20
117 184 180 149 95 73 70 86 72 75 58 60 56 63 42 41 138 187 146 196 172 144 148 78 115 70 62 99 106 110 96 92 96 86 73 66 66 56 35 26 22 13 7 15
138 141 143 85 49 77 127 114 92 48 34 46 57 27 126 133 195 206 87 102 146 200 180 112 68 101 93 131 124 115 104 108 113 93 86 81 72 56 57 56 44 39 22 19
148 103 102 105 131 131 104 23 22 16 38 7 19 36 122 90 109 114 108 148 187 116 96 187 181 151 137 136 139 112 124 116 123 111 95 85 69 59 56 63 60 40 37 23
102 116 144 130 121 98 69 36 43 44 36 59 111 141 180 149 59 137 111 118 149 151 206 161 187 199 157 143 130 160 159 120 104 95 84 85 70 55 60 62 58 46 29 21
74 110 142 167 128 123 44 29 133 155 80 166 204 158 149 92 66 92 142 98 102 201 186 143 132 137 130 122 132 132 128 119 92 73 72 38 42 36 46 46 44 33 26 17
82 126 142 116 113 103 48 32 101 65 118 122 67 92 119 84 103 150 111 175 153 156 165 140 104 99 113 120 124 110 113 87 67 80 56 42 43 21 30 24 24 15 11 11
95 89 112 77 66 67 17 101 116 129 102 81 84 99 116 116 166 172 153 147 123 181 194 149 124 159 154 110 96 115 113 83 71 60 72 77 54 47 39 44 43 29 13 4
74 41 90 99 102 144 193 127 234 110 71 93 124 156 126 106 147 131 188 162 169 196 173 145 166 161 130 116 118 134 110 78 69 88 77 60 51 55 50 47 46 33 40 13
37 26 74 69 71 80 62 52 59 79 134 145 170 119 74 142 195 198 216 158 185 195 169 157 182 145 139 159 159 141 96 77 90 72 61 52 49 39 51 48 31 19 15 13
90 165 116 75 60 43 73 119 138 153 125 82 132 106 71 154 194 184 134 129 146 184 207 182 168 145 142 132 158 117 91 88 83 67 61 55 49 46 41 42 18 25 2 5
96 89 77 68 63 69 63 81 74 78 60 66 133 125 102 105 218 171 103 108 132 199 191 161 156 153 151 150 135 117 99 86 67 68 69 62 50 47 41 34 33 53 40 35

GFSCGP_con_3kmhel_153.txt.gz
Helicity
48 140 113 66 89 92 110 85 68 32 -3 53 100 150 119 136 215 282 491 533 360 344 257 195 128 110 120 98 82 59 60 43 21 23 19 39 51 36 6 9 -3 -14 -39 -37
114 120 54 84 100 139 109 95 62 34 35 82 160 170 121 139 253 244 520 375 422 364 273 208 160 148 101 74 87 75 65 56 30 19 13 30 45 26 6 3 -14 -26 -33 -37
124 134 59 175 159 171 117 124 98 113 150 137 171 131 104 77 231 349 417 352 457 312 266 221 199 144 118 109 104 87 90 88 68 36 19 38 39 33 42 19 -3 -20 -39 -58
134 79 62 53 180 184 149 114 258 238 223 164 104 96 108 61 227 649 711 759 526 415 308 275 246 201 161 144 127 109 139 113 94 45 27 40 31 14 2 -3 -2 -11 -38 -47
252 134 128 141 206 194 171 203 270 174 137 135 137 150 120 75 326 580 557 340 267 229 213 263 253 215 192 166 128 124 154 149 122 71 49 22 31 18 7 3 3 -20 -26 -68
61 81 206 239 239 278 308 206 130 114 128 215 62 112 129 93 257 385 231 315 298 248 252 250 201 230 195 140 149 141 167 155 154 104 62 41 42 33 10 1 -47 -33 -44 -60
98 86 190 230 280 244 182 197 288 244 274 172 102 176 224 171 134 207 294 277 266 226 205 211 218 187 193 149 150 161 174 183 152 128 53 43 28 28 10 -31 -22 -15 -39 -81
253 355 167 282 251 194 222 154 255 289 284 188 101 191 126 193 280 357 344 275 243 199 214 183 187 197 175 125 133 155 167 178 141 119 67 35 17 1 -11 -28 -24 -31 -50 -54
301 267 142 243 196 171 197 152 124 228 222 205 133 95 134 175 193 215 218 204 167 159 145 156 201 178 122 97 104 161 165 147 129 98 66 61 34 18 -9 -3 -9 -17 -23 -18
179 306 144 154 185 182 162 92 219 226 219 176 160 137 171 128 51 94 95 69 91 177 229 210 206 161 143 135 168 174 140 118 93 79 62 38 24 9 1 3 11 1 2 0
245 249 223 188 273 245 140 127 128 127 179 224 176 167 84 73 53 10 32 49 79 219 250 261 272 287 224 191 154 143 115 93 76 58 42 26 14 1 4 7 2 5 4 9
145 237 244 167 174 102 78 63 132 230 190 173 201 156 130 93 46 74 80 68 108 326 391 360 327 321 261 182 135 112 74 52 24 29 17 10 -3 -1 -6 -12 -14 -2 7 5
166 256 242 230 126 169 126 150 147 132 185 211 215 165 145 126 91 85 99 134 188 375 443 408 345 295 223 183 123 76 51 22 28 17 3 -2 -27 -18 -27 -36 -29 -9 -12 13
222 190 192 193 180 153 219 232 180 167 99 87 114 78 98 94 113 74 101 116 161 268 284 335 298 272 228 189 94 57 34 31 43 24 14 -16 -35 -11 -16 -54 -48 -35 -17 -13
180 207 232 201 182 176 227 171 180 117 91 142 122 135 122 101 51 75 81 135 161 234 241 203 178 178 120 98 78 93 119 109 72 53 31 -4 -12 8 -13 -31 -51 -44 -38 0
213 234 241 230 171 130 76 90 102 111 112 106 80 101 88 116 173 166 102 119 138 128 106 132 132 128 106 49 60 161 144 135 123 115 87 78 65 76 59 29 -2 -13 -22 -19
178 233 255 175 104 100 113 118 104 101 113 115 109 118 130 158 133 97 128 105 135 131 103 155 166 112 85 121 175 165 160 182 181 129 111 85 78 80 80 57 27 12 9 -12
180 177 199 160 157 163 142 87 74 69 72 76 54 88 49 53 120 160 77 128 182 255 244 192 138 134 161 191 190 175 168 158 168 163 123 118 93 83 66 69 48 36 13 6
183 218 225 160 163 127 88 105 73 75 105 31 163 195 162 182 176 131 106 123 140 183 195 200 226 217 199 190 207 250 178 128 126 106 105 83 74 70 57 59 52 48 36 14
168 206 218 220 221 164 80 67 89 109 173 186 196 178 176 150 103 74 84 165 286 318 284 268 272 265 225 194 194 182 166 118 97 70 42 42 48 48 59 52 51 43 35 16
184 223 222 242 243 234 171 52 51 165 93 121 92 109 146 117 93 84 156 190 230 207 225 178 184 176 144 175 160 139 123 89 60 41 30 29 19 12 41 51 48 55 45 41
156 122 126 157 169 98 105 86 189 140 71 86 125 146 160 132 123 163 230 235 237 258 217 145 120 101 113 127 123 98 72 38 60 64 57 65 74 43 57 70 69 84 68 63
165 184 173 137 118 58 58 122 130 130 139 130 162 130 137 137 161 234 262 201 220 271 205 145 193 231 166 103 138 139 96 87 91 84 74 73 76 88 63 49 47 39 41 31
75 99 142 151 128 129 57 41 69 99 122 104 129 135 130 102 180 176 201 158 237 289 202 236 281 245 205 203 226 183 146 114 111 93 81 61 62 65 54 28 24 14 21 23
45 101 120 123 131 162 126 175 187 191 201 195 142 124 97 151 225 255 208 194 258 238 222 269 273 235 217 240 235 198 156 141 141 129 105 84 76 54 56 52 29 28 11 18
68 82 94 101 92 90 94 112 93 91 89 74 98 126 153 191 255 261 219 172 208 280 299 279 260 233 200 219 201 156 138 161 165 133 102 99 82 81 54 48 58 61 33 47

GFSCGP_con_3kmhel_156.txt.gz
Helicity
91 140 97 66 99 126 171 130 93 50 22 63 107 149 170 139 212 337 516 581 417 313 212 160 137 112 121 137 119 101 86 66 30 4 12 42 47 47 45 26 16 10 -5 -14
144 143 44 68 135 162 155 166 151 88 -22 -4 48 98 128 220 155 365 548 535 444 364 280 173 152 127 121 128 129 140 115 83 19 -4 13 32 37 47 36 22 11 -2 -18 -26
173 129 118 138 147 184 188 197 156 138 123 112 129 134 202 125 118 343 487 546 469 358 320 189 171 141 159 157 162 160 131 81 55 50 38 54 62 57 57 61 45 26 3 -25
127 82 74 49 131 151 165 179 167 203 225 173 188 139 111 77 153 254 503 548 496 433 283 243 205 174 156 156 171 164 154 103 85 55 55 74 44 32 33 27 22 27 13 -17
181 172 169 179 109 111 174 292 263 230 219 215 239 214 194 214 214 309 443 515 498 379 270 249 192 163 159 170 165 166 164 153 108 94 82 66 60 33 41 40 39 33 20 -14
101 114 143 144 161 181 235 268 237 218 232 218 205 192 199 208 148 282 419 492 399 319 255 235 210 176 180 163 188 171 155 159 141 122 112 87 66 50 42 41 26 15 5 -38
162 92 70 95 192 199 245 302 291 286 332 257 198 208 225 173 130 147 224 270 287 271 224 224 167 165 154 140 157 131 143 172 183 137 106 83 66 48 24 23 8 16 -2 -18
229 271 131 199 222 285 242 232 283 252 221 267 234 280 173 147 172 252 275 261 204 166 167 172 153 164 138 141 154 152 160 183 181 135 98 71 60 31 13 9 -0 -6 -24 -24
196 169 131 150 251 236 317 305 168 242 284 275 204 223 172 179 206 253 231 145 149 170 160 156 170 163 167 180 172 177 171 178 163 118 86 67 51 36 22 19 3 -12 -20 -16
176 209 165 196 263 291 222 217 309 324 312 248 220 185 163 134 150 120 95 110 165 139 142 187 224 262 235 204 188 196 186 181 137 104 74 56 46 31 13 12 18 13 2 18
154 215 191 181 245 234 234 250 184 171 260 265 227 192 132 100 81 40 18 65 89 103 157 233 300 301 253 218 192 211 192 162 119 86 54 48 36 28 13 15 14 20 16 19
112 194 269 194 176 128 111 142 147 269 278 266 201 172 117 69 8 30 49 18 134 199 307 355 347 312 257 226 215 228 180 132 62 50 33 25 28 22 15 16 12 12 25 31
94 236 312 309 220 173 212 172 180 197 218 243 235 210 97 134 128 79 94 105 211 305 348 401 371 299 253 185 172 184 132 60 62 37 25 28 32 32 -7 -15 4 15 -5 28
138 230 261 249 213 225 315 259 240 222 289 258 239 155 170 110 108 151 159 174 169 211 277 307 314 279 219 187 171 111 82 55 56 61 37 25 42 32 -3 -24 -23 -8 -8 4
229 198 301 268 231 196 136 155 196 192 193 209 135 119 105 110 114 123 153 146 114 121 189 222 232 213 205 158 140 96 94 85 71 49 58 50 38 28 1 -18 -26 -20 -1 -3
300 309 266 158 153 130 141 159 135 117 149 142 140 124 118 153 189 198 128 84 76 55 92 103 182 185 157 122 149 167 159 148 115 117 117 89 98 84 37 8 -11 -8 -8 -14
158 130 146 125 135 138 159 154 174 158 107 100 115 102 188 204 222 165 80 59 56 76 88 168 157 141 100 113 178 206 214 216 198 179 145 119 107 113 92 51 26 20 5 -6
179 206 178 179 218 150 145 110 108 83 88 76 96 166 137 118 116 102 58 33 15 85 160 167 177 103 148 172 218 237 219 218 208 180 153 119 102 96 86 66 44 33 17 2
177 226 253 283 211 141 144 106 68 112 86 85 125 175 191 176 171 81 82 74 87 140 197 189 144 142 178 228 236 245 203 174 162 144 118 94 84 82 64 55 54 35 29 7
230 213 300 214 185 130 50 35 6 96 136 120 245 257 184 137 122 63 81 140 172 224 220 193 187 203 239 227 244 228 175 149 127 96 84 66 67 58 64 71 53 41 26 30
308 265 193 193 179 139 143 101 63 128 101 149 161 126 135 110 62 59 138 159 200 232 244 249 227 224 229 210 209 189 151 122 88 69 52 41 23 68 89 89 76 81 77 56
244 194 226 248 201 116 128 121 77 67 120 130 182 162 109 88 86 105 171 228 243 239 211 206 223 206 196 183 179 145 112 89 75 55 47 53 35 64 62 81 72 70 64 64
144 201 204 171 130 117 68 31 58 126 189 211 178 122 145 106 72 150 179 238 244 225 163 143 157 156 160 153 138 114 54 83 84 67 66 87 99 71 53 55 49 54 53 45
132 146 150 157 131 102 101 115 137 93 116 109 126 120 117 97 149 144 174 224 264 236 201 162 160 150 130 134 116 107 78 78 103 96 85 96 93 68 57 53 49 39 38 46
78 138 163 138 138 128 114 120 132 141 152 153 132 106 127 128 107 155 163 232 276 269 250 236 199 215 187 189 190 162 145 155 134 118 108 78 74 74 65 55 46 52 38 41
82 63 103 103 102 115 113 161 123 99 118 138 170 162 163 146 140 163 177 261 289 308 326 303 267 274 230 234 230 198 181 202 197 170 129 99 80 72 72 82 89 78 58 72

GFSCGP_con_3kmhel_162.txt.gz
Helicity
147 179 115 128 104 136 130 100 92 40 57 94 98 136 118 154 295 390 372 428 407 346 293 288 283 202 152 110 94 78 84 78 62 54 46 53 58 51 60 72 89 88 69 70
226 159 107 95 133 128 122 125 84 39 42 120 96 103 108 155 232 351 432 421 427 424 383 324 260 188 123 81 69 86 91 83 66 34 9 16 32 61 73 92 92 92 88 79
222 170 43 114 130 130 141 167 142 107 89 108 101 110 114 181 253 284 276 382 398 405 402 330 244 186 130 70 61 82 91 80 49 26 14 35 64 86 100 104 89 69 75 69
140 120 112 136 157 158 179 133 129 136 159 157 139 149 123 136 181 203 275 334 414 444 420 375 270 178 105 80 71 88 78 45 33 33 55 82 86 105 82 72 66 69 70 69
185 139 117 131 121 159 171 125 164 200 226 260 279 271 225 199 167 90 178 313 405 485 510 338 195 132 91 80 62 78 78 62 67 72 76 81 92 77 62 62 58 50 47 57
150 201 174 102 122 153 213 243 261 261 285 310 308 303 214 218 154 170 221 282 392 492 435 286 202 154 93 98 96 100 100 105 94 97 100 102 101 79 72 57 47 40 35 48
185 144 236 258 214 176 192 255 314 366 474 419 191 237 242 193 155 104 155 224 277 346 359 260 160 99 58 127 127 136 115 105 111 124 125 112 94 85 74 59 51 49 41 41
145 165 149 192 176 249 250 260 404 427 399 276 271 333 239 146 114 114 144 212 226 212 193 146 166 119 170 189 159 156 121 137 175 176 149 118 112 78 56 52 48 34 31 28
179 189 153 132 140 150 240 292 154 252 301 304 291 314 277 253 256 149 122 211 237 192 75 146 163 218 244 200 186 166 184 205 180 140 120 121 109 97 84 73 50 43 42 40
185 242 139 139 173 165 160 156 318 412 377 349 343 291 260 165 155 150 133 175 145 104 140 146 227 253 242 237 219 207 196 179 163 119 106 114 88 71 64 64 68 58 50 43
150 195 190 167 179 174 252 286 302 263 290 281 300 225 152 154 124 89 85 83 69 67 115 201 248 285 277 271 236 215 211 187 134 86 99 125 90 65 52 65 64 57 49 43
326 218 205 159 153 116 162 169 294 334 369 381 310 258 189 128 95 131 101 13 37 80 159 246 271 323 315 268 229 227 201 177 113 93 112 103 95 86 76 74 69 57 49 38
211 319 248 168 187 186 192 217 230 267 274 323 344 283 199 173 101 104 109 95 70 157 204 253 336 332 295 247 247 230 188 150 115 113 108 104 109 101 74 59 58 59 46 35
-34 -40 179 207 234 272 193 192 227 289 325 309 285 255 196 160 178 191 175 125 130 137 247 294 306 295 273 282 264 226 178 126 124 121 117 109 115 88 74 53 53 47 33 34
97 110 56 56 35 95 150 196 184 257 258 294 177 138 123 129 112 137 167 170 163 186 192 224 233 243 283 309 271 210 164 130 126 125 114 101 109 85 73 61 50 33 37 28
98 124 102 -3 42 82 77 90 253 270 298 287 264 172 126 116 168 182 176 229 198 163 126 117 139 216 269 258 223 187 161 135 131 123 103 127 111 91 72 51 39 44 38 33
85 85 77 98 94 65 117 156 149 277 296 238 186 143 163 153 118 104 166 172 143 105 94 102 137 197 222 212 211 175 144 155 150 133 140 135 113 97 73 59 52 48 36 33
111 131 142 64 130 244 158 152 71 97 124 110 128 164 121 130 154 165 179 130 89 80 100 135 175 168 166 206 197 195 175 179 169 158 161 141 120 100 82 68 66 47 44 44
147 144 131 144 154 196 125 85 129 138 68 107 123 112 141 177 207 173 108 105 68 65 99 144 180 192 190 201 214 231 215 206 188 170 156 139 122 110 87 71 68 61 56 38
60 85 111 173 197 170 116 86 117 160 70 63 109 134 159 179 170 108 87 83 84 79 120 188 210 209 225 215 233 243 213 199 165 149 141 136 115 104 84 68 70 70 51 47
42 57 112 213 258 257 108 102 172 139 67 44 88 119 158 121 102 88 140 148 105 110 137 211 209 208 205 222 237 223 202 152 150 156 147 131 120 103 82 75 71 64 51 58
58 56 138 204 171 136 58 135 128 88 62 74 84 99 85 160 167 164 113 101 98 131 176 193 235 228 224 210 217 206 157 155 170 165 150 133 115 95 82 105 89 81 83 68
105 146 126 124 142 81 0 54 82 56 59 75 102 129 153 165 98 87 61 75 89 137 166 190 246 256 215 194 183 185 160 185 176 162 147 132 123 106 92 98 88 83 65 55
96 102 98 136 167 125 53 74 69 57 44 59 65 88 106 92 107 87 88 112 130 151 161 178 224 233 237 195 161 171 183 183 167 147 141 134 130 112 95 80 67 67 64 55
63 87 58 71 48 56 71 74 67 75 87 66 95 94 78 134 89 115 120 138 145 160 185 186 165 184 212 190 155 166 177 182 157 143 141 130 129 119 108 78 60 63 48 60
84 72 67 38 57 70 90 94 80 98 100 102 128 111 89 97 99 154 146 156 194 198 217 182 140 176 198 190 172 167 179 175 164 148 143 136 137 126 106 108 103 87 89 98

GFSCGP_con_3kmhel_165.txt.gz
Helicity
130 134 107 96 84 117 144 172 148 109 101 98 79 72 87 107 106 148 185 223 262 309 323 303 257 215 179 141 120 100 92 80 52 44 35 37 58 71 91 99 108 117 99 92
172 111 71 77 120 145 147 141 109 74 67 62 78 68 95 169 135 181 242 260 317 373 362 328 270 217 171 125 101 108 103 90 64 44 48 42 32 58 87 88 84 81 81 84
169 168 70 119 148 159 140 143 142 108 87 84 103 78 99 174 163 189 176 209 288 362 386 316 257 207 168 119 97 91 83 63 54 64 32 0 14 46 62 88 94 92 85 69
118 133 135 118 142 125 172 112 94 107 158 157 144 174 208 207 186 142 167 217 278 337 323 320 290 207 147 116 92 77 60 63 78 58 24 60 82 71 73 80 70 72 88 84
217 157 104 115 120 139 146 106 102 132 163 188 203 261 263 290 218 103 94 141 214 309 368 359 233 188 152 111 97 76 83 82 77 65 62 61 69 74 87 91 91 87 77 80
152 183 168 111 102 68 148 141 159 183 217 243 210 245 146 261 177 220 146 138 222 308 349 307 255 209 162 141 92 101 101 120 91 87 89 102 109 124 123 116 90 73 69 65
157 97 160 193 182 186 201 231 211 199 293 310 176 163 233 215 199 182 104 111 172 258 316 361 306 193 168 114 99 137 122 120 110 92 110 119 135 134 137 90 69 73 72 69
148 191 74 42 47 146 196 231 275 369 361 280 264 269 246 227 183 106 77 89 144 159 230 275 186 127 141 135 235 123 131 147 109 106 109 131 153 149 104 70 61 61 56 55
142 211 146 72 95 84 181 217 137 213 233 312 350 289 242 246 276 213 140 140 129 122 160 156 115 159 162 211 144 168 173 165 121 112 154 189 161 129 97 70 52 50 59 59
265 168 121 188 212 197 148 154 281 339 428 430 358 293 312 210 141 118 137 108 106 129 152 128 136 184 190 200 200 205 185 154 134 178 175 147 127 101 78 70 82 86 74 66
351 278 247 194 260 177 222 251 243 235 262 329 306 278 144 129 121 106 94 68 88 121 77 84 141 195 216 227 242 229 186 178 185 156 165 147 119 89 90 112 113 91 78 74
113 173 174 173 169 184 224 197 177 269 231 322 279 221 148 165 154 112 79 70 86 40 57 153 192 268 281 270 269 220 203 208 172 168 163 137 119 94 115 130 113 92 82 68
47 99 213 244 132 165 210 182 150 181 198 189 227 236 212 188 162 94 76 95 136 100 138 168 219 256 304 292 304 251 239 206 180 180 140 122 108 110 119 115 103 91 77 65
114 116 132 106 96 147 196 246 324 329 275 197 190 108 206 224 184 102 103 168 153 152 128 199 231 270 296 297 252 244 246 205 174 148 120 110 108 113 115 107 96 81 71 63
62 114 60 71 99 78 103 106 158 161 167 184 122 126 128 120 116 132 156 224 186 91 122 166 205 254 279 262 257 260 235 198 164 131 108 103 118 125 114 107 100 82 75 60
127 132 83 97 77 60 76 40 59 53 96 139 107 113 141 143 144 128 137 161 149 177 129 140 161 172 198 231 257 237 214 176 151 123 104 114 112 116 107 100 87 82 69 56
117 125 112 100 79 66 56 86 102 108 142 177 175 151 170 145 91 77 92 124 168 179 134 123 108 112 152 208 224 199 179 182 138 110 119 118 112 97 99 92 82 76 65 49
115 115 105 116 109 112 97 108 67 28 16 142 173 164 160 54 65 111 147 151 171 175 157 130 100 106 130 167 175 188 197 162 138 131 128 124 108 104 98 87 80 68 57 56
133 120 149 136 92 88 72 111 130 114 34 36 12 53 89 88 113 97 97 103 123 134 123 83 87 116 154 166 177 183 181 160 145 136 138 130 116 107 96 80 75 64 62 66
31 79 160 136 141 72 70 54 87 136 101 60 67 54 123 140 138 101 133 153 174 128 104 107 115 143 167 157 177 191 182 164 139 144 152 143 118 100 87 76 72 64 67 61
45 70 72 98 126 89 90 134 100 148 75 59 64 76 121 138 112 79 118 155 162 147 103 110 122 152 158 186 192 185 181 158 157 158 150 137 121 110 98 81 67 69 64 60
76 85 84 86 107 111 121 225 196 43 71 47 26 40 75 99 102 142 136 146 117 121 113 119 140 156 171 193 196 194 171 178 175 165 153 133 123 112 95 84 75 72 68 60
70 82 84 89 97 152 146 96 30 11 1 46 35 43 87 133 123 134 150 109 95 89 97 119 134 167 167 179 185 206 200 191 187 162 147 139 129 110 96 86 81 78 64 55
63 82 102 69 112 71 154 68 53 76 33 32 33 55 97 89 111 85 80 85 71 89 109 127 145 161 172 165 161 168 200 191 187 161 158 146 137 130 106 85 79 73 67 65
73 90 59 67 25 15 -36 -1 17 1 45 50 55 31 37 59 60 76 78 60 85 112 114 112 102 119 136 163 172 184 197 191 174 165 155 146 137 123 108 87 82 75 70 61
86 95 107 69 50 28 12 18 43 50 53 52 67 95 74 56 61 84 84 77 115 119 127 133 119 108 130 153 185 190 185 178 183 167 145 142 144 127 112 115 119 92 87 96